     2              OBSERVATION DATA    GPS                 RINEX VERSION / TYPE
teqc 2000Feb29 simon 20000628 03:01:02UTC                   PGM / RUN BY / DATE
                                                            COMMENT
L2: 1 -> 1; 150 -> 5; 250 -> 9                              COMMENT
L2: 1 -> 1; 150 -> 5; 250 -> 9                              COMMENT
L2: 1 -> 1; 150 -> 5; 250 -> 9                              COMMENT
L2: 1 -> 1; 150 -> 5; 250 -> 9                              COMMENT
L2: 1 -> 1; 150 -> 5; 250 -> 9                              COMMENT
Original Marker Name: GS08                                  COMMENT
Campaign Name: China Lake April 2000                        COMMENT
4-Character Station Name: GS08                              COMMENT
6-Character Antenna Code: ASHGD3                            COMMENT
Vertical Measurement Point: TGP                             COMMENT
Vertical Offset to Rinex Ref. Point: 0.0640                 COMMENT
Radial Measurement Point: OOH                               COMMENT
Radial Offset to Rinex Ref. Point: 0.1737                   COMMENT
Antenna Height from Field Measurement: 1.0060 m             COMMENT
Additional Antenna Identification Info.:                    COMMENT
The Whopper (700718AB)                                      COMMENT
Original XYZ: -2411596.9800 -4568498.9500 3730417.0700      COMMENT
New XYZ position is based on association with SCEC monument COMMENT
E1F1W1J5+0011. Position of that monument is believed to be  COMMENT
valid to within 1 m horizontally; vertical accuracy         COMMENT
should be no worse than 3-times this value.                 COMMENT
                                                            COMMENT
Revised Rinex header created by UCSD GPS archive for        COMMENT
GSAC on 14-Sep-2001 (2001:257) 19:22:45 GMT                 COMMENT
For assistance contact dagnew@ucsd.edu                      COMMENT
or anderson@python.ucsd.edu                                 COMMENT
                                                            COMMENT
3187 S                                                      MARKER NAME
kmed                                                        MARKER NUMBER
NLT US NATIONAL IMAGERY MAPPING AGENCY                      OBSERVER / AGENCY
500 ASHTECH Z-XII3 4J30                                     REC # / TYPE / VERS
113 ASHTECH GEODETIC III                                    ANT # / TYPE
 -2436056.5893 -4555502.9878  3731342.1307                  APPROX POSITION XYZ
        0.9269        0.0000        0.0000                  ANTENNA: DELTA H/E/N
     1     1     0                                          WAVELENGTH FACT L1/2
     7    L1    L2    C1    P1    P2    S1    S2            # / TYPES OF OBSERV
    30                                                      INTERVAL
  2000     5    22    14    58    0.000000                  TIME OF FIRST OBS
  2000     5    22    21    30   30.000000                  TIME OF LAST OBS
                                                            END OF HEADER
 00  5 22 14 58  0.0000000  0  6G24G 2G 4G 5G 7G 9
    -85126.62859    -45016.22856  20444812.691    20444809.588    20444822.434
       233.000         181.000
     27489.83849     10210.90347  20407473.766    20407470.159    20407480.714
       235.000         188.000
    -48680.46659    -26300.48557  18658318.061    18658316.291    18658325.454
       241.000         205.000
    -22890.54053                  21779045.304
       219.000          74.000
     25701.67459     13460.18357  19491045.484    19491043.221    19491051.939
       243.000         207.000
    -43271.29859    -20622.89757  19299657.940    19299655.556    19299663.346
       244.000         207.000
 00  5 22 14 58 30.0000000  0  6G24G 2G 4G 5G 7G 9
   -209209.63759   -141704.19246  20421199.833    20421197.831    20421210.171
       233.000         180.000
     56705.62049     32976.30447  20413032.638    20413030.153    20413040.632
       234.000         188.000
   -120539.19159    -82294.30847  18644643.675    18644642.011    18644651.281
       241.000         205.000
   -171797.24949   -109845.62645  21757810.504    21757806.813    21757818.747
       219.000         160.000
     52563.07449     34391.05747  19496156.900    19496154.887    19496163.797
       242.000         207.000
    -99413.98859    -64370.48047  19288973.911    19288971.799    19288979.836
       243.000         207.000
 00  5 22 14 59  0.0000000  0  6G24G 2G 4G 5G 7G 9
   -333003.80049   -238167.05846  22496189.553    22496187.731    22496200.074
       232.000         180.000
     86190.99549     55951.80047  22517190.498    22517188.264    22517198.810
       234.000         188.000
   -191811.11249   -137830.86647  20729628.065    20729626.639    20729635.840
       241.000         205.000
   -283340.40659   -196762.36155  23835131.700    23835129.758    23835140.074
       218.000         160.000
     79590.52649     55451.34747  21599847.220    21599845.258    21599854.153
       242.000         207.000
   -154991.00449   -107677.26847  21376944.901    21376943.019    21376951.156
       243.000         206.000
 00  5 22 14 59 30.0000000  0  6G24G 2G 4G 5G 7G 9
   -456557.36349   -334442.44946  22472677.912    22472676.232    22472688.555
       231.000         180.000
    115966.66349     79153.49846  22522856.548    22522854.438    22522864.905
       233.000         187.000
   -262521.06349   -192929.52547  20716172.361    20716171.063    20716180.192
       242.000         205.000
   -394878.31249   -283674.97445  23813906.626    23813904.780    23813915.534
       220.000         161.000
    106802.29949     76655.25847  21605025.402    21605023.482    21605032.503
       242.000         208.000
   -210020.26349   -150557.23547  21366473.015    21366471.252    21366479.469
       243.000         206.000
 00  5 22 15  0  0.0000000  0  6G24G 2G 4G 5G 7G 9
   -579915.48649   -430565.54946  22449203.413    22449201.872    22449214.308
       230.000         181.000
    145948.88749    102516.14146  22528561.905    22528559.906    22528570.484
       233.000         187.000
   -332727.59549   -247635.91947  20702812.460    20702811.265    20702820.295
       242.000         205.000
   -506461.03049   -370622.52045  23792673.107    23792671.290    23792682.112
       218.000         160.000
    134113.87049     97936.93147  21610222.609    21610220.706    21610229.773
       242.000         207.000
   -264564.12049   -193058.96347  21356093.579    21356091.907    21356100.148
       243.000         206.000
 00  5 22 15  0 30.0000000  0  6G24G 2G 4G 5G 7G 9
   -703139.11549   -526583.83846  22425754.594    22425753.124    22425765.653
       231.000         181.000
    176074.41849    125990.45846  22534294.665    22534292.680    22534303.281
       233.000         187.000
   -402492.80749   -301998.41747  20689536.558    20689535.429    20689544.430
       242.000         206.000
   -618151.32549   -457653.88146  23771419.166    23771417.313    23771428.237
       220.000         163.000
    161460.30649    119245.77847  21615426.462    21615424.587    21615433.617
       242.000         207.000
   -318685.14649   -235231.21547  21345794.635    21345793.024    21345801.263
       243.000         207.000
 00  5 22 15  1  0.0000000  0  6G24G 2G 4G 5G 7G 9
   -826249.25649   -622513.68046  22402327.432    22402325.999    22402338.557
       231.000         182.000
    206319.61549    149558.01046  22540050.108    22540048.189    22540058.897
       232.000         187.000
   -471838.77049   -356034.22047  20676340.538    20676339.378    20676348.348
       242.000         206.000
   -729971.85649   -544786.73546  23750140.435    23750138.702    23750149.546
       221.000         163.000
    188816.62149    140562.31847  21620632.165    21620630.318    21620639.351
       241.000         206.000
   -372406.28349   -277091.85447  21335571.755    21335570.246    21335578.491
       243.000         207.000
 00  5 22 15  1 30.0000000  0  6G24G 2G 4G 5G 7G 9
   -949278.46949   -718380.47646  22378915.683    22378914.294    22378926.834
       231.000         182.000
    236649.30749    173191.39946  22545821.645    22545819.776    22545830.561
       232.000         186.000
   -540799.22549   -409769.63247  20663217.852    20663216.697    20663225.647
       242.000         206.000
   -841956.83849   -632047.70746  23728830.368    23728828.662    23728839.415
       220.000         163.000
    216146.29349    161858.09247  21625832.918    21625831.016    21625839.971
       242.000         206.000
   -425761.30449   -318667.21047  21325418.613    21325417.132    21325425.400
       243.000         208.000
 00  5 22 15  2  0.0000000  0  6G24G 2G 4G 5G 7G 9
  -1072248.40249   -814201.07446  22355515.190    22355513.854    22355526.392
       231.000         182.000
    267039.28949    196871.76546  22551604.564    22551602.809    22551613.708
       230.000         187.000
   -609397.23349   -463222.61347  20650164.148    20650162.973    20650171.899
       242.000         206.000
   -954129.78249   -719455.17446  23707484.687    23707482.939    23707493.565
       222.000         164.000
    243423.62649    183113.09447  21631023.677    21631021.765    21631030.666
       242.000         205.000
   -478773.66249   -359975.56547  21315330.745    21315329.253    21315337.522
       243.000         207.000
 00  5 22 15  2 30.0000000  0  6G24G 2G 4G 5G 7G 9
  -1195116.98549   -909942.69146  22332134.033    22332132.663    22332145.213
       231.000         182.000
    297529.15849    220629.96446  22557406.634    22557404.881    22557415.925
       231.000         186.000
   -677591.85149   -516361.25947  20637187.168    20637185.988    20637194.951
       241.000         205.000
  -1066450.25149   -806977.56446  23686110.820    23686109.075    23686119.750
       219.000         165.000
    270686.85049    204357.10047  21636211.755    21636209.831    21636218.679
       242.000         204.000
   -531402.82249   -400985.31547  21305315.791    21305314.284    21305322.541
       244.000         208.000
 00  5 22 15  3  0.0000000  0  6G24G 2G 4G 5G 7G 9
  -1317888.09649  -1005608.35946  22308771.440    22308770.035    22308782.612
       231.000         182.000
    328112.31149    244460.86046  22563226.589    22563224.738    22563235.803
       231.000         186.000
   -745388.14749   -569189.53947  20624285.874    20624284.755    20624293.773
       241.000         205.000
  -1178923.97149   -894619.38246  23664707.771    23664706.012    23664716.725
       222.000         166.000
    297928.16049    225584.03047  21641395.643    21641393.710    21641402.516
       242.000         204.000
   -583654.48949   -441700.92347  21295372.631    21295371.160    21295379.382
       244.000         208.000
 00  5 22 15  3 30.0000000  0  6G24G 2G 4G 5G 7G 9
  -1440471.23349  -1101127.55646  22285444.461    22285443.168    22285455.739
       231.000         183.000
    358876.96949    268433.17546  22569081.002    22569079.114    22569090.224
       231.000         185.000
   -812696.87749   -621637.89847  20611477.395    20611476.326    20611485.368
       241.000         205.000
  -1291462.09949   -982311.39146  23643292.349    23643290.678    23643301.503
       220.000         165.000
    325234.14049    246861.35447  21646591.875    21646589.915    21646598.703
       242.000         204.000
   -635439.66349   -482053.03147  21285518.284    21285516.818    21285525.038
       245.000         208.000
 00  5 22 15  4  0.0000000  0  7G24G 2G 4G 5G16G 7G 9
  -1562909.97149  -1196534.23346  22262145.125    22262143.821    22262156.327
       232.000         183.000
    389776.66049    292510.71346  22574961.170    22574959.210    22574970.267
       231.000         184.000
   -879563.01649   -673741.37847  20598753.216    20598752.156    20598761.176
       241.000         206.000
  -1404109.99249  -1070088.92746  23621856.087    23621854.419    23621865.329
       221.000         165.000
   -196987.31659   -138467.87955  24989438.160    24989436.300    24989451.939
       208.000         148.000
    352557.14849    268151.93847  21651791.260    21651789.338    21651798.143
       241.000         204.000
   -686803.58049   -522076.89647  21275744.116    21275742.629    21275750.873
       245.000         208.000
 00  5 22 15  4 30.0000000  0  7G24G 2G 4G 5G16G 7G 9
  -1685194.77649  -1291820.97546  22238875.062    22238873.738    22238886.197
       233.000         183.000
    420818.79449    316699.25346  22580868.437    22580866.470    22580877.483
       232.000         184.000
   -945978.37449   -725493.60447  20586114.762    20586113.742    20586122.785
       241.000         206.000
  -1516859.79449  -1157945.87446  23600400.449    23600398.837    23600409.759
       223.000         166.000
   -275253.82049   -199454.57155  24974544.256    24974542.023    24974559.166
       208.000         150.000
    379903.02349    289460.34447  21656995.096    21656993.143    21657001.970
       241.000         205.000
   -737738.58649   -561766.54547  21266051.516    21266050.041    21266058.330
       245.000         208.000
 00  5 22 15  5  0.0000000  0  7G24G 2G 4G 5G16G 7G 9
  -1807275.16549  -1386948.43546  22215643.895    22215642.564    22215654.965
       233.000         184.000
    452050.98949    341035.89746  22586811.906    22586809.871    22586820.877
       231.000         184.000
  -1011893.74649   -776856.22447  20573571.501    20573570.476    20573579.489
       242.000         205.000
  -1629662.70149  -1245844.18846  23578934.866    23578933.124    23578944.049
       221.000         165.000
   -353283.44859   -260256.64645  24959695.421    24959693.214    24959710.259
       206.000         147.000
    407318.03349    310822.62247  21662212.033    21662210.080    21662218.955
       241.000         205.000
   -788195.78049   -601083.86447  21256449.895    21256448.396    21256456.695
       245.000         208.000
 00  5 22 15  5 30.0000000  0  7G24G 2G 4G 5G16G 7G 9
  -1929154.33449  -1481919.10046  22192450.981    22192449.673    22192462.051
       233.000         185.000
    483467.78349    365516.37746  22592790.462    22592788.430    22592799.434
       231.000         183.000
  -1077313.62249   -827832.74547  20561122.511    20561121.507    20561130.481
       241.000         205.000
  -1742523.37549  -1333787.52146  23557458.199    23557456.450    23557467.327
       223.000         167.000
   -431079.06049   -320876.29545  24944891.074    24944888.977    24944906.052
       209.000         146.000
    434795.47849    332233.55447  21667440.943    21667438.949    21667447.817
       241.000         204.000
   -838180.04649   -640032.67747  21246938.267    21246936.749    21246945.044
       245.000         208.000
 00  5 22 15  6  0.0000000  0  7G24G 2G 4G 5G16G 7G 9
  -2050825.19649  -1576727.43646  22169297.573    22169296.393    22169308.791
       233.000         186.000
    515073.41249    390143.99646  22598804.999    22598802.891    22598813.912
       232.000         184.000
  -1142232.32249   -878418.73847  20548768.951    20548767.906    20548776.840
       242.000         205.000
  -1855436.31049  -1421771.57846  23535971.549    23535969.814    23535980.672
       222.000         167.000
   -508633.42649   -381307.95645  24930132.769    24930130.817    24930148.062
       202.000         143.000
    462338.33649    353695.45847  21672682.248    21672680.233    21672689.117
       241.000         204.000
   -887685.98449   -678608.75947  21237517.668    21237516.131    21237524.428
       245.000         208.000
 00  5 22 15  6 30.0000000  0  7G24G 2G 4G 5G16G 7G 9
  -2172277.79049  -1671365.70646  22146185.766    22146184.661    22146197.040
       233.000         185.000
    546875.37149    414924.61646  22604856.856    22604854.744    22604865.760
       230.000         184.000
  -1206641.26049   -928607.51747  20536512.386    20536511.323    20536520.224
       241.000         205.000
  -1968393.17049  -1509789.86546  23514476.753    23514474.866    23514485.678
       224.000         167.000
   -585936.81049   -441544.04245  24915422.271    24915420.354    24915437.414
       206.000         139.000
    489952.78549    375213.15647  21677937.207    21677935.171    21677944.056
       241.000         204.000
   -936705.53349   -716805.84247  21228189.628    21228188.084    21228196.379
       245.000         208.000
 00  5 22 15  7  0.0000000  0  7G24G 2G 4G 5G16G 7G 9
  -2293480.99749  -1765809.66746  22123121.576    22123120.399    22123132.728
       234.000         186.000
    578902.15949    439880.40846  22610951.426    22610949.329    22610960.446
       231.000         185.000
  -1270510.64349   -978375.86347  20524358.461    20524357.390    20524366.265
       241.000         204.000
  -2081364.46149  -1597819.38446  23492978.997    23492977.151    23492987.959
       224.000         168.000
   -662957.65849   -501560.00445  24900765.560    24900763.761    24900780.816
       208.000         139.000
    517666.02949    396807.83347  21683210.984    21683208.915    21683217.783
       242.000         204.000
   -985209.19949   -754600.93547  21218959.719    21218958.205    21218966.460
       246.000         208.000
 00  5 22 15  7 30.0000000  0  7G24G 2G 4G 5G16G 7G 9
  -2414427.32749  -1860053.47746  22100106.213    22100105.018    22100117.299
       234.000         187.000
    611158.72549    465015.25746  22617089.838    22617087.687    22617098.837
       229.000         184.000
  -1333834.49549  -1027719.12347  20512308.295    20512307.262    20512316.104
       241.000         204.000
  -2194344.18049  -1685855.49246  23471479.596    23471477.793    23471488.607
       225.000         168.000
   -739688.50449   -561349.98945  24886163.996    24886162.258    24886179.265
       211.000         146.000
    545481.75349    418482.36147  21688504.261    21688502.165    21688510.995
       241.000         204.000
  -1033191.28449   -791989.60647  21209829.130    21209827.584    21209835.772
       246.000         208.000
 00  5 22 15  8  0.0000000  0  7G24G 2G 4G 5G16G 7G 9
  -2535092.68049  -1954078.32747  22077144.224    22077143.112    22077155.389
       234.000         189.000
    643666.44849    490345.81146  22623275.886    22623273.811    22623285.052
       230.000         185.000
  -1396590.10849  -1076619.58847  20500366.240    20500365.244    20500374.126
       241.000         205.000
  -2307309.87849  -1773880.66746  23449982.899    23449981.097    23449991.937
       225.000         168.000
   -816105.06649   -620895.04745  24871622.170    24871620.589    24871637.724
       206.000         137.000
    573420.37549    440252.64947  21693820.826    21693818.772    21693827.606
       241.000         204.000
  -1080629.62849   -828954.57747  21200801.992    21200800.437    21200808.585
       246.000         208.000
 00  5 22 15  8 30.0000000  0  7G24G 2G 4G 5G16G 7G 9
  -2655476.84649  -2047884.07147  22054235.803    22054234.710    22054247.013
       236.000         191.000
    676423.03949    515870.29146  22629509.429    22629507.325    22629518.590
       229.000         183.000
  -1458778.65649  -1125078.19147  20488532.178    20488531.191    20488540.046
       241.000         205.000
  -2420262.88649  -1861895.93446  23428488.542    23428486.831    23428497.615
       226.000         168.000
   -892207.35849   -680195.25745  24857140.173    24857138.615    24857155.773
       208.000         137.000
    601478.22849    462115.85347  21699160.163    21699158.068    21699166.920
       241.000         204.000
  -1127525.85649   -865497.12047  21191878.005    21191876.434    21191884.584
       246.000         209.000
 00  5 22 15  9  0.0000000  0  7G24G 2G 4G 5G16G 7G 9
  -2775569.06549  -2141462.33747  22031383.092    22031381.898    22031394.214
       236.000         191.000
    709436.82349    541595.17646  22635791.874    22635789.776    22635801.084
       230.000         183.000
  -1520390.83649  -1173087.67347  20476807.847    20476806.820    20476815.657
       243.000         206.000
  -2533194.02949  -1949894.20246  23406998.529    23406996.757    23407007.438
       225.000         168.000
   -967984.13249   -739241.93844  24842720.291    24842718.764    24842735.752
       206.000         131.000
    629662.39749    484077.49047  21704523.402    21704521.382    21704530.253
       241.000         203.000
  -1173870.91949   -901610.18847  21183058.917    21183057.313    21183065.498
       245.000         209.000
 00  5 22 15  9 30.0000000  0  7G24G 2G 4G 5G16G 7G 9
  -2895360.23849  -2234806.02847  22008587.571    22008586.353    22008598.643
       235.000         190.000
    742714.13349    567525.41646  22642124.417    22642122.348    22642133.661
       231.000         183.000
  -1581419.43449  -1220642.41647  20465194.537    20465193.493    20465202.318
       242.000         206.000
  -2646095.86249  -2037869.58446  23385513.989    23385512.241    23385522.823
       224.000         169.000
  -1043426.55949   -798028.02045  24828363.946    24828362.420    24828379.286
       210.000         133.000
    657977.81249    506141.39247  21709911.645    21709909.662    21709918.571
       240.000         204.000
  -1219657.77549   -937288.29647  21174345.966    21174344.394    21174352.639
       245.000         209.000
 00  5 22 15 10  0.0000000  0  7G24G 2G 4G 5G16G 7G 9
  -3014853.97449  -2327917.95047  21985848.613    21985847.403    21985859.656
       235.000         190.000
    776248.83149    593656.21446  22648505.936    22648503.896    22648515.202
       230.000         181.000
  -1641869.21549  -1267746.12647  20453691.347    20453690.302    20453699.122
       242.000         206.000
  -2758973.18149  -2125825.90446  23364034.123    23364032.405    23364042.951
       226.000         170.000
  -1118537.94149   -856556.19044  24814070.520    24814069.149    24814085.883
       209.000         129.000
    686417.39549    528302.04747  21715323.553    21715321.583    21715330.543
       240.000         204.000
  -1264891.65549   -972535.51247  21165738.191    21165736.682    21165744.969
       245.000         209.000
 00  5 22 15 10 30.0000000  0  7G24G 2G 4G 5G16G 7G 9
  -3134048.32249  -2420796.59547  21963166.621    21963165.425    21963177.590
       236.000         190.000
    810040.20849    619987.02146  22654936.290    22654934.279    22654945.580
       229.000         180.000
  -1701739.73749  -1314398.47147  20442298.334    20442297.335    20442306.136
       242.000         206.000
  -2871825.81849  -2213762.97146  23342558.844    23342557.226    23342567.779
       223.000         169.000
  -1193316.19349   -914824.66644  24799840.383    24799839.107    24799855.799
       206.000         122.000
    714979.35949    550558.06047  21720758.757    21720756.778    21720765.822
       241.000         204.000
  -1309572.36349  -1007351.68247  21157235.670    21157234.227    21157242.553
       245.000         209.000
 00  5 22 15 11  0.0000000  0  7G24G 2G 4G 5G16G 7G 9
  -3252932.50049  -2513433.55247  21940543.670    21940542.452    21940554.572
       236.000         191.000
    844096.59149    646524.33346  22661417.138    22661415.096    22661426.356
       229.000         181.000
  -1761021.91149  -1360592.35547  20431017.237    20431016.315    20431025.121
       241.000         206.000
  -2984644.31049  -2301673.43746  23321090.221    23321088.555    23321099.156
       227.000         170.000
  -1267750.74649   -972825.27344  24785675.954    24785674.461    24785691.022
       207.000         128.000
    743670.63349    572914.84947  21726218.576    21726216.604    21726225.703
       240.000         204.000
  -1353691.14049  -1041729.98447  21148840.114    21148838.737    21148847.097
       245.000         209.000
 00  5 22 15 11 30.0000000  0  7G24G 2G 4G 5G16G 7G 9
  -3371487.97549  -2605814.37047  21917983.196    21917982.036    21917994.146
       235.000         191.000
    878433.75949    673280.42346  22667951.319    22667949.300    22667960.630
       229.000         180.000
  -1819698.75749  -1406314.55647  20419851.424    20419850.481    20419859.302
       241.000         206.000
  -3097411.57249  -2389543.98746  23299631.164    23299629.586    23299640.257
       224.000         169.000
  -1341822.67549  -1030543.35444  24771580.493    24771578.955    24771595.309
       207.000         129.000
    772506.19749    595384.07647  21731705.816    21731703.869    21731713.027
       240.000         204.000
  -1397231.46949  -1075657.55247  21140554.699    21140553.314    21140561.713
       246.000         209.000
 00  5 22 15 11 59.9990000  0  7G24G 2G 4G 5G16G 7G 9
  -3489697.28749  -2697925.46247  21895488.697    21895487.488    21895499.554
       236.000         191.000
    913061.62949    700263.03846  22674540.903    22674538.880    22674550.192
       228.000         181.000
  -1877756.32949  -1451554.20447  20408803.406    20408802.484    20408811.346
       242.000         206.000
  -3210111.79549  -2477362.29546  23278184.919    23278183.378    23278194.105
       224.000         170.000
  -1415515.97049  -1087966.41944  24757556.913    24757555.442    24757571.737
       200.000         129.000
    801494.77349    617972.52247  21737222.167    21737220.240    21737229.461
       240.000         203.000
  -1440180.45149  -1109124.32947  21132381.873    21132380.460    21132388.842
       246.000         209.000
 00  5 22 15 12 29.9990000  0  7G24G 2G 4G 5G16G 7G 9
  -3607545.69849  -2789755.33447  21873062.788    21873061.615    21873073.621
       236.000         191.000
    948002.61049    727489.62646  22681190.044    22681188.039    22681199.356
       230.000         181.000
  -1935177.59849  -1496298.02247  20397876.484    20397875.577    20397884.427
       241.000         206.000
  -3322731.23549  -2565117.66446  23256754.191    23256752.580    23256763.360
       222.000         169.000
  -1488813.02649  -1145080.72944  24743608.618    24743607.099    24743623.581
       206.000         127.000
    830657.14249    640696.39347  21742771.601    21742769.698    21742778.940
       241.000         203.000
  -1482520.00849  -1142116.22347  21124325.053    21124323.572    21124331.919
       246.000         209.000
 00  5 22 15 12 59.9990000  0  7G24G 2G 4G 5G16G 7G 9
  -3725039.16049  -2881308.63247  21850704.392    21850703.288    21850715.253
       236.000         191.000
    983242.95449    754949.48746  22687896.246    22687894.196    22687905.483
       229.000         182.000
  -1991971.97849  -1540553.36247  20387068.895    20387067.967    20387076.798
       242.000         206.000
  -3435277.40349  -2652815.93846  23235337.169    23235335.681    23235346.535
       223.000         169.000
  -1561720.96249  -1201891.85244  24729734.565    24729732.993    24729749.475
       205.000         131.000
    859978.95049    663544.50247  21748351.394    21748349.493    21748358.766
       240.000         203.000
  -1524260.51649  -1174641.32247  21116382.200    21116380.675    21116388.995
       246.000         209.000
 00  5 22 15 13 29.9990000  0  7G24G 2G 4G 5G16G 7G 9
  -3842166.82349  -2972576.89447  21828415.674    21828414.579    21828426.512
       236.000         192.000
   1018790.93349    782649.05446  22694660.849    22694658.875    22694670.180
       230.000         182.000
  -2048130.37149  -1584313.12747  20376382.252    20376381.344    20376390.195
       241.000         205.000
  -3547741.00049  -2740449.87446  23213936.028    23213934.538    23213945.389
       224.000         169.000
  -1634229.18148  -1258391.53944  24715936.244    24715934.831    24715951.452
       193.000         128.000
    889467.19049    686522.29747  21753962.882    21753960.972    21753970.244
       240.000         202.000
  -1565393.10149  -1206692.72247  21108554.910    21108553.442    21108561.753
       246.000         209.000
 00  5 22 15 13 59.9990000  0  7G24G 2G 4G 5G16G 7G 9
  -3958906.53949  -3063542.85647  21806200.838    21806199.703    21806211.591
       237.000         192.000
   1054665.98249    810603.48446  22701487.837    22701485.811    22701497.173
       229.000         183.000
  -2103632.27149  -1627561.32847  20365820.530    20365819.661    20365828.544
       241.000         205.000
  -3660101.01749  -2828003.09446  23192554.673    23192553.116    23192563.960
       224.000         169.000
  -1706315.32949  -1314562.33544  24702218.306    24702217.159    24702233.620
       197.000         129.000
    919140.64949    709644.42647  21759609.591    21759607.685    21759616.981
       240.000         202.000
  -1605897.69749  -1238254.77147  21100847.103    21100845.678    21100854.003
       245.000         209.000
 00  5 22 15 14 29.9990000  0  7G24G 2G 4G 5G16G 7G 9
  -4075259.62549  -3154207.55947  21784059.623    21784058.438    21784070.252
       237.000         193.000
   1090864.23149    838809.74346  22708376.296    22708374.235    22708385.624
       230.000         181.000
  -2158480.57049  -1670300.24247  20355383.265    20355382.372    20355391.235
       241.000         205.000
  -3772360.14949  -2915477.68846  23171192.396    23171190.905    23171201.654
       225.000         169.000
  -1777980.56849  -1370405.14945  24688580.739    24688579.599    24688596.000
       202.000         134.000
    948994.30949    732906.96347  21765290.611    21765288.680    21765298.050
       240.000         203.000
  -1645777.54149  -1269330.00247  21093258.209    21093256.816    21093265.153
       245.000         209.000
 00  5 22 15 14 59.9990000  0  7G24G 2G 4G 5G16G 7G 9
  -4191228.54649  -3244572.90947  21761991.513    21761990.277    21762002.018
       238.000         193.000
   1127380.59049    867263.88746  22715325.265    22715323.201    22715334.563
       230.000         181.000
  -2212679.46649  -1712533.11847  20345069.569    20345068.680    20345077.514
       242.000         205.000
  -3884522.29649  -3002876.74046  23149848.671    23149847.151    23149857.764
       227.000         171.000
  -1849227.39149  -1425921.94344  24675022.851    24675021.692    24675037.970
       197.000         129.000
    979022.00549    756305.12547  21771004.765    21771002.844    21771012.227
       240.000         203.000
  -1685037.27649  -1299922.03047  21085787.266    21085785.940    21085794.319
       245.000         209.000
 00  5 22 15 15 29.9990000  0  7G24G 2G 4G 5G16G 7G 9
  -4306828.49449  -3334650.75947  21739993.600    21739992.315    21740004.035
       238.000         194.000
   1164197.28749    895952.05446  22722331.360    22722329.286    22722340.681
       230.000         180.000
  -2266246.07049  -1754273.30547  20334876.243    20334875.294    20334884.120
       242.000         205.000
  -3996604.13649  -3090213.21046  23128520.232    23128518.696    23128529.247
       226.000         172.000
  -1920070.98248  -1481124.63844  24661541.601    24661540.289    24661556.642
       193.000         127.000
   1009204.86349    779824.18547  21776748.455    21776746.504    21776755.926
       240.000         202.000
  -1723693.75549  -1330043.99547  21078431.231    21078429.890    21078438.297
       246.000         210.000
 00  5 22 15 15 59.9990000  0  7G24G 2G 4G 5G16G 7G 9
  -4422036.66849  -3424423.32447  21718070.195    21718068.911    21718080.597
       237.000         194.000
   1201334.88649    924890.25746  22729398.469    22729396.423    22729407.923
       229.000         181.000
  -2319159.07149  -1795504.19047  20324807.272    20324806.284    20324815.113
       242.000         205.000
  -4108583.79649  -3177470.04946  23107211.252    23107209.700    23107220.231
       228.000         173.000
  -1990488.41449  -1535995.22445  24648141.497    24648140.287    24648156.429
       197.000         134.000
   1039562.15249    803479.16447  21782525.332    21782523.365    21782532.793
       240.000         202.000
  -1761726.34949  -1359679.81847  21071193.984    21071192.575    21071200.994
       246.000         210.000
 00  5 22 15 16 29.9990000  0  7G24G 2G 4G 5G16G 7G 9
  -4536847.52749  -3513886.29547  21696222.345    21696221.097    21696232.789
       237.000         193.000
   1238795.88549    954080.46846  22736527.307    22736525.192    22736536.734
       230.000         178.000
  -2371414.88849  -1836222.98247  20314863.252    20314862.326    20314871.150
       241.000         205.000
  -4220457.47449  -3264644.31346  23085922.440    23085920.843    23085931.382
       225.000         173.000
  -2060474.48449  -1590529.68945  24634823.239    24634822.079    24634838.400
       199.000         137.000
   1070095.76649    827271.53747  21788335.700    21788333.767    21788343.202
       240.000         202.000
  -1799131.73749  -1388826.91047  21064076.018    21064074.597    21064083.041
       246.000         210.000
 00  5 22 15 16 59.9990000  0  7G24G 2G 4G 5G16G 7G 9
  -4651267.86349  -3603044.95947  21674448.775    21674447.587    21674459.277
       237.000         193.000
   1276571.30649    983515.68646  22743715.941    22743713.762    22743725.317
       229.000         180.000
  -2423021.86749  -1876436.18547  20305042.791    20305041.863    20305050.689
       242.000         206.000
  -4332233.08449  -3351742.13846  23064652.116    23064650.612    23064661.198
       226.000         171.000
  -2130035.46149  -1644732.98145  24621586.066    24621584.970    24621601.163
       200.000         134.000
   1100795.65749    851193.48747  21794177.768    21794175.819    21794185.278
       240.000         202.000
  -1835918.50049  -1417491.95147  21057075.812    21057074.349    21057082.807
       247.000         210.000
 00  5 22 15 17 29.9990000  0  7G24G 2G 4G 5G16G 7G 9
  -4765284.90149  -3691889.37247  21652752.031    21652750.832    21652762.502
       237.000         193.000
   1314671.22649   1013203.75146  22750966.268    22750964.096    22750975.705
       228.000         178.000
  -2473968.90049  -1916135.14347  20295347.886    20295346.966    20295355.793
       242.000         206.000
  -4443899.02649  -3438754.52346  23043402.676    23043401.254    23043411.836
       225.000         170.000
  -2199158.56549  -1698595.10845  24608432.352    24608431.197    24608447.376
       198.000         139.000
   1131671.06549    875252.19647  21800053.208    21800051.271    21800060.721
       240.000         202.000
  -1872076.01249  -1445666.67347  21050195.268    21050193.844    21050202.299
       246.000         210.000
 00  5 22 15 17 59.9990000  0  7G24G 2G 4G 5G16G 7G 9
  -4878914.95749  -3780432.23347  21631128.889    21631127.709    21631139.378
       237.000         194.000
   1353076.40149   1043129.66846  22758274.736    22758272.495    22758284.165
       227.000         177.000
  -2524274.41949  -1955334.21847  20285775.043    20285774.148    20285782.987
       241.000         206.000
  -4555473.02949  -3525695.29846  23022170.891    23022169.390    23022179.920
       225.000         170.000
  -2267860.40849  -1752128.98245  24595358.513    24595357.456    24595373.761
       197.000         139.000
   1162701.88849    899432.01747  21805958.196    21805956.287    21805965.727
       239.000         202.000
  -1907623.01549  -1473365.67247  21043430.919    21043429.505    21043437.952
       246.000         210.000
 00  5 22 15 18 29.9990000  0  7G24G 2G 4G 5G16G 7G 9
  -4992144.73749  -3868663.18947  21609581.928    21609580.763    21609592.417
       237.000         194.000
   1391797.81249   1073302.02346  22765643.364    22765641.095    22765652.768
       229.000         178.000
  -2573926.71649  -1994024.29247  20276326.502    20276325.615    20276334.437
       242.000         205.000
  -4666942.71849  -3612554.75046  23000958.895    23000957.403    23000967.951
       227.000         171.000
  -2336127.49549  -1805324.16045  24582367.779    24582366.562    24582382.982
       199.000         144.000
   1193898.02249    923740.63947  21811894.680    21811892.752    21811902.213
       239.000         201.000
  -1942548.19249  -1500580.13047  21036784.953    21036783.512    21036791.937
       246.000         210.000
 00  5 22 15 18 59.9990000  0  7G24G 2G 4G 5G16G 7G 9
  -5104964.25849  -3956574.46547  21588113.084    21588111.885    21588123.546
       237.000         194.000
   1430842.89749   1103726.56846  22773073.558    22773071.299    22773082.976
       227.000         177.000
  -2622917.80149  -2032199.13247  20267003.785    20267002.922    20267011.711
       242.000         205.000
  -4778299.41849  -3699326.17846  22979768.361    22979766.868    22979777.506
       225.000         170.000
  -2403949.80549  -1858172.85645  24569461.625    24569460.306    24569476.819
       202.000         141.000
   1225265.93049    948183.10547  21817863.803    21817861.903    21817871.380
       239.000         202.000
  -1976843.43749  -1527303.73647  21030258.807    21030257.382    21030265.815
       246.000         211.000
 00  5 22 15 19 29.9990000  0  7G24G 2G 4G 5G16G 7G 9
  -5217407.12549  -4044192.23647  21566715.872    21566714.670    21566726.353
       237.000         194.000
   1470175.20649   1134374.93046  22780558.342    22780556.090    22780567.847
       228.000         176.000
  -2671282.93149  -2069886.21147  20257800.221    20257799.336    20257808.098
       241.000         205.000
  -4889577.85649  -3786036.63246  22958592.817    22958591.287    22958601.891
       227.000         172.000
  -2471361.06449  -1910701.24545  24556633.714    24556632.416    24556648.847
       203.000         143.000
   1256768.65849    972730.62847  21823858.590    21823856.704    21823866.236
       238.000         201.000
  -2010544.94249  -1553564.68547  21023845.627    21023844.230    21023852.708
       246.000         211.000
 00  5 22 15 19 59.9990000  0  7G24G 2G 4G 5G16G 7G 9
  -5329441.35749  -4131491.58347  21545396.339    21545395.208    21545406.933
       237.000         194.000
   1509824.56549   1165270.36046  22788103.435    22788101.233    22788113.057
       227.000         177.000
  -2718992.15849  -2107062.19847  20248721.439    20248720.547    20248729.331
       242.000         205.000
  -5000747.11049  -3872661.97046  22937437.936    22937436.450    22937447.107
       227.000         173.000
  -2538328.92549  -1962884.12845  24543890.111    24543888.760    24543905.173
       203.000         143.000
   1288434.74149    997405.44147  21829884.463    21829882.586    21829892.168
       239.000         201.000
  -2043622.45749  -1579339.40847  21017551.229    21017549.832    21017558.354
       247.000         211.000
 00  5 22 15 20 29.9990000  0  7G24G 2G 4G 5G16G 7G 9
  -5441073.79649  -4218477.84847  21524153.330    21524152.215    21524163.982
       237.000         194.000
   1549781.26949   1196405.26346  22795707.053    22795704.877    22795716.758
       225.000         177.000
  -2766054.14749  -2143733.84247  20239765.777    20239764.922    20239773.720
       241.000         205.000
  -5111815.07549  -3959208.38846  22916302.465    22916300.932    22916311.566
       226.000         173.000
  -2604860.49749  -2014727.03845  24531229.676    24531228.166    24531244.673
       201.000         140.000
   1320253.99149   1022199.61247  21835939.526    21835937.643    21835947.205
       238.000         201.000
  -2076084.92049  -1604634.87047  21011373.904    21011372.488    21011381.037
       247.000         211.000
 00  5 22 15 20 59.9990000  0  7G24G 2G 4G 5G16G 7G 9
  -5552298.74249  -4305146.57347  21502987.874    21502986.769    21502998.600
       238.000         194.000
   1590048.45349   1227782.08646  22803369.744    22803367.604    22803379.508
       226.000         176.000
  -2812465.03549  -2179898.14247  20230934.039    20230933.188    20230942.006
       241.000         205.000
  -5222777.54549  -4045672.60646  22895187.079    22895185.460    22895196.104
       228.000         174.000
  -2670949.77349  -2066225.31545  24518653.265    24518651.828    24518668.406
       198.000         141.000
   1352228.53049   1047114.78047  21842024.153    21842022.249    21842031.809
       239.000         201.000
  -2107928.78549  -1629448.30547  21005314.266    21005312.842    21005321.419
       247.000         211.000
 00  5 22 15 21 29.9990000  0  7G24G 2G 4G 5G16G 7G 9
  -5663145.30649  -4391520.46347  21481894.442    21481893.350    21481905.179
       237.000         195.000
   1630594.25149   1259376.03246  22811085.492    22811083.358    22811095.268
       226.000         175.000
  -2858255.99849  -2215579.38547  20222220.281    20222219.457    20222228.249
       241.000         205.000
  -5333664.55649  -4132078.02846  22874085.913    22874084.344    22874094.976
       227.000         173.000
  -2736626.05149  -2117401.69545  24506155.707    24506154.070    24506170.668
       207.000         144.000
   1384325.82649   1072125.60947  21848132.099    21848130.209    21848139.805
       238.000         201.000
  -2139185.54049  -1653804.24547  20999366.355    20999364.916    20999373.503
       246.000         211.000
 00  5 22 15 21 59.9990000  0  7G24G 2G 4G 5G16G 7G 9
  -5773597.81849  -4477587.29847  21460876.007    21460874.898    21460886.752
       237.000         195.000
   1671432.08449   1291197.51346  22818856.813    22818854.669    22818866.713
       225.000         176.000
  -2903413.08849  -2250766.70947  20213627.140    20213626.320    20213635.103
       241.000         205.000
  -5444461.38049  -4218413.16046  22853001.938    22853000.405    22853011.037
       228.000         174.000
  -2801873.28949  -2168243.71445  24493739.884    24493738.058    24493754.516
       208.000         146.000
   1416558.20749   1097241.68847  21854265.706    21854263.852    21854273.488
       239.000         201.000
  -2169841.73949  -1677692.22347  20993532.681    20993531.260    20993539.873
       246.000         211.000
 00  5 22 15 22 29.9990000  0  7G24G 2G 4G 5G16G 7G 9
  -5883645.07249  -4563338.34247  21439934.656    21439933.567    21439945.456
       237.000         195.000
   1712570.50449   1323253.21846  22826685.362    22826683.185    22826695.335
       226.000         178.000
  -2947927.24249  -2285453.04347  20205156.349    20205155.537    20205164.319
       241.000         205.000
  -5555157.73449  -4304670.02946  22831937.268    22831935.627    22831946.170
       228.000         174.000
  -2866680.39549  -2218742.73145  24481407.688    24481405.706    24481421.972
       207.000         144.000
   1448933.64549   1122469.25047  21860426.670    21860424.751    21860434.425
       238.000         201.000
  -2199888.11149  -1701105.01447  20987815.042    20987813.640    20987822.294
       246.000         210.000
 00  5 22 15 22 59.9990000  0  7G24G 2G 4G 5G16G 7G 9
  -5993312.86049  -4648793.68947  21419065.557    21419064.450    21419076.381
       238.000         196.000
   1753981.13349   1355521.02346  22834565.712    22834563.506    22834575.738
       225.000         176.000
  -2991826.07049  -2319659.90647  20196802.724    20196801.866    20196810.626
       241.000         206.000
  -5665780.69649  -4390869.69846  22810886.385    22810884.776    22810895.284
       230.000         174.000
  -2931073.22349  -2268918.77445  24469154.106    24469152.157    24469168.408
       209.000         147.000
   1481422.97249   1147785.54747  21866609.200    21866607.296    21866616.986
       238.000         200.000
  -2229352.81949  -1724064.55747  20982208.154    20982206.727    20982215.367
       245.000         210.000
 00  5 22 15 23 29.9990000  0  7G24G 2G 4G 5G16G 7G 9
  -6102600.08549  -4733952.49447  21398268.884    21398267.750    21398279.727
       238.000         196.000
   1795662.53549   1387999.83446  22842497.639    22842495.400    22842507.639
       227.000         177.000
  -3035110.49449  -2353388.01147  20188566.025    20188565.136    20188573.840
       241.000         206.000
  -5776330.09549  -4477012.05046  22789849.479    22789847.885    22789858.330
       229.000         172.000
  -2995050.80049  -2318771.21745  24456979.659    24456977.737    24456993.874
       208.000         150.000
   1514023.99349   1173188.88047  21872813.055    21872811.131    21872820.785
       238.000         200.000
  -2258237.01049  -1746571.74647  20976711.758    20976710.299    20976718.897
       245.000         210.000
 00  5 22 15 23 59.9990000  0  7G24G 2G 4G 5G16G 7G 9
  -6211515.12549  -4818821.28747  21377543.000    21377541.860    21377553.868
       238.000         196.000
   1837603.60449   1420680.98946  22850479.010    22850476.723    22850488.950
       227.000         176.000
  -3077790.91449  -2386645.46847  20180444.217    20180443.298    20180452.044
       241.000         205.000
  -5886815.53249  -4563104.56746  22768824.783    22768823.183    22768833.521
       230.000         172.000
  -3058621.72849  -2368306.75045  24444882.570    24444880.651    24444896.799
       210.000         151.000
   1546724.84449   1198670.01047  21879035.891    21879033.952    21879043.576
       238.000         199.000
  -2286551.64649  -1768635.13447  20971323.717    20971322.239    20971330.839
       245.000         209.000
 00  5 22 15 24 29.9990000  0  7G24G 2G 4G 5G16G 7G 9
  -6320006.47549  -4903359.92947  21356897.740    21356896.608    21356908.633
       238.000         197.000
   1879853.53249   1453602.81046  22858519.132    22858516.816    22858528.996
       226.000         176.000
  -3119817.79249  -2419393.67247  20172446.760    20172445.844    20172454.575
       240.000         205.000
  -5997186.19149  -4649107.63646  22747821.817    22747820.283    22747830.584
       229.000         172.000
  -3121734.18249  -2417485.03545  24432872.567    24432870.727    24432886.910
       214.000         155.000
   1579574.01349   1224266.73447  21885286.888    21885284.993    21885294.590
       238.000         199.000
  -2314246.98549  -1790215.95447  20966053.480    20966052.030    20966060.633
       246.000         209.000
 00  5 22 15 24 59.9990000  0  7G24G 2G 4G 5G16G 7G 9
  -6428154.10249  -4987630.73347  21336317.895    21336316.764    21336328.798
       238.000         197.000
   1922329.51449   1486700.76946  22866602.207    22866599.893    22866612.099
       225.000         173.000
  -3161273.25249  -2451696.62447  20164558.018    20164557.132    20164565.835
       241.000         205.000
  -6107523.14749  -4735084.44846  22726825.409    22726823.837    22726834.094
       230.000         173.000
  -3184468.28849  -2466368.46745  24420934.554    24420932.850    24420948.921
       210.000         152.000
   1612488.08749   1249914.00847  21891550.305    21891548.387    21891557.956
       238.000         199.000
  -2341405.35049  -1811378.35347  20960885.454    20960884.010    20960892.594
       244.000         209.000
 00  5 22 15 25 29.9990000  0  7G24G 2G 4G 5G16G 7G 9
  -6535907.18949  -5071594.09447  21315813.108    21315811.969    21315824.077
       238.000         197.000
   1965079.81549   1520012.49946  22874737.364    22874735.165    22874747.427
       223.000         173.000
  -3202108.25849  -2483516.10447  20156787.455    20156786.504    20156795.164
       241.000         205.000
  -6217776.55149  -4820996.14946  22705844.784    22705843.275    22705853.499
       230.000         174.000
  -3246773.31549  -2514917.55045  24409078.040    24409076.509    24409092.670
       208.000         148.000
   1645514.71449   1275648.98947  21897835.131    21897833.221    21897842.744
       238.000         199.000
  -2367978.40449  -1832084.66847  20955828.767    20955827.359    20955835.919
       245.000         209.000
 00  5 22 15 25 59.9990000  0  7G24G 2G 4G 5G16G 7G 9
  -6643249.41749  -5155237.30147  21295386.494    21295385.368    21295397.513
       238.000         198.000
   2008118.29749   1553548.78146  22882927.262    22882925.238    22882937.617
       220.000         173.000
  -3242308.69549  -2514841.12047  20149137.540    20149136.608    20149145.238
       241.000         205.000
  -6327930.90949  -4906830.68346  22684883.156    22684881.607    22684891.826
       230.000         175.000
  -3308632.91149  -2563119.58645  24397306.247    24397304.910    24397321.178
       206.000         148.000
   1678666.97049   1301481.86447  21904143.807    21904141.935    21904151.455
       237.000         199.000
  -2393952.14149  -1852323.97947  20950886.162    20950884.749    20950893.327
       245.000         210.000
 00  5 22 15 26 29.9990000  0  7G24G 2G 4G 5G16G 7G 9
  -6750155.80449  -5238540.90047  21275042.796    21275041.717    21275053.870
       240.000         198.000
   2051467.47849   1587327.14646  22891176.449    22891174.417    22891186.915
       223.000         172.000
  -3281851.61149  -2545653.78847  20141612.806    20141611.861    20141620.481
       241.000         205.000
  -6437962.18149  -4992569.31346  22663944.831    22663943.311    22663953.572
       229.000         174.000
  -3370021.99749  -2610954.96645  24385624.113    24385622.872    24385639.124
       211.000         149.000
   1711966.73149   1327429.66347  21910480.592    21910478.704    21910488.261
       237.000         199.000
  -2419303.87049  -1872078.61347  20946061.923    20946060.506    20946069.089
       245.000         209.000
 00  5 22 15 26 59.9990000  0  7G24G 2G 4G 5G16G 7G 9
  -6856691.91049  -5321555.97347  21254769.658    21254768.532    21254780.644
       241.000         198.000
   2095058.93949   1621294.31046  22899471.774    22899469.726    22899482.306
       220.000         171.000
  -3320804.70449  -2576006.85347  20134200.346    20134199.361    20134207.961
       242.000         205.000
  -6547936.87649  -5078263.86046  22643017.363    22643015.807    22643026.039
       231.000         174.000
  -3431006.44749  -2658475.11945  24374019.152    24374017.849    24374033.928
       210.000         147.000
   1745345.00949   1353438.64347  21916832.395    21916830.453    21916839.980
       238.000         198.000
  -2444101.26849  -1891401.30447  20941343.127    20941341.735    20941350.325
       245.000         209.000
 00  5 22 15 27 29.9990000  0  7G24G 2G 4G 5G16G 7G 9
  -6962816.92949  -5404250.69947  21234574.756    21234573.582    21234585.655
       241.000         199.000
   2138931.34749   1655480.36446  22907820.399    22907818.467    22907831.237
       221.000         172.000
  -3359129.13449  -2605870.04447  20126907.441    20126906.489    20126915.076
       241.000         205.000
  -6657814.90349  -5163883.07446  22622108.229    22622106.697    22622116.917
       230.000         175.000
  -3491545.22749  -2705647.94745  24362498.980    24362497.566    24362513.644
       209.000         150.000
   1778839.78149   1379538.40347  21923206.284    21923204.355    21923213.873
       237.000         197.000
  -2468305.76249  -1910261.98447  20936737.206    20936735.804    20936744.378
       245.000         209.000
 00  5 22 15 27 59.9990000  0  7G24G 2G 4G 5G16G 7G 9
  -7068539.69949  -5486631.99447  21214456.396    21214455.190    21214467.211
       241.000         200.000
   2183073.15249   1689876.33746  22916220.358    22916218.474    22916231.362
       220.000         173.000
  -3396836.00249  -2635252.02247  20119732.026    20119731.104    20119739.676
       241.000         205.000
  -6767605.82949  -5249434.42246  22601215.677    22601214.148    22601224.367
       229.000         175.000
  -3551647.59049  -2752480.74045  24351061.711    24351060.277    24351076.484
       212.000         150.000
   1812438.68549   1405719.29747  21929599.986    21929598.057    21929607.618
       237.000         198.000
  -2491928.95349  -1928669.70547  20932241.887    20932240.488    20932249.079
       245.000         209.000
 00  5 22 15 28 29.9990000  0  7G24G 2G 4G 5G16G 7G 9
  -7173833.20349  -5568678.79447  21194419.691    21194418.503    21194430.445
       242.000         199.000
   2227508.82449   1724501.29846  22924676.447    22924674.424    22924687.457
       223.000         171.000
  -3433900.40749  -2664133.37647  20112678.883    20112677.955    20112686.552
       240.000         204.000
  -6877283.54249  -5334897.54946  22580344.650    22580343.128    22580353.323
       229.000         174.000
  -3611286.22149  -2798952.22945  24339712.771    24339711.393    24339727.395
       210.000         147.000
   1846165.97249   1432000.22747  21936018.145    21936016.205    21936025.817
       237.000         198.000
  -2514945.87849  -1946605.01347  20927861.840    20927860.491    20927869.157
       244.000         208.000
 00  5 22 15 28 59.9990000  0  7G24G 2G 4G 5G16G 7G 9
  -7278753.20249  -5650434.55247  21174454.045    21174452.843    21174464.718
       241.000         198.000
   2272180.14049   1759309.90046  22933177.316    22933175.247    22933188.313
       222.000         173.000
  -3470380.14349  -2692559.15147  20105737.032    20105736.087    20105744.659
       241.000         205.000
  -6986904.52549  -5420316.46346  22559484.430    22559482.892    22559493.157
       229.000         176.000
  -3670517.32049  -2845106.22345  24328441.350    24328439.969    24328455.865
       209.000         145.000
   1879962.60649   1458335.20047  21942449.493    21942447.558    21942457.168
       238.000         197.000
  -2537414.75149  -1964113.27047  20923586.151    20923584.823    20923593.466
       245.000         208.000
 00  5 22 15 29 29.9990000  0  7G24G 2G 4G 5G16G 7G 9
  -7383258.22749  -5731866.94647  21154567.263    21154566.136    21154577.947
       241.000         198.000
   2317125.85449   1794332.31246  22941730.414    22941728.317    22941741.488
       224.000         174.000
  -3506235.81749  -2720498.64447  20098913.961    20098912.988    20098921.533
       241.000         205.000
  -7096427.92549  -5505659.33446  22538642.717    22538641.244    22538651.540
       230.000         177.000
  -3729299.13649  -2890910.16645  24317255.268    24317254.030    24317269.689
       210.000         149.000
   1913867.09949   1484754.22247  21948901.336    21948899.408    21948909.034
       236.000         196.000
  -2559296.52949  -1981164.03747  20919422.245    20919420.890    20919429.541
       245.000         209.000
 00  5 22 15 29 59.9990000  0  7G24G 2G 4G 5G16G 7G 9
  -7487311.53249  -5812947.35547  21134766.470    21134765.385    21134777.135
       241.000         198.000
   2362380.14349   1829595.18246  22950342.182    22950340.079    22950353.337
       225.000         171.000
  -3541432.94949  -2747924.99447  20092216.209    20092215.219    20092223.769
       241.000         206.000
  -7205818.07949  -5590898.39246  22517826.390    22517824.952    22517835.272
       231.000         179.000
  -3787594.99649  -2936335.41545  24306161.807    24306160.594    24306176.361
       214.000         156.000
   1947912.99749   1511283.42547  21955380.029    21955378.148    21955387.801
       237.000         196.000
  -2580556.73449  -1997730.47447  20915376.621    20915375.250    20915383.921
       245.000         209.000
 00  5 22 15 30 29.9990000  0  7G24G 2G 4G 5G16G 7G 9
  -7590949.86949  -5893704.41747  21115044.683    21115043.608    21115055.293
       241.000         198.000
   2407903.92849   1865068.04346  22959005.284    22959003.142    22959016.383
       224.000         169.000
  -3576010.60449  -2774868.63047  20085636.290    20085635.323    20085643.859
       241.000         206.000
  -7315112.45449  -5676062.81346  22497028.303    22497026.899    22497037.231
       232.000         179.000
  -3845441.84649  -2981410.79045  24295153.969    24295152.587    24295168.379
       213.000         154.000
   1982060.52649   1537891.82547  21961878.181    21961876.265    21961885.905
       236.000         195.000
  -2601234.41949  -2013843.00047  20911441.838    20911440.443    20911449.120
       245.000         209.000
 00  5 22 15 30 59.9990000  0  7G24G 2G 4G 5G16G 7G 9
  -7694181.67649  -5974144.70847  21095400.299    21095399.190    21095410.823
       242.000         199.000
   2453686.03649   1900742.19746  22967717.561    22967715.386    22967728.602
       223.000         168.000
  -3609979.31049  -2801337.75447  20079172.266    20079171.310    20079179.853
       241.000         206.000
  -7424320.16049  -5761159.70346  22476246.855    22476245.376    22476255.679
       230.000         180.000
  -3902848.17349  -3026142.95245  24284229.844    24284228.408    24284244.203
       213.000         153.000
   2016298.33349   1564570.56047  21968393.404    21968391.507    21968401.190
       235.000         195.000
  -2621340.67549  -2029510.25347  20907615.771    20907614.367    20907623.039
       245.000         209.000
 00  5 22 15 31 29.9990000  0  7G24G 2G 4G 5G16G 7G 9
  -7796998.82949  -6054261.89147  21075834.846    21075833.695    21075845.268
       242.000         199.000
   2499732.31249   1936622.19646  22976479.994    22976477.820    22976491.093
       222.000         169.000
  -3643333.11749  -2827327.73447  20072825.319    20072824.330    20072832.876
       241.000         206.000
  -7533433.79349  -5846183.29046  22455483.193    22455481.710    22455492.044
       231.000         180.000
  -3959805.91249  -3070525.60845  24273391.121    24273389.635    24273405.323
       212.000         154.000
   2050631.46249   1591323.57347  21974926.832    21974924.948    21974934.690
       236.000         197.000
  -2640869.79649  -2044727.79347  20903899.562    20903898.147    20903906.796
       245.000         209.000
 00  5 22 15 31 59.9990000  0  7G24G 2G 4G 5G16G 7G 9
  -7899396.70749  -6134052.36447  21056349.153    21056347.977    21056359.528
       242.000         200.000
   2546044.74249   1972709.57246  22985293.251    22985291.003    22985304.265
       221.000         168.000
  -3676069.59649  -2852836.68247  20066595.841    20066594.816    20066603.330
       241.000         206.000
  -7642449.47549  -5931130.54346  22434738.168    22434736.711    22434747.004
       230.000         179.000
  -4016310.52149  -3114555.17045  24262638.554    24262637.075    24262652.711
       216.000         155.000
   2085061.62749   1618152.20047  21981478.821    21981476.856    21981486.662
       236.000         196.000
  -2659819.35049  -2059493.72647  20900293.600    20900292.191    20900300.866
       245.000         210.000
 00  5 22 15 32 29.9990000  0  7G24G 2G 4G 5G16G 7G 9
  -8001340.53049  -6213489.03147  21036949.923    21036948.682    21036960.219
       243.000         200.000
   2592655.73549   2009029.57646  22994163.308    22994160.975    22994174.292
       223.000         169.000
  -3708156.30849  -2877839.31747  20060490.005    20060488.967    20060497.415
       241.000         206.000
  -7751332.82549  -6015974.67646  22414018.323    22414016.868    22414027.191
       231.000         179.000
  -4072326.90049  -3158204.32245  24251978.937    24251977.440    24251992.963
       216.000         154.000
   2119620.59049   1645081.18547  21988055.297    21988053.285    21988063.127
       236.000         196.000
  -2678157.08549  -2073782.91647  20896804.022    20896802.670    20896811.379
       245.000         210.000
 00  5 22 15 32 59.9990000  0  7G24G 2G 4G 5G16G 7G 9
  -8102818.71149  -6292562.86147  21017639.284    21017637.994    21017649.490
       243.000         200.000
   2639574.22649   2045589.19846  23003091.838    23003089.460    23003102.805
       220.000         169.000
  -3739583.83749  -2902328.29247  20054509.554    20054508.524    20054516.956
       241.000         206.000
  -7860072.92849  -6100707.20346  22393325.822    22393324.300    22393334.598
       231.000         179.000
  -4127843.96149  -3201464.39245  24241414.297    24241412.910    24241428.298
       217.000         155.000
   2154317.03749   1672117.30347  21994657.860    21994655.863    21994665.751
       236.000         196.000
  -2695873.89149  -2087588.26147  20893432.695    20893431.309    20893440.048
       245.000         210.000
 00  5 22 15 33 29.9990000  0  7G24G 2G 4G 5G16G 7G 9
  -8203829.07249  -6371272.16547  20998417.618    20998416.329    20998427.780
       243.000         201.000
   2686799.84049   2082388.12846  23012078.797    23012076.396    23012089.763
       223.000         170.000
  -3770352.33249  -2926303.74147  20048654.534    20048653.491    20048661.931
       241.000         206.000
  -7968668.14549  -6185326.81846  22372660.802    22372659.308    22372669.566
       231.000         179.000
  -4182859.58649  -3244333.71945  24230945.224    24230943.826    24230959.051
       217.000         154.000
   2189150.10149   1699259.88647  22001286.510    22001284.475    22001294.340
       237.000         196.000
  -2712970.04749  -2100909.99447  20890179.429    20890178.048    20890186.809
       245.000         209.000
 00  5 22 15 33 59.9990000  0  7G24G 2G 4G 5G16G 7G 9
  -8304392.25149  -6449633.01047  20979281.073    20979279.778    20979291.174
       243.000         201.000
   2734309.66049   2119408.51046  23021119.762    23021117.410    23021130.813
       221.000         166.000
  -3800484.52749  -2949783.36847  20042920.563    20042919.537    20042927.994
       241.000         206.000
  -8077139.56349  -6269849.97346  22352019.414    22352017.893    22352028.118
       231.000         180.000
  -4237394.52949  -3286828.47045  24220567.613    24220566.097    24220581.345
       213.000         155.000
   2224096.54649   1726490.82347  22007936.629    22007934.634    22007944.506
       235.000         195.000
  -2729468.57149  -2113766.02847  20887039.954    20887038.537    20887047.287
       245.000         209.000
 00  5 22 15 34 29.9990000  0  7G24G 2G 4G 5G16G 7G 9
  -8404521.92249  -6527656.06947  20960227.004    20960225.723    20960237.041
       242.000         202.000
   2782087.16949   2156637.48946  23030211.635    23030209.371    23030222.811
       222.000         169.000
  -3829996.51449  -2972779.71047  20037304.633    20037303.607    20037312.049
       242.000         206.000
  -8185501.59749  -6354287.88646  22331398.795    22331397.264    22331407.514
       231.000         180.000
  -4291462.27449  -3328959.18345  24210278.929    24210277.285    24210292.386
       214.000         150.000
   2259139.59049   1753797.01647  22014605.178    22014603.166    22014613.054
       236.000         195.000
  -2745385.89749  -2126169.19147  20884011.001    20884009.609    20884018.357
       245.000         209.000
 00  5 22 15 34 59.9990000  0  7G24G 2G 4G 5G16G 7G 9
  -8504186.04049  -6605316.34747  20941261.463    20941260.236    20941271.500
       242.000         202.000
   2830161.98549   2194098.13546  23039360.228    23039357.984    23039371.465
       222.000         169.000
  -3858858.46949  -2995269.52047  20031812.392    20031811.378    20031819.789
       241.000         206.000
  -8293722.72549  -6438616.00946  22310805.063    22310803.474    22310813.737
       232.000         182.000
  -4345030.91849  -3370700.95045  24200085.131    24200083.470    24200098.418
       215.000         149.000
   2294308.60349   1781201.37147  22021297.684    22021295.655    22021305.589
       235.000         195.000
  -2760692.19149  -2138096.21947  20881098.361    20881096.954    20881105.701
       245.000         210.000
 00  5 22 15 35 29.9990000  0  7G24G 2G 4G 5G16G 7G 9
  -8603407.14349  -6682631.41647  20922380.258    20922379.056    20922390.289
       242.000         202.000
   2878509.32749   2231771.14446  23048560.684    23048558.396    23048571.942
       221.000         166.000
  -3887095.11649  -3017272.08847  20026439.171    20026438.133    20026446.523
       241.000         205.000
  -8401825.82549  -6522852.15646  22290233.688    22290232.115    22290242.403
       231.000         183.000
  -4398123.19449  -3412071.47045  24189981.902    24189980.267    24189995.332
       214.000         152.000
   2329578.09249   1808684.01647  22028009.274    22028007.293    22028017.210
       235.000         195.000
  -2775412.36849  -2149566.53947  20878297.305    20878295.868    20878304.571
       246.000         210.000
 00  5 22 15 35 59.9990000  0  7G24G 2G 4G 5G16G 7G 9
  -8702167.54149  -6759587.49647  20903586.756    20903585.536    20903596.756
       242.000         202.000
   2927144.28049   2269668.25646  23057815.860    23057813.508    23057827.097
       222.000         169.000
  -3914691.61349  -3038775.83647  20021187.702    20021186.683    20021195.049
       241.000         205.000
  -8509793.75449  -6606982.97846  22269688.158    22269686.525    22269696.816
       232.000         183.000
  -4450721.59549  -3453057.13445  24179972.640    24179971.067    24179986.157
       217.000         152.000
   2364962.80749   1836256.45147  22034742.802    22034740.837    22034750.755
       235.000         195.000
  -2789531.69349  -2160568.66447  20875610.629    20875609.129    20875617.772
       246.000         210.000
 00  5 22 15 36 29.9990000  0  7G24G 2G 4G 5G16G 7G 9
  -8800466.12849  -6836183.72547  20884881.059    20884879.875    20884891.087
       241.000         201.000
   2976065.42049   2307788.35246  23067125.458    23067123.074    23067136.759
       218.000         166.000
  -3941648.75049  -3059781.38047  20016057.827    20016056.880    20016065.255
       241.000         205.000
  -8617625.69649  -6691007.82946  22249168.433    22249166.791    22249177.073
       232.000         185.000
  -4502824.98149  -3493657.02845  24170057.659    24170056.079    24170071.243
       215.000         151.000
   2400461.37149   1863917.59347  22041497.904    22041496.035    22041505.994
       235.000         194.000
  -2803051.32549  -2171103.49947  20873037.998    20873036.490    20873045.104
       246.000         210.000
 00  5 22 15 36 59.9990000  0  7G24G 2G 4G 5G16G 7G 9
  -8898325.48049  -6912437.69647  20866258.951    20866257.782    20866269.009
       242.000         202.000
   3025247.74249   2346111.97246  23076484.788    23076482.327    23076496.042
       222.000         166.000
  -3967991.52449  -3080308.21047  20011044.959    20011044.017    20011052.414
       241.000         206.000
  -8725344.91749  -6774944.85046  22228670.103    22228668.513    22228678.829
       232.000         184.000
  -4554456.12149  -3533888.96645  24160232.501    24160230.999    24160246.085
       215.000         153.000
   2436048.29749   1891647.60047  22048269.969    22048268.045    22048278.067
       234.000         194.000
  -2815996.42349  -2181190.64947  20870574.674    20870573.182    20870581.763
       246.000         210.000
 00  5 22 15 37 29.9990000  0  7G24G 2G 4G 5G16G 7G 9
  -8995682.29549  -6988300.08647  20847732.468    20847731.347    20847742.546
       242.000         202.000
   3074752.18749   2384686.58946  23085905.418    23085902.943    23085916.664
       220.000         167.000
  -3993658.93849  -3100308.78447  20006160.670    20006159.704    20006168.081
       241.000         206.000
  -8832888.27349  -6858744.84246  22208205.340    22208203.704    22208213.984
       232.000         184.000
  -4605551.70749  -3573703.54845  24150509.208    24150507.760    24150522.880
       213.000         151.000
   2471784.38549   1919493.82747  22055070.332    22055068.438    22055078.522
       234.000         193.000
  -2828306.12849  -2190782.68747  20868232.275    20868230.772    20868239.348
       245.000         209.000
 00  5 22 15 37 59.9990000  0  7G24G 2G 4G 5G16G 7G 9
  -9092599.03649  -7063819.56447  20829289.782    20829288.660    20829299.828
       242.000         202.000
   3124513.67749   2423461.47646  23095374.913    23095372.460    23095386.235
       223.000         165.000
  -4018715.95349  -3119833.72547  20001392.543    20001391.538    20001399.898
       241.000         206.000
  -8940319.02649  -6942457.09046  22187761.899    22187760.320    22187770.579
       232.000         185.000
  -4656174.48049  -3613149.67845  24140875.939    24140874.489    24140889.615
       214.000         152.000
   2507604.04149   1947405.17147  22061886.641    22061884.758    22061894.871
       234.000         193.000
  -2840045.57849  -2199930.36547  20865998.361    20865996.874    20866005.445
       245.000         210.000
 00  5 22 15 38 29.9990000  0  7G24G 2G 4G 5G16G 7G 9
  -9189078.23749  -7138998.10447  20810930.418    20810929.234    20810940.380
       242.000         202.000
   3174527.53049   2462433.02646  23104892.518    23104890.014    23104903.759
       220.000         165.000
  -4043167.40349  -3138886.79747  19996739.542    19996738.588    19996746.934
       240.000         206.000
  -9047640.08549  -7026083.86046  22167339.438    22167337.825    22167348.045
       232.000         184.000
  -4706327.09449  -3652229.45645  24131332.316    24131330.754    24131345.738
       214.000         154.000
   2543502.21549   1975377.69247  22068717.923    22068716.017    22068726.172
       234.000         194.000
  -2851219.64549  -2208637.48747  20863872.110    20863870.579    20863879.155
       246.000         210.000
 00  5 22 15 38 59.9990000  0  7G24G 2G 4G 5G16G 7G 9
  -9285079.86949  -7213804.50647  20792661.874    20792660.708    20792671.854
       243.000         203.000
   3224830.95849   2501630.22946  23114465.106    23114462.642    23114476.493
       217.000         164.000
  -4066975.75549  -3157438.75547  19992208.965    19992208.013    19992216.368
       241.000         206.000
  -9154811.79749  -7109594.26046  22146945.360    22146943.739    22146953.892
       233.000         185.000
  -4755969.67149  -3690911.77345  24121885.515    24121883.964    24121899.091
       215.000         157.000
   2579516.33149   2003440.56447  22075571.252    22075569.341    22075579.534
       234.000         193.000
  -2861791.26649  -2216875.16847  20861860.485    20861858.933    20861867.490
       246.000         210.000
 00  5 22 15 39 29.9990000  0  7G24G 2G 4G 5G16G 7G 9
  -9380643.18449  -7288269.36147  20774476.787    20774475.589    20774486.768
       242.000         204.000
   3275382.28649   2541020.58646  23124084.672    23124082.359    23124096.320
       219.000         163.000
  -4090182.56249  -3175521.97947  19987792.865    19987791.916    19987800.263
       241.000         206.000
  -9261873.52049  -7193018.95146  22126572.236    22126570.573    22126580.716
       233.000         185.000
  -4805141.64349  -3729227.42445  24112528.362    24112526.824    24112541.866
       216.000         153.000
   2615604.52249   2031561.16447  22082438.682    22082436.742    22082446.993
       234.000         193.000
  -2871802.23349  -2224675.97647  20859955.514    20859953.975    20859962.532
       246.000         210.000
 00  5 22 15 39 59.9990000  0  7G24G 2G 4G 5G16G 7G 9
  -9475717.71449  -7362353.35547  20756384.667    20756383.478    20756394.660
       242.000         203.000
   3326229.60949   2580641.58946  23133760.794    23133758.483    23133772.469
       219.000         163.000
  -4112739.78049  -3193099.03847  19983500.427    19983499.454    19983507.770
       242.000         207.000
  -9368774.96849  -7276318.75346  22106229.562    22106227.914    22106238.012
       232.000         184.000
  -4853792.55449  -3767137.07345  24103270.452    24103268.868    24103283.772
       219.000         156.000
   2651814.58449   2059776.72347  22089329.269    22089327.351    22089337.611
       234.000         192.000
  -2881204.48249  -2232002.46447  20858166.434    20858164.858    20858173.401
       246.000         210.000
 00  5 22 15 40 29.9990000  0  7G24G 2G 4G 5G16G 7G 9
  -9570294.26949  -7436049.31247  20738387.293    20738386.129    20738397.310
       243.000         203.000
   3377379.79649   2620498.59345  23143494.594    23143492.249    23143506.240
       219.000         159.000
  -4134640.57449  -3210164.59847  19979332.903    19979331.892    19979340.177
       241.000         207.000
  -9475507.53049  -7359486.96646  22085918.989    22085917.394    22085927.447
       233.000         185.000
  -4901913.52549  -3804633.75445  24094113.161    24094111.662    24094126.473
       215.000         155.000
   2688153.07749   2088092.36247  22096244.326    22096242.384    22096252.611
       233.000         191.000
  -2889991.28449  -2238849.38547  20856494.405    20856492.844    20856501.426
       246.000         210.000
 00  5 22 15 40 59.9980000  0  7G24G 2G 4G 5G16G 7G 9
  -9664379.71949  -7509362.58747  20720483.406    20720482.230    20720493.373
       242.000         203.000
   3428818.86549   2660580.69746  23153283.425    23153281.014    23153295.053
       218.000         166.000
  -4155896.75849  -3226727.86847  19975288.007    19975286.998    19975295.269
       242.000         207.000
  -9582077.52149  -7442528.48846  22065639.384    22065637.791    22065647.844
       232.000         185.000
  -4949512.95149  -3841724.06045  24085055.000    24085053.668    24085068.531
       215.000         155.000
   2724606.23349   2116497.34947  22103181.249    22103179.272    22103189.472
       234.000         192.000
  -2898174.81349  -2245226.22147  20854937.171    20854935.624    20854944.262
       245.000         210.000
 00  5 22 15 41 29.9980000  0  7G24G 2G 4G 5G16G 7G 9
  -9758021.66649  -7582330.27347  20702663.881    20702662.723    20702673.818
       243.000         203.000
   3480506.20949   2700856.27746  23163119.441    23163117.057    23163131.135
       217.000         163.000
  -4176553.56949  -3242824.09847  19971357.188    19971356.163    19971364.396
       241.000         207.000
  -9688533.72549  -7525481.34646  22045381.472    22045379.848    22045389.862
       233.000         185.000
  -4996635.58849  -3878442.84345  24076087.702    24076086.393    24076101.272
       217.000         156.000
   2761132.59049   2144959.35447  22110132.081    22110130.076    22110140.299
       233.000         192.000
  -2905799.74949  -2251167.79147  20853486.252    20853484.707    20853493.396
       246.000         211.000
 00  5 22 15 41 59.9980000  0  7G24G 2G 4G 5G16G 7G 9
  -9851223.60349  -7654955.10147  20684928.179    20684926.977    20684937.980
       243.000         203.000
   3532431.33549   2741317.14346  23173000.733    23172998.357    23173012.447
       217.000         165.000
  -4196619.15649  -3258459.64047  19967538.850    19967537.819    19967546.058
       241.000         207.000
  -9794879.37149  -7608348.05546  22025144.550    22025142.942    22025152.917
       232.000         186.000
  -5043286.58249  -3914794.09245  24067210.265    24067208.878    24067223.826
       213.000         156.000
   2797721.75749   2173470.29047  22117094.851    22117092.833    22117103.074
       234.000         193.000
  -2912875.06549  -2256681.09447  20852139.902    20852138.357    20852147.125
       245.000         210.000
 00  5 22 15 42 29.9980000  0  7G24G 2G 4G 5G16G 7G 9
  -9943941.99349  -7727203.12947  20667284.467    20667283.227    20667294.178
       243.000         203.000
   3584635.34149   2781995.30346  23182934.980    23182932.679    23182946.956
       221.000         165.000
  -4216052.69449  -3273602.67647  19963840.836    19963839.770    19963848.005
       241.000         207.000
  -9901071.18649  -7691094.89746  22004936.946    22004935.312    22004945.252
       234.000         186.000
  -5089422.57949  -3950744.04045  24058430.607    24058429.263    24058444.340
       215.000         154.000
   2834414.84949   2202062.23047  22124077.429    22124075.396    22124085.602
       234.000         193.000
  -2919359.85849  -2261734.24447  20850905.913    20850904.385    20850913.207
       245.000         210.000
 00  5 22 15 42 59.9980000  0  7G24G 2G 4G 5G16G 7G 9
 -10036191.15649  -7799085.53047  20649730.004    20649728.747    20649739.677
       242.000         203.000
   3637101.41849   2822877.67546  23192919.385    23192916.937    23192931.265
       218.000         164.000
  -4234870.83949  -3288266.18647  19960259.912    19960258.834    19960267.067
       241.000         207.000
 -10007123.74449  -7773733.21946  21984755.839    21984754.191    21984764.052
       233.000         186.000
  -5135058.29649  -3986304.20545  24049746.334    24049744.953    24049760.029
       216.000         158.000
   2871194.92949   2230721.94647  22131076.525    22131074.481    22131084.710
       234.000         193.000
  -2925271.28449  -2266340.62147  20849781.024    20849779.534    20849788.382
       246.000         210.000
 00  5 22 15 43 29.9980000  0  7G24G 2G 4G 5G16G 7G 9
 -10127967.20249  -7870599.26147  20632265.488    20632264.286    20632275.213
       242.000         203.000
   3689831.06449   2863965.40745  23202953.754    23202951.274    23202965.627
       220.000         162.000
  -4253072.11749  -3302449.01747  19956796.302    19956795.266    19956803.521
       241.000         207.000
 -10113033.06449  -7856259.93346  21964601.916    21964600.303    21964610.139
       234.000         186.000
  -5180189.77449  -4021471.43745  24041158.011    24041156.653    24041171.772
       214.000         158.000
   2908063.61849   2259450.71947  22138092.531    22138090.455    22138100.664
       235.000         193.000
  -2930607.88749  -2270499.07647  20848765.567    20848764.077    20848772.941
       246.000         210.000
 00  5 22 15 43 59.9980000  0  7G24G 2G 4G 5G16G 7G 9
 -10219233.59149  -7941715.86447  20614897.965    20614896.813    20614907.759
       242.000         204.000
   3742858.42649   2905285.14545  23213044.842    23213042.289    23213056.605
       218.000         161.000
  -4270622.48649  -3316124.65447  19953456.585    19953455.544    19953463.811
       242.000         206.000
 -10218762.63549  -7938646.58646  21944482.197    21944480.586    21944490.416
       233.000         185.000
  -5224780.51449  -4056217.34145  24032672.578    24032671.232    24032686.284
       217.000         156.000
   2945055.04349   2288275.11947  22145131.873    22145129.797    22145139.944
       234.000         190.000
  -2935335.59949  -2274183.07947  20847865.926    20847864.465    20847873.358
       246.000         210.000
 00  5 22 15 44 29.9980000  0  7G24G 2G 4G 5G16G 7G 9
 -10310049.77549  -8012481.63847  20597616.193    20597615.022    20597625.976
       242.000         204.000
   3796121.64849   2946788.62146  23223180.532    23223178.117    23223192.703
       220.000         163.000
  -4287584.03649  -3329341.46547  19950228.887    19950227.870    19950236.113
       241.000         206.000
 -10324372.13649  -8020939.67946  21924385.267    21924383.710    21924393.554
       232.000         185.000
  -5268890.38349  -4090588.57245  24024278.484    24024277.234    24024292.290
       214.000         153.000
   2982107.23849   2317146.86747  22152182.801    22152180.684    22152190.799
       234.000         190.000
  -2939516.62249  -2277441.08647  20847070.359    20847068.917    20847077.825
       246.000         210.000
 00  5 22 15 44 59.9980000  0  7G24G 2G 4G 5G16G 7G 9
 -10400385.71949  -8082873.20947  20580425.808    20580424.618    20580435.569
       242.000         204.000
   3849648.42149   2988497.50645  23233366.525    23233364.178    23233378.835
       217.000         161.000
  -4303928.93649  -3342077.78147  19947118.588    19947117.563    19947125.762
       241.000         205.000
 -10429831.47449  -8103115.76546  21904316.941    21904315.410    21904325.267
       232.000         186.000
  -5312489.57549  -4124561.85145  24015981.667    24015980.435    24015995.440
       215.000         152.000
   3019247.94349   2346087.57447  22159250.500    22159248.414    22159258.510
       233.000         190.000
  -2943123.32249  -2280251.57647  20846384.131    20846382.652    20846391.538
       246.000         210.000
 00  5 22 15 45 29.9980000  0  7G24G 2G 4G 5G16G 7G 9
 -10490230.75749  -8152882.25147  20563328.753    20563327.614    20563338.561
       241.000         204.000
   3903447.01249   3030418.19345  23243604.155    23243601.888    23243616.603
       218.000         160.000
  -4319649.44149  -3354327.54847  19944127.121    19944126.072    19944134.219
       240.000         205.000
 -10535130.34549  -8185166.80546  21884279.214    21884277.663    21884287.536
       233.000         185.000
  -5355567.63649  -4158129.12145  24007784.210    24007782.862    24007797.683
       214.000         150.000
   3056485.27949   2375103.59947  22166336.676    22166334.498    22166344.582
       233.000         189.000
  -2946148.11649  -2282608.62647  20845808.669    20845807.131    20845815.996
       246.000         210.000
 00  5 22 15 45 59.9980000  0  7G24G 2G 4G 5G16G 7G 9
 -10579594.71249  -8222516.43047  20546323.197    20546322.144    20546333.135
       242.000         205.000
   3957505.36649   3072541.28446  23253891.440    23253889.126    23253903.854
       221.000         163.000
  -4334757.57449  -3366100.15747  19941252.107    19941251.099    19941259.198
       241.000         205.000
 -10640278.32949  -8267100.28046  21864270.205    21864268.628    21864278.518
       233.000         185.000
  -5398134.36549  -4191297.93045  23999684.098    23999682.622    23999697.368
       212.000         153.000
   3093807.19549   2404185.50147  22173438.776    22173436.676    22173446.768
       232.000         188.000
  -2948603.19849  -2284521.75347  20845341.602    20845340.014    20845348.877
       246.000         209.000
 00  5 22 15 46 29.9980000  0  7G24G 2G 4G 5G16G 7G 9
 -10668470.39449  -8291770.12747  20529410.620    20529409.597    20529420.630
       242.000         204.000
   4011828.55549   3114870.68345  23264229.186    23264226.725    23264241.666
       218.000         161.000
  -4349248.63149  -3377391.91147  19938494.503    19938493.542    19938501.616
       240.000         205.000
 -10745268.18849  -8348910.53746  21844291.258    21844289.706    21844299.615
       232.000         185.000
  -5440182.70349  -4224062.85945  23991682.323    23991680.996    23991695.727
       211.000         153.000
   3131218.61549   2433337.15546  22180557.943    22180555.869    22180565.983
       231.000         187.000
  -2950484.09949  -2285987.46047  20844983.743    20844982.150    20844991.026
       246.000         210.000
 00  5 22 15 46 59.9980000  0  7G24G 2G 4G 5G16G 7G 9
 -10756865.62549  -8360649.44847  20512589.538    20512588.474    20512599.510
       242.000         204.000
   4066406.26849   3157398.49245  23274615.263    23274612.755    23274627.749
       215.000         158.000
  -4363133.15349  -3388211.04347  19935852.436    19935851.417    19935859.533
       241.000         206.000
 -10850107.68049  -8430603.61046  21824340.892    21824339.381    21824349.318
       233.000         185.000
  -5481720.87149  -4256430.24145  23983777.769    23983776.496    23983791.207
       212.000         152.000
   3168709.50149   2462550.74147  22187692.194    22187690.194    22187700.310
       232.000         188.000
  -2951801.30349  -2287013.91547  20844733.149    20844731.568    20844740.429
       246.000         209.000
 00  5 22 15 47 29.9980000  0  7G24G 2G 4G 5G16G 7G 9
 -10844761.77649  -8429139.88347  20495863.454    20495862.341    20495873.326
       242.000         204.000
   4121254.72249   3200137.18945  23285052.964    23285050.346    23285065.308
       214.000         157.000
  -4376394.93049  -3398544.92047  19933328.876    19933327.830    19933335.958
       241.000         206.000
 -10954778.27549  -8512165.08646  21804422.746    21804421.222    21804431.146
       232.000         186.000
  -5522730.41149  -4288385.77645  23975974.001    23975972.552    23975987.058
       216.000         148.000
   3206296.00749   2491838.82747  22194844.705    22194842.705    22194852.910
       232.000         189.000
  -2952538.90949  -2287588.73947  20844592.811    20844591.274    20844600.126
       246.000         209.000
 00  5 22 15 47 59.9980000  0  7G24G 2G 4G 5G16G 7G 9
 -10932181.56049  -8497259.13147  20479227.992    20479226.875    20479237.813
       242.000         204.000
   4176348.85549   3243067.35646  23295537.511    23295534.697    23295549.656
       217.000         163.000
  -4389059.24749  -3408413.24847  19930918.973    19930917.943    19930926.065
       241.000         206.000
 -11059302.34849  -8593612.38546  21784532.448    21784530.942    21784540.857
       233.000         186.000
  -5563233.99249  -4319947.04845  23968266.625    23968265.009    23968279.221
       212.000         145.000
   3243953.51649   2521182.24347  22202010.776    22202008.780    22202019.021
       232.000         188.000
  -2952722.06249  -2287731.53047  20844557.972    20844556.471    20844565.327
       246.000         209.000
 00  5 22 15 48 29.9980000  0  7G24G 2G 4G 5G16G 7G 9
 -11019105.24749  -8564991.79647  20462686.904    20462685.805    20462696.737
       242.000         204.000
   4231705.81549   3286202.31745  23306071.924    23306069.071    23306084.028
       217.000         157.000
  -4401108.96949  -3417802.66547  19928626.059    19928624.997    19928633.082
       241.000         206.000
 -11163660.39149  -8674930.31446  21764673.778    21764672.265    21764682.154
       232.000         186.000
  -5603212.45049  -4351099.16745  23960658.965    23960657.255    23960671.395
       210.000         144.000
   3281699.10749   2550594.29746  22209193.630    22209191.606    22209201.860
       232.000         187.000
  -2952334.13349  -2287429.31547  20844631.900    20844630.372    20844639.194
       247.000         209.000
 00  5 22 15 48 59.9980000  0  7G24G 2G 4G 5G16G 7G 9
 -11105553.25249  -8632353.81047  20446236.394    20446235.247    20446246.179
       242.000         205.000
   4287302.95649   3329524.41845  23316651.788    23316649.105    23316664.145
       212.000         154.000
  -4412566.95649  -3426730.98947  19926445.648    19926444.622    19926452.712
       240.000         206.000
 -11267872.45049  -8756134.49246  21744842.853    21744841.348    21744851.217
       233.000         185.000
  -5642686.25049  -4381858.00645  23953147.033    23953145.490    23953159.891
       207.000         146.000
   3319510.50949   2580057.61546  22216388.998    22216386.956    22216397.162
       232.000         187.000
  -2951398.12649  -2286700.02447  20844810.115    20844808.553    20844817.353
       246.000         209.000
 00  5 22 15 49 29.9980000  0  7G24G 2G 4G 5G16G 7G 9
 -11191474.38049  -8699305.27347  20429886.151    20429884.962    20429895.869
       242.000         205.000
   4343189.42949   3373072.02745  23327286.862    23327284.174    23327299.177
       218.000         162.000
  -4423384.57049  -3435160.32447  19924387.124    19924386.118    19924394.203
       240.000         206.000
 -11371887.12949  -8837184.86446  21725049.561    21725048.007    21725057.857
       233.000         185.000
  -5681604.48549  -4412183.95045  23945741.137    23945739.556    23945753.994
       213.000         150.000
   3357436.68149   2609610.37046  22223606.287    22223604.157    22223614.330
       232.000         186.000
  -2949865.37349  -2285505.73747  20845101.824    20845100.277    20845109.098
       246.000         209.000
 00  5 22 15 49 59.9980000  0  7G24G 2G 4G 5G16G 7G 9
 -11276922.08349  -8765887.82847  20413625.957    20413624.770    20413635.672
       242.000         206.000
   4399309.27349   3416801.43745  23337966.332    23337963.700    23337978.747
       214.000         157.000
  -4433618.05449  -3443134.47847  19922439.816    19922438.778    19922446.885
       241.000         206.000
 -11475757.64849  -8918122.90046  21705283.687    21705282.072    21705291.900
       232.000         185.000
  -5720020.80249  -4442118.81745  23938430.864    23938429.262    23938443.433
       213.000         151.000
   3395421.98949   2639209.23046  22230834.727    22230832.637    22230842.725
       232.000         186.000
  -2947792.29849  -2283890.41547  20845496.408    20845494.841    20845503.675
       246.000         209.000
 00  5 22 15 50 29.9980000  0  7G24G 2G 4G 5G16G 7G 9
 -11361858.03849  -8832071.63247  20397463.145    20397461.976    20397472.869
       242.000         205.000
   4455699.04449   3460741.20445  23348697.265    23348694.577    23348709.675
       217.000         161.000
  -4443231.33749  -3450625.36747  19920610.521    19920609.465    19920617.570
       240.000         206.000
 -11579445.36949  -8998918.49846  21685552.489    21685550.941    21685560.775
       232.000         185.000
  -5757897.09849  -4471632.85945  23931223.518    23931221.739    23931235.899
       214.000         153.000
   3433502.85949   2668882.54146  22238081.353    22238079.275    22238089.347
       232.000         185.000
  -2945143.12749  -2281826.19447  20846000.584    20845999.026    20846007.893
       246.000         209.000
 00  5 22 15 50 59.9980000  0  7G24G 2G 4G 5G16G 7G 9
 -11446299.35349  -8897870.00647  20381394.494    20381393.305    20381404.180
       242.000         205.000
   4512339.10249   3504875.98645  23359475.788    23359473.086    23359488.156
       217.000         160.000
  -4452244.32849  -3457648.49147  19918895.382    19918894.353    19918902.507
       240.000         206.000
 -11682967.15349  -9079584.79146  21665852.949    21665851.396    21665861.218
       233.000         186.000
  -5795250.60049  -4500739.51445  23924115.600    23924113.704    23924127.730
       216.000         155.000
   3471659.97149   2698615.26246  22245342.502    22245340.423    22245350.504
       232.000         186.000
  -2941937.68749  -2279328.51247  20846610.611    20846609.061    20846617.936
       247.000         209.000
 00  5 22 15 51 29.9980000  0  7G24G 2G 4G 5G16G 7G 9
 -11530245.69349  -8963282.68947  20365419.991    20365418.799    20365429.635
       242.000         204.000
   4569227.61749   3549204.32545  23370301.529    23370298.858    23370314.083
       217.000         158.000
  -4460658.98049  -3464205.37647  19917294.129    19917293.110    19917301.300
       241.000         206.000
 -11786322.23349  -9160121.18846  21646185.077    21646183.550    21646193.356
       234.000         186.000
  -5832081.03749  -4529438.60245  23917107.152    23917105.222    23917119.207
       214.000         156.000
   3509891.67449   2728406.10646  22252617.847    22252615.759    22252625.868
       233.000         186.000
  -2938178.00549  -2276398.95347  20847326.175    20847324.584    20847333.459
       246.000         210.000
 00  5 22 15 51 59.9980000  0  7G24G 2G 4G 5G16G 7G 9
 -11613667.21149  -9028286.42347  20349545.371    20349544.178    20349554.955
       242.000         204.000
   4626392.11249   3593747.77145  23381179.667    23381177.114    23381192.412
       216.000         159.000
  -4468448.24949  -3470274.95147  19915811.933    19915810.894    19915819.082
       241.000         206.000
 -11889480.72449  -9240504.40246  21626554.746    21626553.152    21626562.912
       234.000         187.000
  -5868359.10049  -4557707.29545  23910203.787    23910201.859    23910215.720
       214.000         151.000
   3548225.69749   2758276.66846  22259912.604    22259910.561    22259920.725
       232.000         186.000
  -2933837.03349  -2273016.44547  20848152.294    20848150.706    20848159.586
       246.000         209.000
 00  5 22 15 52 29.9980000  0  7G24G 2G 4G 5G16G 7G 9
 -11696549.64549  -9092870.09847  20333773.322    20333772.155    20333782.869
       242.000         205.000
   4683844.55949   3638515.60245  23392112.819    23392110.226    23392125.550
       217.000         155.000
  -4475600.43849  -3475848.10947  19914450.990    19914449.923    19914458.071
       241.000         206.000
 -11992428.17649  -9320723.17946  21606964.519    21606962.905    21606972.603
       234.000         187.000
  -5904070.78549  -4585534.60945  23903408.168    23903406.193    23903419.906
       213.000         146.000
   3586674.24449   2788236.47246  22267229.245    22267227.164    22267237.361
       233.000         186.000
  -2928903.59949  -2269172.28347  20849091.116    20849089.549    20849098.469
       246.000         209.000
 00  5 22 15 52 59.9980000  0  7G24G 2G 4G 5G16G 7G 9
 -11778882.79449  -9157025.75847  20318105.846    20318104.658    20318115.325
       242.000         205.000
   4741593.20549   3683514.18845  23403102.379    23403099.696    23403115.018
       218.000         157.000
  -4482107.92149  -3480918.88847  19913212.703    19913211.626    19913219.743
       241.000         206.000
 -12095153.68849  -9400769.01846  21587416.492    21587414.883    21587424.534
       235.000         187.000
  -5939205.87149  -4612912.64345  23896722.244    23896720.283    23896733.824
       215.000         148.000
   3625245.78249   2818292.11846  22274569.281    22274567.211    22274577.437
       233.000         187.000
  -2923369.81749  -2264860.31147  20850144.196    20850142.644    20850151.591
       246.000         209.000
 00  5 22 15 53 29.9980000  0  7G24G 2G 4G 5G16G 7G 9
 -11860676.65449  -9220761.20147  20302540.999    20302539.775    20302550.392
       242.000         205.000
   4799625.44249   3728733.79945  23414145.840    23414143.178    23414158.460
       217.000         156.000
  -4487983.49349  -3485497.27647  19912094.667    19912093.567    19912101.649
       240.000         205.000
 -12197667.28149  -9480649.72146  21567908.748    21567907.164    21567916.830
       234.000         187.000
  -5973774.58649  -4639849.28245  23890144.018    23890142.054    23890155.547
       213.000         146.000
   3663928.17349   2848434.14446  22281930.416    22281928.352    22281938.611
       232.000         187.000
  -2917248.71949  -2260090.69547  20851308.990    20851307.477    20851316.500
       245.000         209.000
 00  5 22 15 53 59.9980000  0  7G24G 2G 4G 5G16G 7G 9
 -11941915.97649  -9284064.53147  20287081.674    20287080.416    20287091.023
       243.000         205.000
   4857954.33249   3774184.56445  23425245.660    23425243.051    23425258.424
       214.000         151.000
  -4493214.39549  -3489573.31747  19911099.218    19911098.174    19911106.229
       240.000         205.000
 -12299953.16249  -9560352.97446  21548444.338    21548442.783    21548452.454
       234.000         187.000
  -6007762.35149  -4666333.22345  23883676.086    23883674.321    23883687.884
       212.000         151.000
   3702734.64149   2878672.85146  22289315.162    22289313.061    22289323.378
       233.000         186.000
  -2910527.64649  -2254853.55947  20852587.983    20852586.486    20852595.548
       246.000         209.000
 00  5 22 15 54 29.9980000  0  7G24G 2G 4G 5G16G 7G 9
 -12022538.25649  -9346887.05547  20271739.732    20271738.483    20271749.067
       242.000         205.000
   4916640.41549   3819913.66645  23436413.607    23436410.913    23436426.307
       213.000         154.000
  -4497740.74749  -3493100.36447  19910237.872    19910236.823    19910244.901
       241.000         206.000
 -12401948.16949  -9639829.56347  21529035.282    21529033.738    21529043.416
       234.000         188.000
  -6041106.32749  -4692315.43345  23877330.821    23877329.126    23877342.791
       213.000         152.000
   3741725.98349   2909055.60946  22296735.029    22296732.957    22296743.296
       231.000         186.000
  -2903146.74949  -2249102.27647  20853992.594    20853991.083    20854000.152
       246.000         210.000
 00  5 22 15 54 59.9980000  0  7G24G 2G 4G 5G16G 7G 9
 -12102598.29649  -9409271.47447  20256504.813    20256503.546    20256514.098
       242.000         205.000
   4975626.58649   3865876.56945  23447638.423    23447635.837    23447651.304
       214.000         150.000
  -4501619.84049  -3496123.05647  19909499.746    19909498.674    19909506.769
       240.000         206.000
 -12503706.73549  -9719121.92747  21509671.269    21509669.698    21509679.386
       234.000         188.000
  -6073862.06649  -4717839.26245  23871097.544    23871095.924    23871109.740
       215.000         153.000
   3780845.47349   2939538.23746  22304179.292    22304177.214    22304187.591
       232.000         185.000
  -2895163.60349  -2242881.71447  20855511.843    20855510.298    20855519.390
       246.000         210.000
 00  5 22 15 55 29.9980000  0  7G24G 2G 4G 5G16G 7G 9
 -12182285.95049  -9471365.72247  20241340.768    20241339.476    20241349.974
       242.000         204.000
   5034721.02449   3911923.86745  23458883.802    23458881.378    23458896.931
       213.000         154.000
  -4505043.90449  -3498791.17247  19908848.202    19908847.133    19908855.212
       240.000         206.000
 -12605418.04249  -9798377.44547  21490316.230    21490314.666    21490324.308
       235.000         188.000
  -6106219.42249  -4743052.64945  23864940.324    23864938.558    23864952.387
       216.000         153.000
   3819901.54849   2969971.45446  22311611.493    22311609.439    22311619.809
       231.000         186.000
  -2886770.49049  -2236341.69147  20857109.105    20857107.536    20857116.643
       246.000         209.000
 00  5 22 15 55 59.9980000  0  7G24G 2G 4G 5G16G 7G 9
 -12261425.62549  -9533032.97347  20226280.960    20226279.669    20226290.181
       242.000         205.000
   5094096.84549   3958190.39245  23470182.600    23470180.383    23470196.163
       210.000         155.000
  -4507840.38249  -3500970.27147  19908316.131    19908315.037    19908323.073
       241.000         206.000
 -12706906.41649  -9877459.26847  21471003.664    21471002.084    21471011.672
       235.000         188.000
  -6138003.08049  -4767819.04245  23858892.207    23858890.365    23858904.104
       216.000         151.000
   3859067.68249   3000490.42546  22319064.672    22319062.587    22319073.006
       231.000         186.000
  -2877794.99949  -2229347.87147  20858817.128    20858815.578    20858824.694
       246.000         209.000
 00  5 22 15 56 29.9980000  0  7G24G 2G 4G 5G16G 7G 9
 -12340048.95449  -9594297.88547  20211319.408    20211318.139    20211328.634
       242.000         205.000
   5153720.49049   4004650.07345  23481528.982    23481526.636    23481542.575
       213.000         151.000
  -4510043.32949  -3502686.88047  19907897.022    19907895.896    19907903.857
       241.000         206.000
 -12808202.75749  -9956391.45747  21451727.669    21451726.036    21451735.562
       235.000         188.000
  -6169245.01149  -4792163.27745  23852947.014    23852945.210    23852958.828
       217.000         155.000
   3898310.74449   3031069.32846  22326532.434    22326530.356    22326540.859
       230.000         185.000
  -2868271.35449  -2221926.91947  20860629.516    20860627.945    20860637.047
       246.000         209.000
 00  5 22 15 56 59.9980000  0  7G24G 2G 4G 5G16G 7G 9
 -12418143.79549  -9655150.98947  20196458.399    20196457.166    20196467.672
       241.000         204.000
   5213601.90949   4051310.59445  23492924.421    23492921.975    23492937.971
       214.000         160.000
  -4511643.36049  -3503933.67647  19907592.580    19907591.468    19907599.400
       241.000         206.000
 -12909294.59149 -10035164.29247  21432490.545    21432488.905    21432498.339
       235.000         188.000
  -6199933.41749  -4816076.16545  23847107.103    23847105.328    23847119.015
       214.000         153.000
   3937640.90449   3061716.08346  22334016.761    22334014.715    22334025.332
       230.000         185.000
  -2858190.35849  -2214071.66747  20862547.986    20862546.365    20862555.456
       246.000         208.000
 00  5 22 15 57 29.9980000  0  7G24G 2G 4G 5G16G 7G 9
 -12495738.30849  -9715614.22347  20181692.692    20181691.403    20181701.900
       242.000         204.000
   5273710.68049   4098148.24745  23504362.906    23504360.514    23504376.642
       216.000         154.000
  -4512671.14549  -3504734.56847  19907396.990    19907395.898    19907403.866
       240.000         206.000
 -13010209.13249 -10113798.96547  21413287.148    21413285.498    21413294.929
       235.000         189.000
  -6230096.95949  -4839580.02445  23841366.896    23841365.240    23841379.099
       210.000         153.000
   3977028.34849   3092407.49346  22341512.047    22341509.982    22341520.668
       231.000         185.000
  -2847582.52449  -2205805.89447  20864566.651    20864565.042    20864574.097
       246.000         208.000
 00  5 22 15 57 59.9980000  0  8G24G 2G 4G 5G16G 7G 9G30
 -12572817.28549  -9775675.74247  20167025.103    20167023.761    20167034.220
       242.000         204.000
   5334060.17249   4145173.47045  23515847.405    23515844.890    23515861.140
       216.000         155.000
  -4513114.04849  -3505079.71647  19907312.733    19907311.631    19907319.628
       241.000         206.000
 -13110930.66649 -10192283.25447  21394120.458    21394118.834    21394128.187
       236.000         189.000
  -6259720.28149  -4862662.96045  23835729.365    23835727.954    23835741.985
       214.000         153.000
   4016486.60849   3123154.07346  22349020.705    22349018.728    22349029.457
       231.000         184.000
  -2836435.24849  -2197119.77247  20866688.004    20866686.379    20866695.406
       246.000         209.000
   -200780.44055                  24510933.567                    24510943.264
       215.000         146.000
 00  5 22 15 58 29.9980000  0  8G24G 2G 4G 5G16G 7G 9G30
 -12649334.45249  -9835299.49547  20152464.354    20152463.022    20152473.438
       242.000         204.000
   5394694.18749   4192420.44645  23527386.192    23527383.534    23527399.844
       213.000         157.000
  -4512928.68649  -3504935.30147  19907348.068    19907346.944    19907354.955
       241.000         206.000
 -13211412.48649 -10270580.74247  21374999.406    21374997.749    21375007.107
       235.000         189.000
  -6288757.77949  -4885289.45345  23830203.663    23830202.237    23830216.283
       214.000         151.000
   4056060.15849   3153990.50446  22356551.450    22356549.412    22356560.146
       232.000         184.000
  -2824705.69549  -2187979.94147  20868920.080    20868918.502    20868927.538
       245.000         209.000
   -419736.11149   -298190.76945  24487144.733    24487142.706    24487154.305
       209.000         146.000
 00  5 22 15 58 59.9980000  0  8G24G 2G 4G 5G16G 7G 9G30
 -12725316.12649  -9894505.97747  20138005.472    20138004.170    20138014.585
       242.000         205.000
   5455584.59749   4239867.24745  23538973.409    23538970.819    23538987.168
       210.000         152.000
  -4512143.74549  -3504323.69247  19907497.435    19907496.339    19907504.363
       240.000         206.000
 -13311680.04249 -10348711.26847  21355918.992    21355917.423    21355926.837
       235.000         190.000
  -6317236.09649  -4907480.27145  23824784.340    23824782.871    23824796.762
       215.000         147.000
   4095721.03049   3184894.97546  22364098.871    22364096.758    22364107.402
       232.000         183.000
  -2812422.49949  -2178408.69447  20871257.494    20871255.944    20871265.019
       245.000         208.000
   -544750.66059   -395604.66355  24463355.028    24463353.703    24463364.452
       210.000         145.000
 00  5 22 15 59 29.9980000  0  8G24G 2G 4G 5G16G 7G 9G30
 -12800724.32949  -9953265.59947  20123655.746    20123654.463    20123664.879
       242.000         205.000
   5516767.13949   4287541.57145  23550616.408    23550613.772    23550630.249
       212.000         157.000
  -4510723.87949  -3503217.33747  19907767.625    19907766.544    19907774.581
       241.000         206.000
 -13411694.75249 -10426644.77647  21336886.709    21336885.202    21336894.657
       235.000         191.000
  -6345117.08449  -4929205.60545  23819478.516    23819477.219    23819491.054
       213.000         147.000
   4135505.73749   3215895.92446  22371669.761    22371667.646    22371678.246
       230.000         181.000
  -2799550.44649  -2168378.60447  20873707.042    20873705.466    20873714.554
       246.000         208.000
   -669732.03749   -492992.72645  24439571.730    24439570.440    24439581.141
       215.000         147.000
 00  5 22 15 59 59.9980000  0  8G24G 2G 4G 5G16G 7G 9G30
 -12875659.34149 -10011656.50047  20109396.129    20109394.822    20109405.199
       242.000         205.000
   5578139.38949   4335363.77045  23562295.214    23562292.753    23562309.290
       212.000         155.000
  -4508771.99049  -3501696.41447  19908139.025    19908137.971    19908146.030
       239.000         206.000
 -13511556.05049 -10504458.74047  21317883.760    21317882.216    21317891.662
       236.000         191.000
  -6372501.83349  -4950544.27445  23814267.296    23814265.929    23814279.806
       214.000         152.000
   4175312.25449   3246913.87246  22379244.758    22379242.677    22379253.217
       230.000         181.000
  -2786192.66849  -2157970.02447  20876248.988    20876247.430    20876256.495
       245.000         207.000
   -794780.64449   -590433.16145  24415775.733    24415774.711    24415785.486
       210.000         148.000
 00  5 22 16  0 29.9980000  0  8G24G 2G 4G 5G16G 7G 9G30
 -12950047.00649 -10069620.90247  20095240.650    20095239.326    20095249.671
       242.000         205.000
   5639773.77949   4383390.24345  23574024.032    23574021.482    23574038.090
       215.000         151.000
  -4506216.61049  -3499705.24347  19908625.241    19908624.231    19908632.345
       240.000         206.000
 -13611188.93049 -10582094.72947  21298924.250    21298922.704    21298932.116
       236.000         191.000
  -6399316.01149  -4971438.33445  23809164.727    23809163.357    23809177.175
       217.000         154.000
   4215213.26849   3278005.44546  22386837.732    22386835.695    22386846.185
       230.000         181.000
  -2772277.27049  -2147126.93647  20878897.109    20878895.507    20878904.545
       245.000         207.000
   -919821.83349   -687867.82445  24391981.182    24391980.254    24391991.048
       213.000         148.000
 00  5 22 16  0 59.9980000  0  8G24G 2G 4G 5G16G 7G 9G30
 -13023866.10849 -10127142.25947  20081193.296    20081192.013    20081202.340
       242.000         205.000
   5701689.26049   4431635.69045  23585806.380    23585803.849    23585820.725
       208.000         151.000
  -4503039.22049  -3497229.38347  19909229.868    19909228.850    19909237.033
       239.000         205.000
 -13710571.77249 -10659535.87847  21280012.273    21280010.778    21280020.152
       237.000         191.000
  -6425539.14649  -4991871.87045  23804174.607    23804173.209    23804186.945
       215.000         155.000
   4255228.44349   3309185.98446  22394452.455    22394450.427    22394460.894
       231.000         181.000
  -2757785.98949  -2135835.10447  20881654.807    20881653.185    20881662.208
       245.000         207.000
  -1044834.32349   -785280.12245  24368191.898    24368191.215    24368201.998
       213.000         143.000
 00  5 22 16  1 29.9980000  0  8G24G 2G 4G 5G16G 7G 9G30
 -13097169.50149 -10184261.77447  20067244.152    20067242.847    20067253.140
       242.000         205.000
   5763830.93449   4480057.49245  23597631.854    23597629.279    23597646.271
       210.000         147.000
  -4499295.12049  -3494311.93647  19909942.299    19909941.331    19909949.566
       239.000         205.000
 -13809756.46349 -10736822.62847  21261138.071    21261136.569    21261145.898
       238.000         192.000
  -6451224.18449  -5011886.07045  23799286.885    23799285.469    23799299.234
       212.000         153.000
   4295303.28149   3340413.01046  22402078.601    22402076.516    22402087.000
       231.000         181.000
  -2742774.74949  -2124138.11447  20884511.362    20884509.784    20884518.835
       244.000         207.000
  -1169870.75649   -882711.10245  24344398.125    24344397.504    24344408.436
       211.000         149.000
 00  5 22 16  1 59.9980000  0  8G24G 2G 4G 5G16G 7G 9G30
 -13169895.03149 -10240931.01247  20053404.937    20053403.641    20053413.917
       242.000         204.000
   5826258.88049   4528702.33445  23609511.901    23609509.226    23609526.135
       214.000         149.000
  -4494925.00049  -3490906.69547  19910773.940    19910772.943    19910781.186
       239.000         204.000
 -13908680.08149 -10813905.94247  21242313.582    21242312.020    21242321.338
       238.000         192.000
  -6476309.23249  -5031432.77245  23794513.006    23794511.775    23794525.658
       210.000         150.000
   4335498.51749   3371733.85646  22409727.671    22409725.538    22409735.983
       230.000         181.000
  -2727183.90649  -2111989.49047  20887478.248    20887476.671    20887485.754
       245.000         207.000
  -1294868.75549   -980112.07745  24320612.009    24320611.182    24320622.130
       214.000         149.000
 00  5 22 16  2 29.9980000  0  8G24G 2G 4G 5G16G 7G 9G30
 -13242088.87249 -10297185.93347  20039666.899    20039665.595    20039675.869
       242.000         204.000
   5888924.85349   4577532.60645  23621436.968    23621434.304    23621451.444
       216.000         158.000
  -4489977.36849  -3487051.43347  19911715.451    19911714.457    19911722.677
       240.000         204.000
 -14007387.90349 -10890821.09647  21223530.075    21223528.531    21223537.861
       238.000         192.000
  -6500840.85749  -5050548.20145  23789844.443    23789843.358    23789857.416
       212.000         149.000
   4375766.45549   3403111.36146  22417390.554    22417388.370    22417398.800
       230.000         180.000
  -2711062.51849  -2099427.45547  20890546.100    20890544.515    20890553.640
       245.000         207.000
  -1419874.28449  -1077518.99245  24296824.029    24296823.284    24296834.307
       210.000         145.000
 00  5 22 16  2 59.9980000  0  8G24G 2G 4G 5G16G 7G 9G30
 -13313717.97349 -10353000.80647  20026036.289    20026035.009    20026045.287
       242.000         204.000
   5951860.15649   4626572.77844  23633413.128    23633410.694    23633427.938
       202.000         127.000
  -4484421.87149  -3482722.52147  19912772.658    19912771.642    19912779.866
       240.000         205.000
 -14105845.85649 -10967541.55447  21204794.124    21204792.605    21204801.902
       237.000         192.000
  -6524786.16749  -5069206.81245  23785287.715    23785286.584    23785300.720
       212.000         149.000
   4416139.01149   3434570.37146  22425073.343    22425071.125    22425081.539
       231.000         179.000
  -2694379.79049  -2086428.02047  20893720.710    20893719.175    20893728.360
       245.000         206.000
  -1544853.92549  -1174905.71245  24273041.016    24273040.463    24273051.416
       211.000         148.000
 00  5 22 16  3 29.9980000  0  8G24G 2G 4G 5G16G 7G 9G30
 -13384780.03049 -10408373.82447  20012513.542    20012512.324    20012522.608
       241.000         204.000
   6015064.59349   4675822.74145  23645440.783    23645438.324    23645455.536
       201.000         149.000
  -4478259.19449  -3477920.48147  19913945.364    19913944.390    19913952.605
       240.000         206.000
 -14204050.94149 -11044064.96947  21186106.281    21186104.762    21186114.114
       238.000         193.000
  -6548143.50049  -5087407.24845  23780842.826    23780841.733    23780855.901
       210.000         151.000
   4456616.67149   3466111.30246  22432776.053    22432773.874    22432784.253
       230.000         180.000
  -2677136.60049  -2072991.86047  20897002.023    20897000.494    20897009.705
       244.000         206.000
  -1669804.88849  -1272270.00745  24249263.565    24249263.012    24249274.164
       212.000         144.000
 00  5 22 16  3 59.9980000  0  8G24G 2G 4G 5G16G 7G 9G30
 -13455276.14649 -10463305.85347  19999098.531    19999097.343    19999107.625
       242.000         205.000
   6078535.46149   4725280.30445  23657519.107    23657516.590    23657533.836
       209.000         146.000
  -4471492.85349  -3472648.05447  19915233.005    19915232.026    19915240.265
       240.000         206.000
 -14302003.19949 -11120391.38647  21167466.520    21167465.043    21167474.386
       237.000         192.000
  -6570914.21349  -5105150.60845  23776509.607    23776508.486    23776522.662
       211.000         148.000
   4497197.02449   3497732.22346  22440498.306    22440496.148    22440506.592
       229.000         179.000
  -2659336.65649  -2059121.86247  20900389.258    20900387.756    20900396.997
       244.000         205.000
  -1794728.18649  -1369612.89345  24225491.525    24225490.780    24225501.975
       209.000         146.000
 00  5 22 16  4 29.9980000  0  8G24G 2G 4G 5G16G 7G 9G30
 -13525196.77349 -10517789.44347  19985793.114    19985791.891    19985802.183
       242.000         205.000
   6142280.39449   4774951.20945  23669649.683    23669647.049    23669664.672
       217.000         152.000
  -4464115.75649  -3466899.71247  19916636.917    19916635.883    19916644.181
       241.000         206.000
 -14399692.00649 -11196512.50947  21148876.933    21148875.451    21148884.787
       238.000         192.000
  -6593089.09649  -5122429.69945  23772289.906    23772288.696    23772302.801
       213.000         150.000
   4537888.41449   3529439.69946  22448241.690    22448239.578    22448250.028
       229.000         180.000
  -2640973.15949  -2044812.74047  20903883.777    20903882.290    20903891.524
       244.000         205.000
  -1919613.65349  -1466926.13945  24201726.488    24201725.801    24201737.233
       214.000         148.000
 00  5 22 16  4 59.9980000  0  8G24G 2G 4G 5G16G 7G 9G30
 -13594550.02849 -10571830.92347  19972595.582    19972594.401    19972604.705
       241.000         204.000
   6206289.26849   4824828.19645  23681830.708    23681828.009    23681845.201
       200.000         142.000
  -4456138.73249  -3460683.89047  19918154.922    19918153.905    19918162.227
       240.000         206.000
 -14497124.59849 -11272433.98847  21130336.194    21130334.646    21130343.944
       238.000         192.000
  -6614676.22249  -5139250.80245  23768182.245    23768180.867    23768194.879
       215.000         155.000
   4578681.46649   3561226.37146  22456004.389    22456002.300    22456012.820
       228.000         177.000
  -2622056.69049  -2030072.73047  20907483.578    20907482.046    20907491.283
       245.000         205.000
  -2044469.33749  -1564216.32245  24177967.100    24177966.534    24177977.825
       213.000         146.000
 00  5 22 16  5 29.9980000  0  8G24G 2G 4G 5G16G 7G 9G30
 -13663302.17249 -10625404.01347  19959512.508    19959511.302    19959521.602
       242.000         204.000
   6270593.79049   4874935.20945  23694067.232    23694064.901    23694082.422
       205.000         143.000
  -4447530.66349  -3453976.35547  19919792.955    19919791.972    19919800.350
       240.000         205.000
 -14594266.40349 -11348128.88747  21111850.684    21111849.165    21111858.427
       238.000         192.000
  -6635642.65549  -5155588.26045  23764192.536    23764191.088    23764205.106
       216.000         158.000
   4619608.28049   3593117.27646  22463792.566    22463790.486    22463801.065
       228.000         180.000
  -2602556.67449  -2014878.01347  20911194.418    20911192.847    20911202.096
       244.000         205.000
  -2169260.94149  -1661456.42345  24154220.079    24154219.474    24154230.882
       213.000         153.000
 00  5 22 16  5 59.9980000  0  8G24G 2G 4G 5G16G 7G 9G30
 -13731460.65349 -10678514.50847  19946542.483    19946541.203    19946551.452
       243.000         204.000
   6335184.62049   4925265.58645  23706358.763    23706356.370    23706373.804
       213.000         150.000
  -4438301.61349  -3446784.94247  19921549.152    19921548.202    19921556.612
       240.000         205.000
 -14691123.76449 -11423602.14147  21093419.354    21093417.807    21093427.083
       238.000         193.000
  -6655996.10949  -5171448.06945  23760319.458    23760317.971    23760331.971
       217.000         159.000
   4660660.29049   3625105.72246  22471604.591    22471602.502    22471613.178
       228.000         179.000
  -2582482.98149  -1999236.27447  20915014.396    20915012.799    20915022.077
       245.000         205.000
  -2293995.46049  -1758652.19745  24130483.912    24130483.244    24130494.575
       213.000         140.000
 00  5 22 16  6 29.9980000  0  8G24G 2G 4G 5G16G 7G 9G30
 -13798989.82049 -10731134.62747  19933692.159    19933690.859    19933701.044
       242.000         205.000
   6400095.37749   4975845.15445  23718711.093    23718708.685    23718726.143
       209.000         146.000
  -4428418.78349  -3439084.09247  19923429.822    19923428.882    19923437.268
       240.000         205.000
 -14787659.99549 -11498825.16247  21075049.132    21075047.583    21075056.826
       239.000         193.000
  -6675701.12749  -5186802.60745  23756569.722    23756568.142    23756582.188
       212.000         152.000
   4701871.90749   3657218.52846  22479446.919    22479444.874    22479455.664
       227.000         179.000
  -2561802.68549  -1983121.85547  20918949.773    20918948.191    20918957.500
       244.000         205.000
  -2418636.66649  -1855775.10145  24106765.569    24106764.873    24106776.356
       216.000         152.000
 00  5 22 16  6 59.9980000  0  8G24G 2G 4G 5G16G 7G 9G30
 -13865829.25649 -10783217.29147  19920973.049    19920971.746    19920981.880
       242.000         204.000
   6465384.64949   5026719.63145  23731135.400    23731133.064    23731150.754
       209.000         149.000
  -4417824.21349  -3430828.63647  19925446.012    19925445.025    19925453.359
       242.000         206.000
 -14883813.38449 -11573749.86547  21056751.730    21056750.196    21056759.437
       238.000         193.000
  -6694697.84049  -5201605.24045  23752954.390    23752953.005    23752967.201
       215.000         153.000
   4743302.44249   3689501.93046  22487331.018    22487328.953    22487339.799
       230.000         180.000
  -2540458.26149  -1966489.93847  20923011.534    20923009.970    20923019.307
       244.000         205.000
  -2543123.47549  -1952777.79745  24083076.397    24083075.754    24083087.269
       215.000         145.000
 00  5 22 16  7 29.9980000  0  8G24G 2G 4G 5G16G 7G 9G30
 -13932094.58649 -10834852.59747  19908363.208    19908361.871    19908371.967
       242.000         204.000
   6530934.91649   5077797.59745  23743609.408    23743607.056    23743624.910
       205.000         146.000
  -4406635.89449  -3422110.52247  19927575.206    19927574.165    19927582.448
       241.000         206.000
 -14979698.46449 -11648465.50147  21038505.456    21038503.873    21038513.113
       238.000         194.000
  -6713101.95549  -5215946.13945  23749452.209    23749450.750    23749464.936
       212.000         154.000
   4784835.09449   3721864.90346  22495234.589    22495232.483    22495243.335
       229.000         183.000
  -2518567.82349  -1949432.55147  20927177.163    20927175.647    20927184.975
       244.000         205.000
  -2667571.17849  -2049749.99945  24059394.841    24059394.171    24059405.618
       211.000         146.000
 00  5 22 16  7 59.9980000  0  8G24G 2G 4G 5G16G 7G 9G30
 -13997773.24349 -10886030.75447  19895864.972    19895863.636    19895873.730
       242.000         204.000
   6596756.94149   5129087.25945  23756135.085    23756132.763    23756150.844
       210.000         148.000
  -4394843.97249  -3412922.06747  19929819.244    19929818.178    19929826.428
       241.000         207.000
 -15075301.59249 -11722961.43347  21020312.706    21020311.188    21020320.440
       239.000         193.000
  -6730901.21049  -5229815.68445  23746065.081    23746063.620    23746077.808
       213.000         154.000
   4826481.19049   3754316.27546  22503159.755    22503157.587    22503168.493
       229.000         181.000
  -2496121.44149  -1931941.96347  20931448.593    20931447.113    20931456.441
       244.000         205.000
  -2791966.23049  -2146681.18745  24035723.303    24035722.577    24035733.921
       212.000         147.000
 00  5 22 16  8 29.9980000  0  8G24G 2G 4G 5G16G 7G 9G30
 -14062870.67749 -10936756.00247  19883477.302    19883475.994    19883486.071
       241.000         204.000
   6662843.33249   5180582.91945  23768710.901    23768708.699    23768727.015
       210.000         151.000
  -4382456.67949  -3403269.68347  19932176.598    19932175.463    19932183.707
       241.000         206.000
 -15170627.40049 -11797241.27247  21002172.810    21002171.269    21002180.518
       239.000         194.000
  -6748101.66449  -5243218.62845  23742791.959    23742790.462    23742804.724
       212.000         155.000
   4868233.98549   3786850.76046  22511105.090    22511102.981    22511113.952
       228.000         180.000
  -2473127.61349  -1914024.79247  20935824.258    20935822.782    20935832.109
       244.000         206.000
  -2916314.14949  -2243575.64545  24012060.672    24012059.883    24012071.184
       217.000         145.000
 00  5 22 16  8 59.9980000  0  8G24G 2G 4G 5G16G 7G 9G30
 -14127349.85049 -10986999.49247  19871207.308    19871206.017    19871216.072
       242.000         205.000
   6729229.37249   5232312.15545  23781344.091    23781341.808    23781360.142
       207.000         141.000
  -4369439.46849  -3393126.45847  19934653.749    19934652.620    19934660.863
       241.000         207.000
 -15265637.32949 -11871274.96747  20984092.983    20984091.478    20984100.743
       238.000         194.000
  -6764666.47349  -5256126.28745  23739639.850    23739638.277    23739652.632
       212.000         153.000
   4910129.54049   3819496.51346  22519077.739    22519075.586    22519086.591
       231.000         179.000
  -2449551.80749  -1895654.13247  20940310.744    20940309.207    20940318.547
       244.000         205.000
  -3040576.72049  -2340403.58945  23988414.357    23988413.505    23988424.688
       216.000         147.000
 00  5 22 16  9 29.9980000  0  8G24G 2G 4G 5G16G 7G 9G30
 -14191187.63449 -11036743.18647  19859059.386    19859058.109    19859068.159
       242.000         205.000
   6795936.20049   5284291.30445  23794038.163    23794035.878    23794054.471
       205.000         148.000
  -4355771.79149  -3382476.36647  19937254.691    19937253.568    19937261.800
       241.000         207.000
 -15360307.14549 -11945043.63747  20966077.878    20966076.398    20966085.653
       238.000         194.000
  -6780573.06149  -5268521.03245  23736612.988    23736611.414    23736625.621
       210.000         148.000
   4952189.92349   3852270.71846  22527081.717    22527079.527    22527090.486
       230.000         180.000
  -2425373.64249  -1876814.10147  20944911.785    20944910.236    20944919.619
       244.000         205.000
  -3164730.22449  -2437146.51645  23964788.754    23964787.870    23964799.041
       214.000         145.000
 00  5 22 16  9 59.9980000  0  8G24G 2G 4G 5G16G 7G 9G30
 -14254463.98849 -11086049.41147  19847018.328    19847017.010    19847027.090
       242.000         205.000
   6862882.07149   5336456.62245  23806777.742    23806775.351    23806794.255
       203.000         142.000
  -4341536.25749  -3371383.79647  19939963.760    19939962.572    19939970.771
       241.000         206.000
 -15454715.54349 -12018608.61247  20948112.548    20948111.072    20948120.316
       238.000         194.000
  -6795901.84749  -5280465.57045  23733695.982    23733694.342    23733708.387
       209.000         146.000
   4994334.14049   3885110.23846  22535101.653    22535099.421    22535110.362
       230.000         178.000
  -2400675.85449  -1857569.17847  20949611.744    20949610.150    20949619.573
       244.000         205.000
  -3288853.73749  -2533866.15445  23941168.865    23941167.924    23941179.011
       214.000         149.000
 00  5 22 16 10 29.9980000  0  8G24G 2G 4G 5G16G 7G 9G30
 -14317180.15449 -11134919.12247  19835083.849    19835082.538    19835092.628
       242.000         205.000
   6930063.65849   5388805.74145  23819562.392    23819559.861    23819578.693
       207.000         147.000
  -4326736.28349  -3359851.39747  19942780.173    19942778.966    19942787.156
       241.000         207.000
 -15548862.43049 -12091969.80347  20930197.104    20930195.531    20930204.743
       239.000         195.000
  -6810653.90849  -5291960.72745  23730888.942    23730887.227    23730901.014
       213.000         147.000
   5036559.94449   3918013.33746  22543137.040    22543134.825    22543145.773
       230.000         177.000
  -2375462.11349  -1837922.21447  20954409.903    20954408.282    20954417.696
       244.000         205.000
  -3412948.01749  -2630562.88945  23917554.317    23917553.513    23917564.777
       216.000         148.000
 00  5 22 16 10 59.9980000  0  8G24G 2G 4G 5G16G 7G 9G30
 -14379342.09549 -11183356.96647  19823254.909    19823253.539    19823263.603
       242.000         205.000
   6997473.59249   5441332.83045  23832390.392    23832387.850    23832406.587
       204.000         134.000
  -4311381.07449  -3347886.35047  19945702.170    19945701.020    19945709.205
       241.000         207.000
 -15642752.52949 -12165130.90447  20912330.435    20912328.825    20912338.012
       238.000         195.000
  -6824835.95449  -5303011.64345  23728190.353    23728188.580    23728202.265
       214.000         152.000
   5078860.45449   3950974.62646  22551186.673    22551184.467    22551195.451
       230.000         177.000
  -2349741.15549  -1817880.01747  20959304.549    20959302.911    20959312.325
       244.000         204.000
  -3537018.13749  -2727240.89045  23893944.587    23893943.741    23893954.965
       217.000         148.000
 00  5 22 16 11 29.9970000  0  8G24G 2G 4G 5G16G 7G 9G30
 -14440913.40849 -11231334.58347  19811538.270    19811536.923    19811546.949
       241.000         204.000
   7065141.92048   5494061.07745  23845267.240    23845264.834    23845283.761
       192.000         145.000
  -4295439.01449  -3335464.00947  19948735.898    19948734.740    19948742.914
       241.000         207.000
 -15736347.20949 -12238061.81147  20894520.007    20894518.386    20894527.523
       238.000         195.000
  -6838413.36349  -5313591.45245  23725606.685    23725604.923    23725618.629
       214.000         152.000
   5121267.32849   3984018.82446  22559256.413    22559254.321    22559265.308
       228.000         176.000
  -2323482.53849  -1797418.86147  20964301.551    20964299.869    20964309.258
       244.000         205.000
  -3661024.94349  -2823869.59745  23870346.891    23870346.024    23870357.231
       213.000         147.000
 00  5 22 16 11 59.9970000  0  9G24G 2G 4G 5G16G 7G10G 9G30
 -14501922.79449 -11278874.33147  19799928.564    19799927.212    19799937.194
       241.000         203.000
   7133046.70649   5546973.64245  23858189.151    23858186.739    23858205.749
       207.000         144.000
  -4278936.43349  -3322604.89747  19951876.248    19951875.097    19951883.295
       240.000         207.000
 -15829675.80749 -12310785.38747  20876760.217    20876758.555    20876767.673
       238.000         195.000
  -6851412.44049  -5323720.59945  23723133.183    23723131.325    23723145.003
       213.000         154.000
   5163757.99349   4017128.30546  22567342.233    22567340.111    22567351.140
       226.000         175.000
   -267124.33853                  24451831.148
       204.000          76.000
  -2296711.56249  -1776558.46847  20969395.987    20969394.323    20969403.711
       244.000         204.000
  -3785000.29349  -2920473.68145  23846754.972    23846754.274    23846765.645
       214.000         150.000
 00  5 22 16 12 29.9970000  0  9G24G 2G 4G 5G16G 7G10G 9G30
 -14562387.65849 -11325989.77647  19788422.451    19788421.129    19788431.037
       241.000         202.000
   7201164.59248   5600052.40144  23871151.430    23871149.408    23871167.562
       192.000         129.000
  -4261895.61749  -3309326.37547  19955118.975    19955117.890    19955126.161
       241.000         207.000
 -15922753.13849 -12383313.16847  20859048.247    20859046.550    20859055.637
       239.000         196.000
  -6863852.16649  -5333413.88745  23720765.987    23720764.150    23720777.775
       213.000         152.000
   5206310.76349   4050286.17146  22575439.767    22575437.700    22575448.872
       228.000         178.000
    -74278.80143                  24428984.395
       205.000          74.000
  -2269451.18549  -1755316.71447  20974583.526    20974581.880    20974591.271
       243.000         204.000
  -3908958.48149  -3017064.44845  23823166.421    23823165.767    23823177.050
       217.000         151.000
 00  5 22 16 12 59.9970000  0  9G24G 2G 4G 5G16G 7G10G 9G30
 -14622277.79649 -11372657.38247  19777025.699    19777024.409    19777034.224
       242.000         202.000
   7269523.99749   5653319.16245  23884160.038    23884157.841    23884176.234
       209.000         147.000
  -4244288.89649  -3295606.88147  19958469.458    19958468.360    19958476.707
       241.000         207.000
 -16015547.94549 -12455620.80047  20841389.924    20841388.284    20841397.405
       238.000         195.000
  -6875702.79149  -5342648.12545  23718510.884    23718509.087    23718522.742
       213.000         150.000
   5248954.88449   4083515.21046  22583554.778    22583552.716    22583564.003
       227.000         175.000
   -167905.77544                  24406119.506
       199.000         130.000
  -2241673.67849  -1733671.98647  20979869.493    20979867.842    20979877.231
       244.000         204.000
  -4032868.47449  -3113617.58145  23799587.010    23799586.399    23799597.804
       216.000         151.000
 00  5 22 16 13 29.9970000  0  9G24G 2G 4G 5G16G 7G10G 9G30
 -14681611.68949 -11418891.55047  19765734.912    19765733.564    19765743.302
       243.000         203.000
   7338104.82849   5706758.43845  23897211.003    23897208.681    23897227.139
       210.000         147.000
  -4226137.29049  -3281462.79847  19961923.626    19961922.527    19961930.919
       241.000         206.000
 -16108077.12549 -12527721.45447  20823782.238    20823780.585    20823789.712
       239.000         196.000
  -6886983.37449  -5351438.19745  23716364.361    23716362.489    23716376.042
       215.000         149.000
   5291671.13049   4116800.49046  22591683.549    22591681.485    22591692.731
       228.000         176.000
   -738104.52149   -261619.76144  24383233.040    24383230.724    24383255.946
       202.000         130.000
  -2213400.30249  -1711640.87147  20985249.800    20985248.163    20985257.576
       244.000         204.000
  -4156747.65349  -3210146.82945  23776013.736    23776012.964    23776024.261
       216.000         154.000
 00  5 22 16 13 59.9970000  0  9G24G 2G 4G 5G16G 7G10G 9G30
 -14740393.56949 -11464695.57747  19754549.126    19754547.766    19754557.453
       242.000         203.000
   7406900.89849   5760365.48945  23910302.584    23910300.343    23910318.840
       207.000         135.000
  -4207447.83849  -3266899.60547  19965480.136    19965479.059    19965487.449
       241.000         207.000
 -16200343.38249 -12599617.22247  20806224.544    20806222.904    20806232.073
       238.000         196.000
  -6897698.25749  -5359787.40045  23714325.300    23714323.485    23714337.038
       212.000         145.000
   5334454.26549   4150137.86946  22599825.050    22599822.973    22599834.247
       227.000         173.000
   -858484.92049   -355422.71045  24360325.263    24360322.721    24360346.174
       201.000         132.000
  -2184638.02949  -1689228.78947  20990723.144    20990721.532    20990730.972
       244.000         204.000
  -4280599.65549  -3306654.86145  23752445.694    23752444.771    23752456.023
       216.000         149.000
 00  5 22 16 14 29.9970000  0  9G24G 2G 4G 5G16G 7G10G 9G30
 -14798597.27049 -11510049.08547  19743473.310    19743471.969    19743481.651
       242.000         203.000
   7475936.82049   5814159.48645  23923439.922    23923437.665    23923455.993
       210.000         143.000
  -4188196.87449  -3251898.86947  19969143.575    19969142.460    19969150.826
       242.000         206.000
 -16292319.06849 -12671286.57347  20788722.173    20788720.536    20788729.734
       239.000         196.000
  -6907822.03049  -5367676.02145  23712398.821    23712397.037    23712410.531
       216.000         151.000
   5377329.73949   4183547.19146  22607984.065    22607982.029    22607993.334
       226.000         175.000
   -978950.57259   -449291.78455  24337401.173    24337398.613    24337421.737
       208.000         135.000
  -2155363.36349  -1666417.45047  20996294.006    20996292.395    20996301.848
       244.000         203.000
  -4404397.31149  -3403120.48145  23728887.782    23728886.826    23728898.256
       217.000         149.000
 00  5 22 16 14 59.9970000  0  9G24G 2G 4G 5G16G 7G10G 9G30
 -14856240.64849 -11554965.96747  19732504.167    19732502.809    19732512.472
       242.000         203.000
   7545192.87749   5868124.88445  23936619.302    23936616.932    23936635.386
       207.000         146.000
  -4168404.66549  -3236476.37047  19972909.945    19972908.834    19972917.215
       242.000         207.000
 -16384020.58649 -12742742.28747  20771271.973    20771270.334    20771279.548
       239.000         197.000
  -6917372.73749  -5375118.02945  23710581.429    23710579.667    23710593.065
       214.000         152.000
   5420278.82649   4217013.86146  22616157.128    22616155.064    22616166.433
       225.000         176.000
  -1099517.39349   -543239.88844  24314458.059    24314456.216    24314478.633
       208.000         131.000
  -2125596.48649  -1643222.56647  21001958.535    21001956.924    21001966.391
       244.000         203.000
  -4528157.38849  -3499556.89145  23705337.056    23705336.141    23705347.436
       217.000         154.000
 00  5 22 16 15 29.9970000  0  9G24G 2G 4G 5G16G 7G10G 9G30
 -14913313.83549 -11599438.54847  19721643.521    19721642.160    19721651.813
       242.000         204.000
   7614677.35749   5922268.27345  23949842.242    23949839.688    23949858.072
       208.000         139.000
  -4148063.91249  -3220626.43647  19976780.705    19976779.601    19976787.994
       242.000         206.000
 -16475436.61849 -12813975.55147  20753876.129    20753874.459    20753883.637
       240.000         197.000
  -6926340.65449  -5382105.96445  23708875.085    23708873.176    23708886.493
       215.000         153.000
   5463310.67649   4250545.03046  22624345.845    22624343.856    22624355.203
       224.000         172.000
  -1220173.60949   -637257.50545  24291498.179    24291496.348    24291518.840
       209.000         140.000
  -2095330.43849  -1619638.73047  21007718.028    21007716.438    21007725.918
       244.000         203.000
  -4651868.79349  -3595955.38645  23681795.578    23681794.628    23681805.990
       215.000         152.000
 00  5 22 16 15 59.9970000  0  9G24G 2G 4G 5G16G 7G10G 9G30
 -14969827.85749 -11643475.42447  19710889.240    19710887.893    19710897.583
       242.000         203.000
   7684377.85849   5976580.16645  23963106.101    23963103.481    23963121.667
       210.000         141.000
  -4127188.06549  -3204359.54147  19980753.379    19980752.207    19980760.570
       242.000         206.000
 -16566576.44249 -12884993.58747  20736532.845    20736531.142    20736540.298
       239.000         196.000
  -6934737.55449  -5388648.95445  23707277.310    23707275.352    23707288.550
       210.000         151.000
   5506413.71849   4284131.67546  22632548.245    22632546.209    22632557.552
       227.000         172.000
  -1340927.66549   -731351.47544  24268519.459    24268517.096    24268540.079
       205.000         126.000
  -2064578.50549  -1595676.30047  21013569.976    21013568.402    21013577.897
       244.000         202.000
  -4775541.44349  -3692323.62145  23658261.536    23658260.506    23658272.002
       218.000         152.000
 00  5 22 16 16 29.9970000  0  9G24G 2G 4G 5G16G 7G10G 9G30
 -15025806.13949 -11687094.83747  19700236.973    19700235.600    19700245.261
       242.000         203.000
   7754269.16049   6031040.66345  23976406.027    23976403.671    23976421.919
       200.000         140.000
  -4105803.21349  -3187696.02647  19984822.771    19984821.631    19984830.000
       242.000         206.000
 -16657462.10649 -12955813.57547  20719237.852    20719236.198    20719245.299
       239.000         196.000
  -6942587.16549  -5394765.47245  23705783.376    23705781.543    23705794.784
       208.000         151.000
   5549563.70649   4317754.91146  22640759.620    22640757.540    22640768.845
       227.000         175.000
  -1461800.99449   -825538.31445  24245517.831    24245515.541    24245538.226
       207.000         138.000
  -2033367.05949  -1571355.80147  21019509.429    21019507.816    21019517.330
       244.000         203.000
  -4899197.65249  -3788679.04145  23634730.292    23634729.480    23634741.013
       215.000         151.000
 00  5 22 16 16 59.9970000  0  9G24G 2G 4G 5G16G 7G10G 9G30
 -15081233.19549 -11730284.73547  19689689.561    19689688.190    19689697.833
       242.000         203.000
   7824365.23349   6085660.53945  23989745.088    23989742.664    23989761.312
       199.000         140.000
  -4083896.30949  -3170625.71047  19988991.581    19988990.417    19988998.778
       242.000         206.000
 -16748076.45049 -13026422.14547  20701994.535    20701992.859    20702001.921
       240.000         196.000
  -6949874.36649  -5400443.72145  23704396.469    23704394.726    23704408.149
       213.000         154.000
   5592775.52249   4351426.32146  22648982.763    22648980.620    22648991.894
       227.000         174.000
  -1582775.63149   -919804.04644  24222496.946    24222494.957    24222517.173
       204.000         127.000
  -2001683.34149  -1546667.30847  21025538.753    21025537.125    21025546.646
       244.000         203.000
  -5022820.70449  -3885008.67245  23611205.637    23611204.748    23611216.174
       218.000         148.000
 00  5 22 16 17 29.9970000  0  9G24G 2G 4G 5G16G 7G10G 9G30
 -15136123.38049 -11773056.29247  19679244.287    19679242.909    19679252.552
       241.000         201.000
   7894649.80649   6140427.42345  24003120.049    24003117.506    24003136.231
       205.000         136.000
  -4061484.18349  -3153161.71047  19993256.500    19993255.337    19993263.659
       242.000         206.000
 -16838432.10149 -13096829.13247  20684800.386    20684798.764    20684807.750
       239.000         197.000
  -6956614.08749  -5405695.33845  23703113.975    23703112.195    23703125.682
       214.000         154.000
   5636034.10749   4385134.14646  22657214.866    22657212.624    22657223.895
       228.000         174.000
  -1703863.53949  -1014158.18344  24199454.380    24199452.619    24199474.626
       206.000         127.000
  -1969544.43549  -1521624.09047  21031654.696    21031653.047    21031662.565
       244.000         203.000
  -5146423.69549  -3981322.69745  23587684.838    23587683.856    23587695.090
       215.000         148.000
 00  5 22 16 17 59.9970000  0  9G24G 2G 4G 5G16G 7G10G 9G30
 -15190483.21549 -11815414.58747  19668899.871    19668898.544    19668908.185
       240.000         201.000
   7965114.69249   6195334.88444  24016528.816    24016526.680    24016545.149
       202.000         127.000
  -4038576.02649  -3135311.18847  19997615.801    19997614.654    19997622.941
       242.000         206.000
 -16928534.07249 -13167038.45547  20667654.569    20667652.934    20667661.852
       239.000         197.000
  -6962813.31349  -5410525.79645  23701934.386    23701932.553    23701945.923
       217.000         157.000
   5679332.35149   4418872.89746  22665454.387    22665452.145    22665463.394
       225.000         173.000
  -1825069.07649  -1108603.86244  24176389.513    24176387.915    24176409.694
       206.000         128.000
  -1936959.32249  -1496233.17747  21037855.609    21037853.901    21037863.418
       244.000         203.000
  -5270012.01549  -4077625.19945  23564166.720    23564165.701    23564176.927
       214.000         143.000
 00  5 22 16 18 29.9970000  0  9G24G 2G 4G 5G16G 7G10G 9G30
 -15244289.33749 -11857341.42247  19658660.857    19658659.564    19658669.181
       241.000         201.000
   8035781.78749   6250399.77645  24029976.488    24029974.452    24029992.975
       205.000         140.000
  -4015150.51749  -3117057.53347  20002073.554    20002072.406    20002080.634
       242.000         206.000
 -17018357.37749 -13237030.62447  20650561.727    20650560.113    20650568.999
       240.000         198.000
  -6968448.83549  -5414916.97545  23700862.053    23700860.167    23700873.549
       216.000         157.000
   5722693.08949   4452660.35946  22673705.628    22673703.511    22673714.784
       225.000         173.000
  -1946366.62649  -1203121.26244  24153307.181    24153305.468    24153327.258
       208.000         130.000
  -1903907.25249  -1470478.41247  21044145.322    21044143.593    21044153.150
       244.000         203.000
  -5393561.16249  -4173897.24945  23540655.801    23540655.011    23540666.059
       215.000         148.000
 00  5 22 16 18 59.9970000  0  9G24G 2G 4G 5G16G 7G10G 9G30
 -15297552.12749 -11898844.87947  19648525.260    19648523.976    19648533.558
       240.000         201.000
   8106638.95749   6305612.90045  24043460.663    24043458.441    24043477.063
       206.000         144.000
  -3991220.86049  -3098411.03547  20006627.179    20006626.081    20006634.308
       242.000         206.000
 -17107910.51449 -13306812.27447  20633520.338    20633518.720    20633527.543
       240.000         198.000
  -6973531.65649  -5418877.50845  23699894.772    23699892.955    23699906.239
       210.000         154.000
   5766105.33549   4486487.94046  22681966.710    22681964.679    22681976.002
       225.000         173.000
  -2067764.05749  -1297716.44444  24130205.908    24130204.180    24130226.030
       204.000         128.000
  -1870401.07749  -1444369.80847  21050521.394    21050519.677    21050529.285
       244.000         202.000
  -5517080.18949  -4270145.79245  23517150.866    23517150.075    23517161.074
       215.000         147.000
 00  5 22 16 19 29.9970000  0  9G24G 2G 4G 5G16G 7G10G 9G30
 -15350254.59349 -11939911.72747  19638496.292    19638495.020    19638504.587
       241.000         202.000
   8177701.99049   6360986.25945  24056983.987    24056981.500    24057000.397
       203.000         135.000
  -3966772.57749  -3079360.41747  20011279.550    20011278.446    20011286.665
       242.000         206.000
 -17197174.78749 -13376368.83747  20616533.949    20616532.315    20616541.085
       241.000         199.000
  -6978044.83049  -5422394.16545  23699035.871    23699034.113    23699047.317
       212.000         154.000
   5809585.62449   4520368.52846  22690240.836    22690238.828    22690250.217
       227.000         175.000
  -2189241.72649  -1392374.27344  24107089.211    24107087.743    24107109.405
       205.000         131.000
  -1836426.41949  -1417896.15247  21056986.637    21056984.902    21056994.554
       243.000         202.000
  -5640550.81349  -4366356.63745  23493655.025    23493654.319    23493665.159
       216.000         148.000
 00  5 22 16 19 59.9970000  0  9G24G 2G 4G 5G16G 7G10G 9G30
 -15402421.33249 -11980561.12347  19628569.304    19628567.988    19628577.562
       240.000         201.000
   8248944.72849   6416499.88644  24070541.108    24070538.748    24070557.637
       204.000         130.000
  -3941832.64949  -3059926.69747  20016025.426    20016024.343    20016032.602
       243.000         207.000
 -17286173.24549 -13445718.26247  20599598.126    20599596.479    20599605.224
       241.000         198.000
  -6982013.88849  -5425486.87745  23698280.374    23698278.702    23698292.020
       211.000         155.000
   5853108.83049   4554282.57146  22698522.963    22698521.039    22698532.559
       225.000         173.000
  -2310822.02849  -1487111.92845  24083952.950    24083951.611    24083973.311
       202.000         132.000
  -1802010.30549  -1391078.49647  21063535.771    21063534.117    21063543.830
       242.000         202.000
  -5763996.22749  -4462547.78645  23470164.119    23470163.404    23470174.277
       219.000         151.000
 00  5 22 16 20 29.9970000  0  9G24G 2G 4G 5G16G 7G10G 9G30
 -15454037.46149 -12020781.47647  19618746.956    19618745.724    19618755.333
       239.000         201.000
   8320380.39249   6472163.70245  24084135.126    24084132.743    24084151.801
       205.000         133.000
  -3916388.58549  -3040100.15947  20020867.216    20020866.183    20020874.469
       242.000         207.000
 -17374889.52249 -13514847.81347  20582716.053    20582714.353    20582723.084
       240.000         199.000
  -6985424.25949  -5428144.23245  23697631.017    23697629.614    23697642.842
       212.000         151.000
   5896689.20949   4588241.18846  22706816.047    22706814.169    22706825.812
       225.000         171.000
  -2432487.85449  -1581916.31545  24060800.590    24060799.218    24060820.837
       205.000         135.000
  -1767140.58349  -1363907.38247  21070171.297    21070169.677    21070179.427
       243.000         202.000
  -5887399.99349  -4558706.52445  23446681.494    23446680.531    23446691.306
       220.000         154.000
 00  5 22 16 20 59.9970000  0  9G24G 2G 4G 5G16G 7G10G 9G30
 -15505093.67949 -12060565.52447  19609031.199    19609030.001    19609039.650
       239.000         201.000
   8392016.63649   6527983.86945  24097767.594    24097764.950    24097783.991
       205.000         136.000
  -3890433.48149  -3019875.39847  20025806.282    20025805.280    20025813.568
       242.000         207.000
 -17463312.05049 -13583748.46247  20565889.794    20565888.104    20565896.848
       240.000         199.000
  -6988267.09949  -5430359.31745  23697089.899    23697088.507    23697101.687
       214.000         148.000
   5940335.72149   4622251.30346  22715121.979    22715119.934    22715131.692
       226.000         171.000
  -2554226.92649  -1676777.69145  24037634.632    24037632.961    24037654.550
       211.000         136.000
  -1731810.57749  -1336377.60647  21076894.418    21076892.824    21076902.614
       243.000         203.000
  -6010751.44649  -4654824.45845  23423208.623    23423207.556    23423218.303
       222.000         158.000
 00  5 22 16 21 29.9970000  0  9G24G 2G 4G 5G16G 7G10G 9G30
 -15555605.82449 -12099925.62747  19599419.020    19599417.829    19599427.521
       240.000         201.000
   8463836.17249   6583946.88745  24111434.506    24111431.962    24111451.110
       202.000         133.000
  -3863985.94349  -2999266.92647  20030839.053    20030838.076    20030846.380
       243.000         207.000
 -17551455.04449 -13652431.29447  20549116.726    20549115.056    20549123.818
       240.000         198.000
  -6990558.41849  -5432144.67945  23696653.995    23696652.392    23696665.484
       213.000         144.000
   5984032.03149   4656300.25146  22723437.315    22723435.180    22723446.904
       224.000         171.000
  -2676052.85549  -1771706.84845  24014451.507    24014450.186    24014471.781
       205.000         134.000
  -1696038.74349  -1308503.58347  21083701.574    21083700.038    21083709.871
       242.000         202.000
  -6134065.24649  -4750913.08945  23399742.833    23399741.754    23399752.442
       220.000         161.000
 00  5 22 16 21 59.9970000  0  9G24G 2G 4G 5G16G 7G10G 9G30
 -15605573.74249 -12138861.65447  19589910.514    19589909.246    19589918.939
       241.000         202.000
   8535837.90848   6640051.86344  24125136.060    24125133.603    24125152.903
       193.000         128.000
  -3837047.77649  -2978276.15147  20035965.277    20035964.257    20035972.528
       243.000         207.000
 -17639316.36549 -13720894.64047  20532397.240    20532395.576    20532404.375
       240.000         198.000
  -6992298.62149  -5433500.62745  23696322.781    23696321.153    23696333.983
       212.000         142.000
   6027778.21649   4690388.04546  22731762.111    22731759.945    22731771.636
       223.000         167.000
  -2797962.61249  -1866701.22845  23991252.710    23991251.430    23991273.041
       204.000         136.000
  -1659827.11149  -1280286.84647  21090592.518    21090590.947    21090600.811
       243.000         202.000
  -6257339.42949  -4846970.85346  23376284.587    23376283.496    23376294.137
       224.000         164.000
 00  5 22 16 22 29.9970000  0  9G24G 2G 4G 5G16G 7G10G 9G30
 -15655019.39949 -12177390.72647  19580501.362    19580500.075    19580509.777
       240.000         202.000
   8607998.24049   6696280.35244  24138867.970    24138865.503    24138884.797
       198.000         128.000
  -3809643.47649  -2956922.15447  20041180.148    20041179.142    20041187.375
       243.000         207.000
 -17726915.97749 -13789154.05647  20515727.580    20515725.923    20515734.727
       239.000         197.000
  -6993510.01749  -5434444.49045  23696092.314    23696090.571    23696103.325
       213.000         143.000
   6071551.78749   4724497.16446  22740091.958    22740089.859    22740101.593
       224.000         170.000
  -2919975.69849  -1961776.13945  23968034.236    23968032.847    23968054.704
       203.000         137.000
  -1623200.36649  -1251746.63847  21097562.462    21097560.869    21097570.718
       243.000         202.000
  -6380594.56349  -4943013.76345  23352829.923    23352828.819    23352839.484
       222.000         162.000
 00  5 22 16 22 59.9970000  0  9G24G 2G 4G 5G16G 7G10G 9G30
 -15703931.77749 -12215504.25847  19571193.626    19571192.352    19571202.072
       239.000         202.000
   8680326.72749   6752639.90545  24152631.962    24152629.499    24152648.630
       210.000         144.000
  -3781764.53349  -2935198.31647  20046485.342    20046484.342    20046492.567
       243.000         207.000
 -17814241.30049 -13857199.73547  20499110.109    20499108.438    20499117.273
       239.000         197.000
  -6994182.16449  -5434968.26245  23695964.471    23695962.595    23695975.402
       213.000         149.000
   6115363.32749   4758635.89846  22748429.062    22748427.021    22748438.732
       224.000         169.000
  -3042078.48049  -2056920.93145  23944798.250    23944797.223    23944819.068
       206.000         135.000
  -1586150.07449  -1222876.39547  21104613.018    21104611.379    21104621.237
       243.000         202.000
  -6503818.32549  -5039032.24546  23329381.230    23329380.137    23329390.777
       223.000         163.000
 00  5 22 16 23 29.9970000  0  8G24G 4G 5G16G 7G10G 9G30
 -15752301.63149 -12253195.04747  19561989.173    19561987.898    19561997.587
       239.000         201.000
  -3753403.97849  -2913099.20447  20051882.182    20051881.183    20051889.359
       243.000         206.000
 -17901280.93649 -13925022.81047  20482546.920    20482545.307    20482554.175
       238.000         198.000
  -6994306.36249  -5435065.00845  23695940.702    23695938.930    23695951.750
       212.000         151.000
   6159221.96049   4792811.29746  22756775.201    22756773.147    22756784.915
       224.000         167.000
  -3164259.04749  -2152126.31245  23921548.100    23921546.891    23921568.824
       204.000         135.000
  -1548669.02649  -1193670.49447  21111745.528    21111743.870    21111753.758
       243.000         203.000
  -6626999.62749  -5135017.64846  23305940.529    23305939.505    23305950.078
       225.000         165.000
 00  5 22 16 23 59.9970000  0  8G24G 4G 5G16G 7G10G 9G30
 -15800143.09449 -12290474.10047  19552885.210    19552883.934    19552893.639
       239.000         200.000
  -3724578.51549  -2890637.82547  20057367.451    20057366.495    20057374.627
       243.000         207.000
 -17988047.43649 -13992633.04847  20466035.714    20466034.163    20466043.063
       238.000         198.000
  -6993897.11449  -5434746.13445  23696018.500    23696016.779    23696029.647
       214.000         153.000
   6203112.87449   4827011.88246  22765127.464    22765125.443    22765137.195
       223.000         168.000
  -3286528.76549  -2247401.16945  23898280.663    23898279.618    23898301.555
       207.000         140.000
  -1510774.59849  -1164142.48547  21118956.700    21118955.039    21118964.952
       243.000         203.000
  -6750150.90649  -5230979.64346  23282505.483    23282504.584    23282515.142
       225.000         166.000
 00  5 22 16 24 29.9970000  0  8G24G 4G 5G16G 7G10G 9G30
 -15847428.23049 -12327319.64847  19543887.097    19543885.826    19543895.562
       238.000         200.000
  -3695262.42749  -2867794.14847  20062946.131    20062945.166    20062953.278
       243.000         206.000
 -18074510.59749 -14060006.91747  20449582.242    20449580.733    20449589.668
       239.000         198.000
  -6992926.91449  -5433990.16945  23696203.019    23696201.360    23696214.187
       214.000         152.000
   6247064.14949   4861259.48746  22773491.173    22773489.207    22773500.994
       224.000         169.000
  -3408857.14849  -2342721.73845  23875002.291    23875001.094    23875023.099
       208.000         138.000
  -1472440.97349  -1134272.23447  21126251.346    21126249.755    21126259.705
       243.000         202.000
  -6873242.79949  -5326895.34545  23259081.703    23259080.855    23259091.537
       222.000         162.000
 00  5 22 16 24 59.9970000  0  8G24G 4G 5G16G 7G10G 9G30
 -15894184.29649 -12363752.92947  19534989.676    19534988.417    19534998.136
       238.000         199.000
  -3665485.30949  -2844591.22547  20068612.518    20068611.580    20068619.674
       243.000         207.000
 -18160695.66449 -14127164.08847  20433181.681    20433180.211    20433189.177
       239.000         198.000
  -6991423.43249  -5432818.66945  23696489.068    23696487.449    23696500.143
       214.000         150.000
   6291048.18649   4895532.62446  22781861.230    22781859.202    22781870.998
       226.000         165.000
  -3531268.57549  -2438107.01645  23851708.181    23851706.885    23851728.819
       201.000         135.000
  -1433697.81549  -1104082.86547  21133623.996    21133622.426    21133632.374
       242.000         202.000
  -6996300.79149  -5422784.61446  23235664.499    23235663.630    23235674.404
       224.000         164.000
 00  5 22 16 25 29.9970000  0  8G24G 4G 5G16G 7G10G 9G30
 -15940416.55549 -12399778.05347  19526191.948    19526190.698    19526200.372
       238.000         199.000
  -3635254.93049  -2821035.12547  20074365.152    20074364.215    20074372.371
       243.000         207.000
 -18246606.18249 -14194107.32947  20416833.473    20416831.963    20416840.927
       240.000         197.000
  -6989392.46549  -5431236.09645  23696875.481    23696873.905    23696886.622
       213.000         152.000
   6335059.53249   4929827.02646  22790236.445    22790234.406    22790246.210
       223.000         170.000
  -3653765.56649  -2533558.96845  23828397.451    23828396.264    23828418.156
       203.000         138.000
  -1394553.02749  -1073580.54947  21141073.095    21141071.522    21141081.476
       242.000         201.000
  -7119328.42249  -5518650.26246  23212253.086    23212252.221    23212262.974
       226.000         166.000
 00  5 22 16 25 59.9970000  0  8G24G 4G 5G16G 7G10G 9G30
 -15986123.97449 -12435394.20747  19517494.046    19517492.846    19517502.514
       237.000         199.000
  -3604572.60149  -2797126.86047  20080203.790    20080202.875    20080211.068
       242.000         207.000
 -18332238.92349 -14260834.12147  20400538.111    20400536.569    20400545.542
       239.000         198.000
  -6986833.35049  -5429242.00245  23697362.540    23697360.946    23697373.604
       215.000         150.000
   6379098.96949   4964143.33246  22798616.900    22798614.900    22798626.775
       221.000         165.000
  -3776344.33249  -2629074.60245  23805071.360    23805070.136    23805092.058
       205.000         137.000
  -1355008.06449  -1042766.41047  21148598.321    21148596.761    21148606.711
       243.000         201.000
  -7242323.18049  -5614490.31046  23188847.920    23188847.102    23188857.795
       225.000         164.000
 00  5 22 16 26 29.9970000  0  8G24G 4G 5G16G 7G10G 9G30
 -16031277.44149 -12470578.70547  19508901.598    19508900.401    19508910.096
       237.000         199.000
  -3573411.35149  -2772845.40947  20086133.613    20086132.687    20086140.882
       242.000         206.000
 -18417562.56149 -14327320.06147  20384301.584    20384300.021    20384308.986
       239.000         198.000
  -6983717.52249  -5426814.10445  23697955.478    23697953.883    23697966.533
       213.000         151.000
   6423195.62249   4998504.19646  22807008.331    22807006.318    22807018.171
       222.000         165.000
  -3898972.70949  -2724628.96245  23781735.966    23781734.586    23781756.406
       204.000         140.000
  -1315036.41249  -1011619.79047  21156204.782    21156203.213    21156213.155
       242.000         201.000
  -7365254.07049  -5710280.53745  23165454.849    23165454.070    23165464.839
       224.000         162.000
 00  5 22 16 26 59.9970000  0  8G24G 4G 5G16G 7G10G 9G30
 -16075900.68949 -12505350.05047  19500410.015    19500408.846    19500418.590
       237.000         199.000
  -3541797.43949  -2748211.24547  20092149.583    20092148.635    20092156.853
       242.000         206.000
 -18502599.08749 -14393582.27247  20368119.645    20368118.093    20368127.039
       240.000         197.000
  -6980069.06749  -5423971.21445  23698649.780    23698648.187    23698660.891
       212.000         150.000
   6467325.40949   5032890.90346  22815406.139    22815404.096    22815415.886
       222.000         166.000
  -4021671.67249  -2820238.29745  23758387.048    23758385.555    23758407.450
       208.000         139.000
  -1274664.21349   -980161.06347  21163887.449    21163885.868    21163895.842
       243.000         201.000
  -7488142.83449  -5806037.94645  23142069.783    23142069.083    23142079.862
       224.000         161.000
 00  5 22 16 27 29.9970000  0  8G24G 4G 5G16G 7G10G 9G30
 -16120014.69449 -12539724.58047  19492015.317    19492014.202    19492023.967
       237.000         199.000
  -3509753.77349  -2723242.21247  20098247.278    20098246.343    20098254.596
       242.000         206.000
 -18587366.99949 -14459635.17247  20351988.878    20351987.291    20351996.227
       240.000         198.000
  -6975909.26049  -5420729.88045  23699441.189    23699439.707    23699452.400
       212.000         151.000
   6511467.42549   5067287.15146  22823806.222    22823804.178    22823815.953
       223.000         164.000
  -4144459.32149  -2915916.70845  23735021.064    23735019.693    23735041.560
       213.000         140.000
  -1233914.59449   -948408.24247  21171641.965    21171640.371    21171650.383
       243.000         202.000
  -7611008.48349  -5901777.36246  23118689.319    23118688.521    23118699.267
       225.000         164.000
 00  5 22 16 27 59.9970000  0  8G24G 4G 5G16G 7G10G 9G30
 -16163596.74649 -12573684.59547  19483721.982    19483720.808    19483730.532
       235.000         199.000
  -3477260.31049  -2697922.70147  20104430.617    20104429.658    20104437.943
       243.000         206.000
 -18671841.66549 -14525459.58047  20335913.825    20335912.300    20335921.219
       240.000         198.000
  -6971216.04449  -5417072.85245  23700334.406    23700332.805    23700345.480
       210.000         149.000
   6555644.49549   5101710.69446  22832213.004    22832210.919    22832222.689
       222.000         167.000
  -4267309.84449  -3011644.21645  23711643.423    23711641.941    23711663.607
       210.000         141.000
  -1192767.47149   -916345.68047  21179472.107    21179470.503    21179480.574
       243.000         201.000
  -7733826.82249  -5997479.92945  23095317.727    23095316.953    23095327.662
       222.000         161.000
 00  5 22 16 28 29.9970000  0  8G24G 4G 5G16G 7G10G 9G30
 -16206649.84149 -12607232.42547  19475529.297    19475528.087    19475537.786
       236.000         200.000
  -3444322.16049  -2672256.68647  20110698.654    20110697.633    20110705.908
       242.000         205.000
 -18756024.05949 -14591056.23847  20319894.434    20319892.916    20319901.815
       240.000         199.000
  -6965992.94549  -5413002.92245  23701328.383    23701326.734    23701339.514
       213.000         150.000
   6599853.21049   5136158.89546  22840625.779    22840623.651    22840635.449
       221.000         167.000
  -4390223.29449  -3107420.69145  23688253.777    23688252.214    23688273.815
       203.000         140.000
  -1151228.32549   -883977.63447  21187376.849    21187375.255    21187385.369
       243.000         202.000
  -7856598.94549  -6093146.45045  23071954.728    23071954.095    23071964.805
       221.000         161.000
 00  5 22 16 28 59.9970000  0  8G24G 4G 5G16G 7G10G 9G30
 -16249164.05449 -12640360.34747  19467439.244    19467437.948    19467447.575
       237.000         200.000
  -3410931.72749  -2646238.25047  20117052.682    20117051.665    20117059.917
       242.000         205.000
 -18839902.08249 -14656415.72947  20303933.057    20303931.474    20303940.337
       240.000         199.000
  -6960230.25549  -5408512.50945  23702425.208    23702423.401    23702436.169
       213.000         154.000
   6644103.82049   5170639.73445  22849046.473    22849044.373    22849056.205
       220.000         162.000
  -4513186.60849  -3203236.08245  23664854.637    23664853.036    23664874.336
       208.000         141.000
  -1109289.50049   -851298.15347  21195357.655    21195356.071    21195366.226
       243.000         201.000
  -7979312.77649  -6188767.56545  23048603.053    23048602.362    23048613.011
       222.000         160.000
 00  5 22 16 29 29.9970000  0  8G24G 4G 5G16G 7G10G 9G30
 -16291163.07249 -12673086.81947  19459447.128    19459445.810    19459455.413
       237.000         200.000
  -3377114.94449  -2619887.59847  20123487.818    20123486.819    20123495.083
       243.000         204.000
 -18923497.25649 -14721554.81247  20288025.428    20288023.857    20288032.677
       240.000         199.000
  -6953952.46649  -5403620.70545  23703619.742    23703617.991    23703630.900
       210.000         151.000
   6688372.34749   5205134.55946  22857470.631    22857468.509    22857480.286
       220.000         165.000
  -4636220.67149  -3299106.61545  23641441.956    23641440.210    23641461.513
       208.000         138.000
  -1066977.24449   -818327.68547  21203409.523    21203407.945    21203418.119
       242.000         200.000
  -8101990.37049  -6284360.43245  23025258.370    23025257.563    23025268.190
       222.000         161.000
 00  5 22 16 29 59.9970000  0  8G24G 4G 5G16G 7G10G 9G30
 -16332641.81249 -12705407.87747  19451554.011    19451552.673    19451562.254
       236.000         200.000
  -3342869.02349  -2593202.55847  20130004.633    20130003.614    20130011.892
       242.000         204.000
 -19006802.12049 -14786467.68547  20272172.993    20272171.460    20272180.265
       240.000         199.000
  -6947154.70249  -5398323.77045  23704913.260    23704911.508    23704924.516
       211.000         153.000
   6732664.07749   5239647.45446  22865899.165    22865897.067    22865908.878
       221.000         166.000
  -4759317.45449  -3395025.97845  23618016.953    23618015.491    23618036.819
       209.000         139.000
  -1024288.63649   -785063.96647  21211532.993    21211531.412    21211541.601
       242.000         200.000
  -8224624.24549  -6379919.23445  23001921.817    23001921.059    23001931.683
       221.000         162.000
 00  5 22 16 30 29.9970000  0  8G24G 4G 5G16G 7G10G 9G30
 -16373618.12249 -12737337.43047  19443756.480    19443755.160    19443764.686
       235.000         199.000
  -3308213.93749  -2566198.68347  20136599.366    20136598.312    20136606.572
       242.000         204.000
 -19089832.38049 -14851166.57847  20256372.902    20256371.339    20256380.107
       240.000         200.000
  -6939855.27749  -5392635.93845  23706302.275    23706300.602    23706313.503
       213.000         151.000
   6776961.28049   5274164.59246  22874328.704    22874326.642    22874338.612
       222.000         168.000
  -4882491.45549  -3491005.60345  23594577.523    23594576.034    23594597.249
       210.000         138.000
   -981244.01249   -751522.82747  21219724.236    21219722.638    21219732.841
       242.000         200.000
  -8347230.26249  -6475456.34246  22978590.775    22978589.908    22978600.542
       225.000         163.000
 00  5 22 16 30 59.9970000  0  8G24G 4G 5G16G 7G10G 9G30
 -16414053.07449 -12768845.14347  19436062.016    19436060.644    19436070.135
       236.000         199.000
  -3273112.97949  -2538847.38047  20143278.878    20143277.852    20143286.108
       242.000         204.000
 -19172546.83849 -14915619.39247  20240632.813    20240631.283    20240640.067
       240.000         200.000
  -6932015.95049  -5386527.39745  23707794.159    23707792.416    23707805.239
       212.000         155.000
   6821302.89649   5308716.36546  22882766.980    22882764.711    22882776.710
       225.000         169.000
  -5005700.71649  -3587012.71245  23571131.309    23571129.976    23571151.072
       208.000         135.000
   -937807.03149   -717675.96447  21227990.181    21227988.546    21227998.735
       243.000         200.000
  -8469768.01649  -6570940.25246  22955272.625    22955271.725    22955282.422
       223.000         164.000
 00  5 22 16 31 29.9970000  0  8G24G 4G 5G16G 7G10G 9G30
 -16453983.42449 -12799959.66647  19428463.531    19428462.168    19428471.614
       235.000         199.000
  -3237605.06449  -2511178.97447  20150035.875    20150034.843    20150043.100
       242.000         204.000
 -19254979.70649 -14979852.79447  20224946.386    20224944.830    20224953.626
       240.000         200.000
  -6923674.00049  -5380027.20245  23709381.653    23709379.867    23709392.738
       213.000         155.000
   6865652.34149   5343274.22845  22891206.525    22891204.288    22891216.385
       220.000         162.000
  -5128978.78749  -3683073.42845  23547672.312    23547670.866    23547691.748
       208.000         139.000
   -894016.57449   -683553.66647  21236323.381    21236321.709    21236331.906
       242.000         200.000
  -8592271.66649  -6666397.60546  22931960.845    22931959.995    22931970.673
       223.000         164.000
 00  5 22 16 31 59.9970000  0  8G24G 4G 5G16G 7G10G 9G30
 -16493401.98749 -12830675.38247  19420962.403    19420961.066    19420970.474
       235.000         198.000
  -3201685.44749  -2483189.75747  20156871.253    20156870.201    20156878.434
       243.000         204.000
 -19337122.00949 -15043859.78347  20209315.264    20209313.681    20209322.458
       241.000         201.000
  -6914822.61149  -5373130.02145  23711066.035    23711064.226    23711077.116
       214.000         155.000
   6910016.97149   5377843.94046  22899648.986    22899646.735    22899658.785
       222.000         165.000
  -5252315.38749  -3779179.80045  23524202.044    23524200.542    23524221.300
       209.000         140.000
   -849867.83249   -649152.18547  21244724.757    21244723.059    21244733.261
       243.000         200.000
  -8714732.29049  -6761821.39646  22908657.294    22908656.500    22908667.161
       223.000         167.000
 00  5 22 16 32 29.9970000  0  8G24G 4G 5G16G 7G10G 9G30
 -16532309.10449 -12860992.58147  19413558.501    19413557.250    19413566.684
       234.000         198.000
  -3165356.37049  -2454881.48647  20163784.598    20163783.476    20163791.683
       242.000         203.000
 -19418971.38549 -15107638.51347  20193739.798    20193738.291    20193747.029
       240.000         201.000
  -6905462.40649  -5365836.34845  23712847.276    23712845.444    23712858.387
       212.000         156.000
   6954396.61949   5412425.33345  22908094.347    22908092.031    22908104.094
       220.000         162.000
  -5375707.32649  -3875329.28745  23500721.111    23500719.685    23500740.354
       208.000         137.000
   -805363.47749   -614473.60347  21253193.781    21253192.070    21253202.258
       242.000         199.000
  -8837147.57549  -6857209.89046  22885362.332    22885361.580    22885372.329
       221.000         165.000
 00  5 22 16 32 59.9970000  0  8G24G 4G 5G16G 7G10G 9G30
 -16570690.02449 -12890899.75347  19406254.758    19406253.560    19406263.052
       234.000         197.000
  -3128605.39649  -2426244.45847  20170778.147    20170777.031    20170785.243
       243.000         203.000
 -19500510.81549 -15171175.73747  20178223.416    20178221.863    20178230.578
       241.000         201.000
  -6895579.43249  -5358135.35445  23714727.847    23714726.182    23714739.031
       214.000         154.000
   6998806.08949   5447029.95046  22916545.165    22916542.945    22916555.071
       220.000         165.000
  -5499136.85849  -3971508.05345  23477233.199    23477231.650    23477252.172
       210.000         137.000
   -760491.26649   -579508.38047  21261732.744    21261731.058    21261741.248
       242.000         198.000
  -8959501.15049  -6952550.28246  22862079.085    22862078.347    22862089.206
       220.000         165.000
 00  5 22 16 33 29.9970000  0  8G24G 4G 5G16G 7G10G 9G30
 -16608563.80949 -12920411.76447  19399047.612    19399046.397    19399055.879
       234.000         198.000
  -3091453.59649  -2397295.09347  20177848.052    20177846.876    20177855.079
       242.000         203.000
 -19581757.07349 -15234484.50647  20162762.784    20162761.231    20162769.906
       240.000         201.000
  -6885193.11449  -5350042.16645  23716704.295    23716702.694    23716715.511
       212.000         149.000
   7043226.72049   5481643.28346  22924998.389    22924996.069    22925008.201
       220.000         163.000
  -5622619.88149  -4067728.53645  23453735.058    23453733.551    23453753.904
       207.000         139.000
   -715272.36649   -544273.01047  21270337.726    21270336.032    21270346.226
       242.000         198.000
  -9081809.33349  -7047855.29246  22838804.457    22838803.804    22838814.647
       221.000         163.000
 00  5 22 16 33 59.9970000  0  8G24G 4G 5G16G 7G10G 9G30
 -16645914.41749 -12949516.11247  19391939.992    19391938.790    19391948.246
       233.000         198.000
  -3053887.18149  -2368022.63847  20184996.814    20184995.613    20185003.822
       242.000         203.000
 -19662691.52849 -15297550.32247  20147361.492    20147359.932    20147368.564
       241.000         201.000
  -6874287.61049  -5341544.41145  23718779.585    23718777.974    23718790.758
       213.000         152.000
   7087674.78749   5516277.97446  22933456.768    22933454.441    22933466.635
       220.000         164.000
  -5746136.88449  -4163975.50045  23430230.431    23430228.954    23430249.303
       208.000         143.000
   -669693.01149   -508756.76947  21279011.256    21279009.593    21279019.815
       242.000         198.000
  -9204054.21649  -7143110.97946  22815541.929    22815541.284    22815552.148
       224.000         165.000
 00  5 22 16 34 29.9970000  0  8G24G 4G 5G16G 7G10G 9G30
 -16682763.62549 -12978229.75647  19384927.786    19384926.591    19384936.035
       234.000         198.000
  -3015929.77649  -2338445.50447  20192219.929    20192218.731    20192226.971
       242.000         203.000
 -19743333.81949 -15360388.47147  20132015.810    20132014.229    20132022.822
       241.000         201.000
  -6862885.46649  -5332659.68045  23720949.442    23720947.768    23720960.530
       211.000         150.000
   7132128.92249   5550917.41246  22941916.174    22941913.889    22941926.151
       220.000         164.000
  -5869706.09149  -4260263.11545  23406715.929    23406714.498    23406734.908
       211.000         143.000
   -623777.37149   -472978.49247  21287748.750    21287747.149    21287757.386
       240.000         197.000
  -9326255.30349  -7238332.54446  22792287.850    22792287.120    22792298.027
       224.000         167.000
 00  5 22 16 34 59.9970000  0  8G24G 4G 5G16G 7G10G 9G30
 -16719099.55749 -13006543.45047  19378013.375    19378012.101    19378021.516
       234.000         199.000
  -2977572.18749  -2308556.53547  20199519.193    20199518.016    20199526.257
       243.000         203.000
 -19823669.97449 -15422988.07647  20116728.327    20116726.771    20116735.336
       240.000         201.000
  -6850975.57549  -5323379.31845  23723215.782    23723214.139    23723226.910
       211.000         150.000
   7176600.86049   5585570.69046  22950379.018    22950376.714    22950389.124
       219.000         163.000
  -5993312.95349  -4356580.12645  23383194.357    23383192.842    23383213.218
       209.000         143.000
   -577516.08449   -436930.88747  21296551.968    21296550.468    21296560.739
       240.000         197.000
  -9448398.55749  -7333509.04446  22769044.648    22769043.986    22769054.934
       225.000         167.000
 00  5 22 16 35 29.9970000  0  8G24G 4G 5G16G 7G10G 9G30
 -16754905.25349 -13034443.98247  19371199.773    19371198.511    19371207.934
       234.000         199.000
  -2938798.88649  -2278343.61947  20206897.648    20206896.429    20206904.631
       243.000         203.000
 -19903679.73749 -15485333.34947  20101502.975    20101501.431    20101509.982
       241.000         201.000
  -6838540.76849  -5313689.93945  23725582.270    23725580.434    23725593.156
       212.000         150.000
   7221108.29649   5620251.65246  22958848.560    22958846.311    22958858.805
       218.000         165.000
  -6116936.58049  -4452910.10745  23359669.737    23359668.044    23359688.423
       210.000         147.000
   -530894.04749   -400602.17147  21305423.941    21305422.458    21305432.753
       241.000         197.000
  -9570464.42449  -7428625.24146  22745816.255    22745815.582    22745826.523
       225.000         167.000
 00  5 22 16 35 59.9970000  0  8G24G 4G 5G16G 7G10G 9G30
 -16790184.59549 -13061934.37047  19364486.299    19364485.054    19364494.509
       234.000         198.000
  -2899616.28049  -2247811.75847  20214353.891    20214352.696    20214360.885
       242.000         204.000
 -19983365.03549 -15547425.79147  20086339.438    20086337.846    20086346.368
       241.000         201.000
  -6825585.83149  -5303595.20045  23728047.597    23728045.742    23728058.507
       211.000         153.000
   7265647.56049   5654957.38146  22967324.108    22967321.922    22967334.529
       219.000         164.000
  -6240577.39249  -4549253.50445  23336141.540    23336139.942    23336160.307
       211.000         143.000
   -483917.61249   -363997.30747  21314363.382    21314361.878    21314372.213
       240.000         196.000
  -9692454.28049  -7523682.20946  22722602.523    22722601.716    22722612.536
       224.000         167.000
 00  5 22 16 36 29.9970000  0  8G24G 4G 5G16G 7G10G 9G30
 -16824949.57149 -13089023.95747  19357870.699    19357869.475    19357878.925
       233.000         197.000
  -2860038.28449  -2216971.80247  20221885.379    20221884.197    20221892.425
       243.000         204.000
 -20062735.65949 -15609273.03447  20071235.681    20071234.116    20071242.640
       241.000         201.000
  -6812123.37449  -5293104.99245  23730609.350    23730607.593    23730620.442
       212.000         153.000
   7310206.95549   5689678.81546  22975803.724    22975801.414    22975814.059
       221.000         166.000
  -6364244.00349  -4645616.98445  23312608.666    23312606.936    23312627.377
       212.000         149.000
   -436601.01849   -327127.38447  21323367.520    21323366.031    21323376.381
       240.000         196.000
  -9814378.12449  -7618687.75146  22699401.273    22699400.424    22699411.168
       227.000         169.000
 00  5 22 16 36 59.9970000  0  8G24G 4G 5G16G 7G10G 9G30
 -16859199.90149 -13115712.52847  19351353.098    19351351.854    19351361.286
       233.000         198.000
  -2820066.73849  -2185825.16547  20229491.826    20229490.611    20229498.844
       243.000         204.000
 -20141788.75049 -15670872.85047  20056192.417    20056190.821    20056199.319
       240.000         201.000
  -6798153.30549  -5282219.28145  23733267.761    23733266.094    23733278.932
       207.000         149.000
   7354787.23849   5724416.52646  22984287.169    22984284.924    22984297.615
       220.000         163.000
  -6487932.72349  -4741997.66645  23289071.550    23289069.742    23289090.249
       211.000         147.000
   -388946.17049   -289993.87647  21332436.180    21332434.583    21332444.919
       240.000         196.000
  -9936233.16449  -7713639.65846  22676213.032    22676212.169    22676222.914
       227.000         169.000
 00  5 22 16 37 29.9970000  0  8G24G 4G 5G16G 7G10G 9G30
 -16892920.23249 -13141988.11547  19344936.312    19344935.079    19344944.498
       235.000         198.000
  -2779688.24949  -2154361.42747  20237175.694    20237174.465    20237182.683
       243.000         205.000
 -20220506.15349 -15732211.09147  20041212.966    20041211.408    20041219.911
       240.000         200.000
  -6783660.84749  -5270926.46845  23736025.529    23736023.985    23736036.837
       210.000         152.000
   7399404.25549   5759182.85846  22992777.630    22992775.388    22992788.146
       222.000         167.000
  -6611624.71949  -4838380.88645  23265533.557    23265531.851    23265552.326
       212.000         144.000
   -340939.83049   -252586.47347  21341571.636    21341570.019    21341580.322
       239.000         195.000
 -10058001.43849  -7808523.96846  22653041.357    22653040.455    22653051.099
       228.000         168.000
 00  5 22 16 37 59.9970000  0  8G24G 4G 5G16G 7G10G 9G30
 -16926123.12949 -13167860.50947  19338618.044    19338616.788    19338626.177
       233.000         198.000
  -2738917.43349  -2122591.96647  20244934.199    20244932.970    20244941.193
       244.000         205.000
 -20298898.03949 -15793295.68347  20026295.506    20026293.916    20026302.449
       240.000         200.000
  -6768659.15849  -5259236.84145  23738880.476    23738878.767    23738891.541
       211.000         149.000
   7444045.91549   5793968.39746  23001272.761    23001270.535    23001283.389
       220.000         163.000
  -6735328.98949  -4934773.65545  23241993.330    23241991.604    23242012.061
       215.000         147.000
   -292596.77749   -214916.71347  21350771.086    21350769.508    21350779.806
       239.000         195.000
 -10179693.32449  -7903348.74946  22629884.135    22629883.215    22629893.828
       224.000         166.000
 00  5 22 16 38 29.9970000  0  8G24G 4G 5G16G 7G10G 9G30
 -16958809.10049 -13193330.10847  19332398.186    19332396.887    19332406.249
       234.000         198.000
  -2697756.81949  -2090518.76847  20252766.884    20252765.642    20252773.869
       243.000         205.000
 -20376962.31349 -15854124.99647  20011440.372    20011438.774    20011447.319
       240.000         200.000
  -6753149.19449  -5247151.09045  23741831.746    23741830.180    23741843.066
       212.000         154.000
   7488711.95649   5828772.92546  23009772.531    23009770.369    23009783.243
       220.000         163.000
  -6859042.28349  -5031173.42945  23218451.490    23218449.724    23218470.060
       213.000         149.000
   -243919.81449   -176986.75047  21360034.142    21360032.560    21360042.857
       239.000         195.000
 -10301306.52849  -7998112.25346  22606741.765    22606740.951    22606751.486
       227.000         167.000
 00  5 22 16 38 59.9970000  0  8G24G 4G 5G16G 7G10G 9G30
 -16990988.38249 -13218404.87447  19326274.728    19326273.392    19326282.744
       234.000         198.000
  -2656218.70949  -2058151.39947  20260671.323    20260670.130    20260678.381
       243.000         205.000
 -20454706.71849 -15914705.05447  19996646.109    19996644.517    19996653.062
       240.000         200.000
  -6737141.62749  -5234677.68345  23744878.049    23744876.316    23744889.240
       211.000         150.000
   7533392.87149   5863589.08145  23018275.283    23018273.003    23018285.809
       221.000         160.000
  -6982771.45349  -5127585.53945  23194906.529    23194904.795    23194925.095
       214.000         147.000
   -194921.28749   -138806.21247  21369358.389    21369356.802    21369367.102
       239.000         195.000
 -10422848.88349  -8092820.50846  22583612.871    22583612.132    22583622.608
       226.000         166.000
 00  5 22 16 39 29.9970000  0  8G24G 4G 5G16G 7G10G 9G30
 -17022649.27349 -13243075.70447  19320249.928    19320248.578    19320257.888
       235.000         198.000
  -2614293.32049  -2025482.26147  20268649.493    20268648.322    20268656.584
       243.000         205.000
 -20532116.97149 -15975024.74347  19981915.481    19981913.868    19981922.417
       240.000         200.000
  -6720625.21649  -5221807.74745  23748020.895    23748019.267    23748032.162
       212.000         149.000
   7578100.81049   5898426.24646  23026783.119    23026780.823    23026793.664
       218.000         165.000
  -7106501.08549  -5223997.95245  23171361.564    23171359.707    23171380.182
       216.000         153.000
   -145591.66749   -100367.69447  21378745.662    21378744.017    21378754.358
       239.000         194.000
 -10544306.02349  -8187462.36746  22560500.279    22560499.530    22560509.995
       226.000         166.000
 00  5 22 16 39 59.9970000  0  8G24G 4G 5G16G 7G10G 9G30
 -17053800.82249 -13267349.64647  19314322.129    19314320.707    19314329.943
       234.000         198.000
  -2571991.69449  -1992519.94547  20276699.288    20276698.096    20276706.363
       244.000         205.000
 -20609199.45949 -16035089.01947  19967247.306    19967245.610    19967254.120
       241.000         201.000
  -6703609.87149  -5208549.02145  23751258.817    23751257.205    23751270.095
       211.000         151.000
   7622827.31749   5933277.86545  23035294.469    23035292.158    23035305.047
       220.000         162.000
  -7230236.94949  -5320415.25745  23147815.287    23147813.518    23147833.891
       215.000         152.000
    -95942.36049    -61680.05047  21388193.760    21388192.076    21388202.452
       239.000         193.000
 -10665684.78249  -8282043.16546  22537402.673    22537401.890    22537412.322
       227.000         168.000
 00  5 22 16 40 29.9970000  0  8G24G 4G 5G16G 7G10G 9G30
 -17084424.98049 -13291212.64047  19308494.571    19308493.147    19308502.347
       234.000         197.000
  -2529297.65149  -1959251.85747  20284823.717    20284822.543    20284830.816
       244.000         205.000
 -20685933.45149 -16094881.75047  19952645.376    19952643.659    19952652.136
       241.000         201.000
  -6686077.55549  -5194887.52245  23754595.148    23754593.481    23754606.426
       210.000         151.000
   7667591.07249   5968158.49645  23043812.890    23043810.523    23043823.441
       220.000         161.000
  -7353957.02449  -5416820.18345  23124272.059    23124270.267    23124290.623
       215.000         150.000
    -45957.23749    -22730.73747  21397705.738    21397704.053    21397714.437
       239.000         193.000
 -10786964.13049  -8376546.50646  22514323.907    22514323.150    22514333.575
       226.000         168.000
 00  5 22 16 40 59.9970000  0  8G24G 4G 5G16G 7G10G 9G30
 -17114548.54049 -13314685.54947  19302762.217    19302760.830    19302770.013
       234.000         196.000
  -2486240.05549  -1925700.48047  20293017.279    20293016.154    20293024.449
       243.000         205.000
 -20762343.25049 -16154421.85747  19938105.159    19938103.407    19938111.848
       241.000         201.000
  -6668056.05949  -5180844.73345  23758024.644    23758022.934    23758035.810
       211.000         148.000
   7712365.73049   6003047.64945  23052333.267    23052331.011    23052343.850
       218.000         159.000
  -7477684.37249  -5513230.77145  23100727.329    23100725.643    23100745.969
       214.000         151.000
      4334.68049     16457.63847  21407276.169    21407274.418    21407284.822
       238.000         193.000
 -10908168.26849  -8470991.21846  22491259.538    22491258.767    22491269.132
       227.000         170.000
 00  5 22 16 41 29.9970000  0  8G24G 4G 5G16G 7G10G 9G30
 -17144150.04549 -13337751.66547  19297129.244    19297127.841    19297137.052
       233.000         197.000
  -2442799.18349  -1891850.44847  20301283.768    20301282.692    20301290.982
       242.000         204.000
 -20838404.75949 -16213690.57047  19923631.190    19923629.425    19923637.840
       241.000         201.000
  -6649524.14749  -5166404.33145  23761551.245    23761549.480    23761562.272
       206.000         146.000
   7757173.34849   6037962.48545  23060860.117    23060857.804    23060870.592
       220.000         162.000
  -7601394.00849  -5609627.52945  23077186.231    23077184.397    23077204.666
       214.000         151.000
     54952.69449     55900.11147  21416908.597    21416906.825    21416917.261
       238.000         193.000
 -11029273.23149  -8565358.65846  22468214.177    22468213.297    22468223.584
       227.000         170.000
 00  5 22 16 41 59.9970000  0  8G24G 4G 5G16G 7G10G 9G30
 -17173226.67449 -13360408.78147  19291596.107    19291594.740    19291603.971
       233.000         197.000
  -2398974.17049  -1857701.08547  20309623.337    20309622.327    20309630.612
       242.000         204.000
 -20914112.22649 -16272683.41147  19909224.567    19909222.812    19909231.176
       241.000         200.000
  -6630479.47349  -5151564.36645  23765175.251    23765173.519    23765186.357
       214.000         153.000
   7802017.63749   6072905.88345  23069393.861    23069391.519    23069404.268
       215.000         158.000
  -7725079.37449  -5706005.34545  23053649.344    23053647.652    23053668.027
       212.000         149.000
    105897.49449     95597.22147  21426603.209    21426601.433    21426611.881
       239.000         194.000
 -11150273.38349  -8659644.42246  22445188.539    22445187.725    22445197.941
       228.000         170.000
 00  5 22 16 42 29.9970000  0  8G24G 4G 5G16G 7G10G 9G30
 -17201784.96649 -13382662.00447  19286161.679    19286160.310    19286169.523
       233.000         197.000
  -2354773.53549  -1823259.03747  20318034.473    20318033.443    20318041.732
       242.000         203.000
 -20989469.65749 -16331403.50247  19894884.517    19894882.788    19894891.134
       241.000         200.000
  -6610929.31149  -5136330.44245  23768895.590    23768893.855    23768906.639
       209.000         149.000
   7846892.46949   6107873.07145  23077933.458    23077931.041    23077943.785
       220.000         160.000
  -7848743.34149  -5802366.53145  23030116.689    23030115.027    23030135.207
       212.000         148.000
    157160.48849    135542.26447  21436358.373    21436356.591    21436367.052
       238.000         193.000
 -11271172.68949  -8753851.60946  22422182.250    22422181.317    22422191.524
       227.000         171.000
 00  5 22 16 42 59.9970000  0  8G24G 4G 5G16G 7G10G 9G30
 -17229830.39449 -13404515.58547  19280824.764    19280823.417    19280832.667
       232.000         196.000
  -2310204.67649  -1788530.06447  20326515.651    20326514.615    20326522.914
       242.000         203.000
 -21064479.80849 -16389852.97847  19880610.624    19880608.857    19880617.156
       241.000         200.000
  -6590879.41949  -5120707.19245  23772711.151    23772709.296    23772722.095
       201.000         135.000
   7891793.20249   6142860.42945  23086477.820    23086475.500    23086488.325
       216.000         160.000
  -7972387.57249  -5898712.27745  23006587.679    23006586.043    23006606.235
       212.000         151.000
    208734.09449    175729.34347  21446172.636    21446170.858    21446181.324
       238.000         194.000
 -11391973.68949  -8847982.20546  22399194.743    22399193.680    22399203.773
       229.000         172.000
 00  5 22 16 43 29.9970000  0  9G24G 6G 4G 5G16G 7G10G 9G30
 -17257352.75349 -13425961.57847  19275587.355    19275586.042    19275595.369
       232.000         196.000
   -158655.55155                  24153452.976
       218.000         138.000
  -2265259.05249  -1753507.51547  20335068.544    20335067.500    20335075.784
       243.000         203.000
 -21139129.67149 -16448021.71747  19866405.196    19866403.476    19866411.723
       240.000         200.000
  -6570320.11248  -5104686.92044  23776623.520    23776621.683    23776634.271
       188.000         112.000
   7936730.77449   6177876.53145  23095029.301    23095026.992    23095039.919
       217.000         160.000
  -8095997.54549  -5995031.33245  22983065.169    22983063.638    22983083.821
       211.000         151.000
    260626.49449    216164.83447  21456047.497    21456045.761    21456056.265
       238.000         193.000
 -11512663.41649  -8942026.07846  22376228.178    22376227.187    22376237.217
       228.000         170.000
 00  5 22 16 43 59.9970000  0  9G24G 6G 4G 5G16G 7G10G 9G30
 -17284376.61249 -13447019.13347  19270444.895    19270443.577    19270452.938
       233.000         197.000
   -322882.81849   -235615.22845  24134658.593    24134655.975    24134671.716
       215.000         144.000
  -2219963.23349  -1718212.09647  20343688.124    20343687.029    20343695.289
       242.000         202.000
 -21213441.16949 -16505926.78547  19852264.125    19852262.474    19852270.715
       241.000         201.000
                  -5088289.40654  23780627.891
       180.000          97.000
   7981681.32549   6212902.67245  23103583.330    23103580.917    23103593.987
       219.000         159.000
  -8219594.44249  -6091340.20845  22959545.119    22959543.664    22959563.775
       213.000         151.000
    312811.09249    256828.01047  21465978.000    21465976.275    21465986.814
       238.000         193.000
 -11633263.75749  -9036000.30246  22353278.623    22353277.683    22353287.666
       229.000         172.000
 00  5 22 16 44 29.9960000  0  9G24G 6G 4G 5G16G 7G10G 9G30
 -17310876.28449 -13467668.22747  19265402.274    19265400.887    19265410.206
       232.000         196.000
   -421606.24659   -312542.61255  24115872.187    24115870.748    24115885.435
       213.000         145.000
  -2174295.70549  -1682627.03147  20352378.307    20352377.285    20352385.525
       242.000         202.000
 -21287384.51449 -16563544.97947  19838193.194    19838191.544    19838199.779
       241.000         201.000
                  -5071495.96953  23784728.883
       165.000          90.000
   8026668.85449   6247957.66845  23112144.337    23112141.898    23112154.986
       218.000         157.000
  -8343145.33249  -6187613.20845  22936033.628    22936032.409    22936052.479
       213.000         151.000
    365309.00349    297735.31847  21475968.108    21475966.401    21475977.007
       238.000         193.000
 -11753743.09949  -9129880.25246  22330352.248    22330351.223    22330361.128
       231.000         172.000
 00  5 22 16 44 59.9960000  0  8G24G 6G 4G 5G 7G10G 9G30
 -17336860.72649 -13487915.84147  19260457.599    19260456.246    19260465.510
       232.000         196.000
   -520301.11149   -389447.60545  24097091.166    24097090.004    24097103.875
       219.000         144.000
  -2128262.27249  -1646756.84847  20361138.237    20361137.173    20361145.436
       243.000         202.000
 -21360968.74149 -16620883.34247  19824190.598    19824188.943    19824197.194
       240.000         201.000
   8071690.25949   6283039.07345  23120711.803    23120709.363    23120722.502
       218.000         158.000
  -8466661.65249  -6283859.28745  22912528.957    22912527.800    22912547.833
       215.000         151.000
    418114.47949    338882.29147  21486016.785    21486015.076    21486025.717
       238.000         193.000
 -11874113.51149  -9223675.31446  22307446.545    22307445.495    22307455.337
       231.000         173.000
 00  5 22 16 45 29.9960000  0  8G24G 6G 4G 5G 7G10G 9G30
 -17362326.99649 -13507759.68247  19255611.515    19255610.176    19255619.444
       233.000         196.000
   -618961.36849   -466325.66745  24078316.854    24078315.429    24078329.581
       219.000         146.000
  -2081864.33249  -1610602.64447  20369967.444    20369966.418    20369974.687
       243.000         201.000
 -21434186.67049 -16677936.28147  19810257.720    19810256.045    19810264.301
       241.000         201.000
   8116746.65749   6318147.74945  23129285.820    23129283.463    23129296.523
       217.000         156.000
  -8590133.42749  -6380070.65145  22889032.836    22889031.676    22889051.573
       214.000         151.000
    471225.55349    380267.39247  21496123.606    21496121.895    21496132.563
       238.000         193.000
 -11994366.11149  -9317378.58046  22284563.148    22284562.149    22284571.946
       231.000         171.000
 00  5 22 16 45 59.9960000  0  8G24G 6G 4G 5G 7G10G 9G30
 -17387279.43549 -13527203.14247  19250863.165    19250861.883    19250871.127
       232.000         196.000
   -717590.59149   -543179.56445  24059548.217    24059546.913    24059561.090
       217.000         148.000
  -2035108.07849  -1574169.24447  20378864.891    20378863.860    20378872.116
       243.000         201.000
 -21507039.76549 -16734704.93347  19796394.267    19796392.560    19796400.837
       241.000         202.000
   8161834.54649   6353280.94645  23137865.955    23137863.563    23137876.717
       218.000         158.000
  -8713561.04149  -6476247.60045  22865545.195    22865543.966    22865563.704
       214.000         152.000
    524636.07849    421885.82747  21506287.438    21506285.715    21506296.380
       238.000         192.000
 -12114502.46649  -9410991.28046  22261701.948    22261700.967    22261710.609
       232.000         170.000
 00  5 22 16 46 29.9960000  0  8G24G 6G 4G 5G 7G10G 9G30
 -17411710.72149 -13546240.50847  19246214.086    19246212.783    19246222.009
       232.000         196.000
   -816180.90849   -620003.10945  24040787.091    24040785.712    24040800.085
       219.000         150.000
  -1987987.77749  -1537452.17147  20387831.625    20387830.576    20387838.811
       241.000         200.000
 -21579517.81449 -16791181.34347  19782602.114    19782600.463    19782608.748
       242.000         202.000
   8206962.16249   6388445.14745  23146453.648    23146451.280    23146464.352
       218.000         158.000
  -8836933.15949  -6572381.32045  22842067.911    22842066.730    22842086.314
       216.000         151.000
    578351.41749    463741.78947  21516509.359    21516507.545    21516518.212
       238.000         193.000
 -12234512.04049  -9504505.18446  22238864.830    22238863.915    22238873.451
       232.000         172.000
 00  5 22 16 46 59.9960000  0  8G24G 6G 4G 5G 7G10G 9G30
 -17435630.88449 -13564879.58547  19241662.233    19241660.904    19241670.186
       232.000         196.000
   -914741.55049   -696803.49845  24022031.710    24022030.200    24022044.685
       219.000         147.000
  -1940515.42649  -1500460.78247  20396865.314    20396864.276    20396872.506
       242.000         199.000
 -21651628.07749 -16847371.16847  19768880.000    19768878.348    19768886.630
       241.000         202.000
   8252120.24149   6423633.03345  23155047.053    23155044.754    23155057.971
       214.000         157.000
  -8960255.92749  -6668476.62545  22818600.095    22818598.932    22818618.337
       211.000         151.000
    632359.52349    505825.87247  21526786.915    21526785.084    21526795.792
       238.000         193.000
 -12354401.97049  -9597925.84846  22216050.545    22216049.642    22216059.125
       233.000         173.000
 00  5 22 16 47 29.9960000  0  8G24G 6G 4G 5G 7G10G 9G30
 -17459051.77449 -13583129.62147  19237205.373    19237204.073    19237213.353
       232.000         196.000
  -1013283.54549   -773589.38645  24003279.754    24003278.303    24003292.779
       219.000         148.000
  -1892704.34949  -1463205.45547  20405963.525    20405962.459    20405970.641
       242.000         199.000
 -21723379.69349 -16903281.52947  19755226.106    19755224.471    19755232.800
       241.000         202.000
   8297297.97649   6458836.24345  23163644.399    23163641.988    23163655.155
       215.000         157.000
  -9083537.08549  -6764539.49145  22795140.106    22795139.017    22795158.398
       216.000         153.000
    686646.37349    548127.16347  21537117.525    21537115.682    21537126.408
       238.000         193.000
 -12474181.13049  -9691260.20446  22193257.356    22193256.416    22193265.882
       231.000         173.000
 00  5 22 16 47 59.9960000  0  8G24G 6G 4G 5G 7G10G 9G30
 -17481962.08849 -13600981.81447  19232845.727    19232844.392    19232853.655
       232.000         196.000
  -1111794.88349   -850351.34345  23984533.590    23984532.195    23984546.698
       217.000         147.000
  -1844545.16049  -1425678.88247  20415127.927    20415126.882    20415135.026
       242.000         199.000
 -21794758.59249 -16958901.46847  19741643.185    19741641.535    19741649.875
       242.000         202.000
   8342507.53849   6494064.27545  23172247.802    23172245.278    23172258.466
       215.000         158.000
  -9206761.38749  -6860558.05645  22771691.032    22771689.900    22771709.296
       215.000         151.000
    741221.32149    590652.95047  21547502.877    21547501.095    21547511.838
       238.000         192.000
 -12593835.25349  -9784497.12846  22170487.864    22170486.974    22170496.397
       231.000         173.000
 00  5 22 16 48 29.9960000  0  8G24G 6G 4G 5G 7G10G 9G30
 -17504337.48949 -13618417.18047  19228587.777    19228586.476    19228595.735
       232.000         196.000
  -1210250.34849   -927069.78645  23965798.047    23965796.722    23965811.268
       216.000         151.000
  -1796015.04849  -1387863.27647  20424362.961    20424361.890    20424370.014
       243.000         200.000
 -21865737.37049 -17014209.61447  19728136.359    19728134.713    19728143.095
       241.000         202.000
   8387774.35849   6529336.89645  23180861.994    23180859.453    23180872.657
       214.000         154.000
  -9329900.33349  -6956510.13545  22748258.003    22748257.050    22748276.358
       214.000         152.000
    796107.35149    633421.14547  21557947.444    21557945.687    21557956.436
       238.000         192.000
 -12713336.85149  -9877615.19546  22147747.513    22147746.527    22147755.924
       232.000         175.000
 00  5 22 16 48 59.9960000  0  8G24G 6G 4G 5G 7G10G 9G30
 -17526199.28149 -13635452.33347  19224427.663    19224426.346    19224435.563
       233.000         196.000
  -1308670.57849  -1003760.75245  23947069.235    23947067.972    23947082.425
       217.000         154.000
  -1747137.11749  -1349776.64847  20433664.189    20433663.104    20433671.195
       243.000         200.000
 -21936334.56849 -17069220.42947  19714702.068    19714700.510    19714708.927
       241.000         202.000
   8433077.96449   6564638.18745  23189482.885    23189480.569    23189493.760
       211.000         151.000
  -9452971.28349  -7052409.24045  22724838.295    22724837.191    22724856.407
       216.000         153.000
    851280.82049    676413.31147  21568446.634    21568444.942    21568455.773
       237.000         192.000
 -12832704.45149  -9970628.84446  22125032.561    22125031.589    22125040.997
       231.000         176.000
 00  5 22 16 49 29.9960000  0  8G24G 6G 4G 5G 7G10G 9G30
 -17547560.32649 -13652097.29147  19220362.782    19220361.460    19220370.677
       231.000         195.000
  -1407067.44649  -1080433.51245  23928344.839    23928343.621    23928358.129
       213.000         148.000
  -1697925.75249  -1311430.21347  20443028.826    20443027.762    20443035.848
       242.000         200.000
 -22006559.89849 -17123941.47447  19701338.676    19701337.104    19701345.499
       242.000         202.000
   8478406.50649   6599958.92945  23198108.840    23198106.486    23198119.673
       215.000         156.000
  -9575982.69049  -7148261.92945  22701429.691    22701428.569    22701447.850
       216.000         154.000
    906726.89649    719617.88747  21578997.744    21578996.059    21579006.996
       238.000         192.000
 -12951947.44549 -10063545.38646  22102341.269    22102340.351    22102349.789
       231.000         177.000
 00  5 22 16 49 59.9960000  0  8G24G 6G 4G 5G 7G10G 9G30
 -17568408.83049 -13668342.86247  19216395.423    19216394.112    19216403.324
       233.000         195.000
  -1505428.42149  -1157078.27045  23909627.291    23909626.062    23909640.605
       213.000         146.000
  -1648370.81349  -1272816.05747  20452458.896    20452457.810    20452465.899
       242.000         201.000
 -22076398.79049 -17178361.39947  19688048.804    19688047.218    19688055.618
       241.000         202.000
   8523772.81549   6635309.08745  23206741.903    23206739.573    23206752.795
       215.000         156.000
  -9698918.74049  -7244055.92545  22678035.527    22678034.382    22678053.512
       215.000         155.000
    962455.72949    763042.79747  21589602.652    21589600.993    21589611.988
       238.000         192.000
 -13071050.84049 -10156353.15746  22079676.503    22079675.657    22079685.150
       231.000         176.000
 00  5 22 16 50 29.9960000  0  8G24G 6G 4G 5G 7G10G 9G30
 -17588749.04249 -13684192.36047  19212524.814    19212523.498    19212532.706
       232.000         195.000
  -1603756.99049  -1233697.85345  23890915.942    23890914.734    23890929.208
       217.000         147.000
  -1598478.29049  -1233938.85047  20461953.159    20461952.072    20461960.215
       241.000         200.000
 -22145852.73749 -17232481.37347  19674832.154    19674830.568    19674838.976
       241.000         201.000
   8569173.60749   6670686.13745  23215381.668    23215379.252    23215392.504
       217.000         162.000
  -9821779.67249  -7339791.40145  22654655.662    22654654.491    22654673.493
       219.000         155.000
   1018460.78649    806682.94947  21600260.074    21600258.481    21600269.519
       236.000         191.000
 -13190015.96449 -10249053.20146  22057038.080    22057037.291    22057046.778
       231.000         178.000
 00  5 22 16 50 59.9960000  0  8G24G 6G 4G 5G 7G10G 9G30
 -17608549.39749 -13699621.19247  19208756.879    19208755.590    19208764.824
       231.000         196.000
  -1702020.47849  -1310266.70045  23872216.888    23872215.797    23872230.191
       213.000         146.000
  -1548218.16849  -1194775.20747  20471517.354    20471516.305    20471524.488
       242.000         200.000
 -22214887.10149 -17286274.39547  19661695.346    19661693.760    19661702.163
       241.000         201.000
   8614641.53349   6706115.44246  23224033.989    23224031.650    23224045.129
       219.000         164.000
  -9944529.47549  -7435440.25645  22631296.766    22631295.653    22631314.574
       217.000         156.000
   1074772.21749    850561.82647  21610975.791    21610974.255    21610985.382
       236.000         191.000
 -13308808.03749 -10341618.38746  22034432.592    22034431.848    22034441.370
       231.000         178.000
 00  5 22 16 51 29.9960000  0  8G24G 6G 4G 5G 7G10G 9G30
 -17627837.60049 -13714650.93947  19205086.397    19205085.154    19205094.411
       232.000         196.000
  -1800245.77249  -1386805.72245  23853525.123    23853524.040    23853538.532
       214.000         151.000
  -1497619.75349  -1155347.95147  20481145.973    20481144.911    20481153.144
       242.000         200.000
 -22283526.74649 -17339759.83747  19648633.656    19648632.073    19648640.496
       241.000         201.000
   8660149.91149   6741576.32546  23232694.180    23232691.794    23232705.333
       216.000         164.000
 -10067191.61549  -7531020.83445  22607954.796    22607953.627    22607972.367
       215.000         156.000
   1131360.36049    894656.32447  21621744.281    21621742.700    21621753.924
       236.000         192.000
 -13427451.63249 -10434067.86346  22011855.294    22011854.615    22011864.219
       231.000         178.000
 00  5 22 16 51 59.9960000  0  8G24G 6G 4G 5G 7G10G 9G30
 -17646624.98349 -13729290.44247  19201511.382    19201510.046    19201519.300
       233.000         196.000
  -1898443.45449  -1463323.26745  23834838.605    23834837.572    23834852.048
       212.000         145.000
  -1446696.02849  -1115667.21947  20490836.494    20490835.423    20490843.681
       241.000         200.000
 -22351780.07249 -17392944.26047  19635645.508    19635643.894    19635652.325
       241.000         201.000
   8705688.53249   6777060.76445  23241359.943    23241357.637    23241371.296
       218.000         161.000
 -10189773.84449  -7626539.12945  22584627.795    22584626.735    22584645.323
       215.000         155.000
   1188211.91549    938956.06847  21632562.866    21632561.302    21632572.583
       238.000         191.000
 -13545954.56449 -10526407.73946  21989304.963    21989304.188    21989313.792
       232.000         178.000
 00  5 22 16 52 29.9960000  0  8G24G 6G 4G 5G 7G10G 9G30
 -17664898.08949 -13743529.21047  19198034.055    19198032.782    19198042.031
       232.000         195.000
  -1996598.70949  -1539807.77745  23816160.129    23816159.109    23816173.528
       215.000         148.000
  -1395434.84649  -1075723.53047  20500591.202    20500590.143    20500598.451
       241.000         200.000
 -22419630.33349 -17445814.60347  19622733.965    19622732.428    19622740.879
       241.000         201.000
   8751272.13649   6812580.24145  23250034.239    23250032.036    23250045.784
       217.000         159.000
 -10312257.75249  -7721980.79645  22561319.850    22561318.633    22561337.055
       218.000         157.000
   1245338.62349    983470.22947  21643433.856    21643432.272    21643443.576
       237.000         191.000
 -13664300.10849 -10618624.97846  21966784.512    21966783.701    21966793.295
       232.000         178.000
 00  5 22 16 52 59.9960000  0  8G24G 6G 4G 5G 7G10G 9G30
 -17682670.37549 -13757377.72447  19194652.100    19194650.822    19194660.054
       232.000         195.000
  -2094724.48349  -1616269.30445  23797487.315    23797486.326    23797500.750
       214.000         150.000
  -1343851.44149  -1035528.75247  20510407.318    20510406.218    20510414.518
       242.000         199.000
 -22487088.25749 -17498379.23247  19609897.210    19609895.643    19609904.095
       241.000         202.000
   8796888.10049   6848124.95545  23258714.882    23258712.632    23258726.440
       216.000         158.000
 -10434652.74249  -7817353.18945  22538028.545    22538027.394    22538045.704
       218.000         158.000
   1302724.93149   1028186.67347  21654354.210    21654352.625    21654363.970
       236.000         191.000
 -13782498.88649 -10710727.85246  21944291.891    21944291.157    21944300.753
       231.000         179.000
 00  5 22 16 53 29.9960000  0  8G24G 6G 4G 5G 7G10G 9G30
 -17699940.85249 -13770835.22947  19191365.649    19191364.360    19191373.581
       233.000         195.000
  -2192818.67649  -1692706.26645  23778820.454    23778819.497    23778833.913
       214.000         152.000
  -1291946.22749   -995083.22147  20520284.647    20520283.508    20520291.795
       241.000         198.000
 -22554149.67949 -17550634.89547  19597135.916    19597134.299    19597142.753
       241.000         202.000
   8842538.85249   6883696.76745  23267402.084    23267399.807    23267413.701
       219.000         161.000
 -10556953.37249  -7912652.04545  22514755.250    22514754.099    22514772.365
       220.000         160.000
   1360370.33149   1073104.99047  21665323.917    21665322.292    21665333.727
       236.000         192.000
 -13900546.11349 -10802712.64546  21921828.091    21921827.438    21921837.050
       232.000         179.000
 00  5 22 16 53 59.9960000  0  8G24G 6G 4G 5G 7G10G 9G30
 -17716707.46449 -13783900.11147  19188175.015    19188173.743    19188182.970
       233.000         195.000
  -2290878.11749  -1769116.06945  23760160.366    23760159.330    23760173.836
       212.000         148.000
  -1239718.71949   -954386.53947  20530223.339    20530222.134    20530230.388
       242.000         198.000
 -22620809.69849 -17602577.76947  19584451.023    19584449.339    19584457.792
       241.000         201.000
   8888227.43849   6919298.04245  23276096.438    23276094.231    23276108.189
       217.000         156.000
 -10679153.35849  -8007872.50345  22491501.420    22491500.083    22491518.183
       220.000         162.000
   1418274.91349   1118225.27147  21676342.886    21676341.271    21676352.800
       236.000         191.000
 -14018436.42049 -10894575.15646  21899394.180    21899393.577    21899403.245
       232.000         180.000
 00  5 22 16 54 29.9960000  0  8G24G 6G 4G 5G 7G10G 9G30
 -17732966.32049 -13796569.33547  19185081.002    19185079.763    19185088.972
       233.000         196.000
  -2388897.88249  -1845495.01445  23741507.685    23741506.685    23741521.204
       216.000         154.000
  -1187166.50949   -913436.85447  20540223.727    20540222.555    20540230.768
       241.000         198.000
 -22687061.40849 -17654202.48147  19571843.744    19571842.059    19571850.489
       241.000         201.000
   8933959.08549   6954932.91145  23284799.159    23284796.875    23284810.762
       218.000         157.000
 -10801244.49149  -8103008.12245  22468268.017    22468266.660    22468284.713
       218.000         160.000
   1476440.97649   1163549.29347  21687411.708    21687410.017    21687421.593
       235.000         190.000
 -14136162.69149 -10986309.85346  21876991.562    21876990.944    21877000.670
       233.000         182.000
 00  5 22 16 54 59.9960000  0  8G24G 6G 4G 5G 7G10G 9G30
 -17748720.62849 -13808845.40747  19182083.109    19182081.838    19182091.017
       233.000         196.000
  -2486880.21149  -1921844.74245  23722862.161    23722861.179    23722875.704
       215.000         152.000
  -1134294.23149   -872237.75247  20550285.040    20550283.891    20550292.068
       242.000         198.000
 -22752904.97249 -17705509.15047  19559314.047    19559312.420    19559320.877
       240.000         201.000
   8979731.76349   6990599.71745  23293509.645    23293507.302    23293521.263
       219.000         160.000
 -10923225.64249  -8198058.05945  22445055.441    22445054.139    22445072.112
       218.000         160.000
   1534863.27949   1209072.99647  21698529.212    21698527.532    21698539.133
       236.000         189.000
 -14253724.83449 -11077916.65646  21854620.304    21854619.567    21854629.293
       234.000         182.000
 00  5 22 16 55 29.9960000  0  8G24G 6G 4G 5G 7G10G 9G30
 -17763959.77049 -13820720.05547  19179183.295    19179181.977    19179191.073
       234.000         196.000
  -2584813.19349  -1998156.08345  23704226.004    23704225.066    23704239.523
       220.000         155.000
  -1081092.49649   -830781.93647  20560409.028    20560407.870    20560416.047
       241.000         198.000
 -22818326.46949 -17756486.93347  19546864.690    19546863.106    19546871.604
       241.000         201.000
   9025557.34049   7026307.78545  23302229.960    23302227.719    23302241.660
       215.000         157.000
 -11045081.80649  -8293010.60245  22421866.881    22421865.494    22421883.349
       220.000         160.000
   1593551.03449   1254803.54347  21709697.178    21709695.549    21709707.168
       235.000         188.000
 -14371108.72249 -11169384.56246  21832282.851    21832282.110    21832291.821
       233.000         182.000
 00  5 22 16 55 59.9960000  0  8G24G 6G 4G 5G 7G10G 9G30
 -17778693.87949 -13832201.17247  19176379.431    19176378.166    19176387.288
       234.000         197.000
  -2682706.24649  -2074436.21845  23685597.502    23685596.548    23685611.019
       216.000         148.000
  -1027573.25249   -789078.71047  20570593.453    20570592.300    20570600.476
       241.000         199.000
 -22883333.52349 -17807141.77947  19534494.309    19534492.685    19534501.172
       241.000         201.000
   9071426.93449   7062050.10745  23310958.885    23310956.565    23310970.593
       220.000         158.000
 -11166818.63549  -8387870.20045  22398700.905    22398699.551    22398717.153
       218.000         159.000
   1652492.24249   1300731.57947  21720913.428    21720911.815    21720923.491
       236.000         189.000
 -14488321.03049 -11260718.76746  21809977.898    21809977.272    21809987.007
       233.000         182.000
 00  5 22 16 56 29.9960000  0  8G24G 6G 4G 5G 7G10G 9G30
 -17792934.43649 -13843297.69847  19173669.579    19173668.293    19173677.408
       234.000         197.000
  -2780569.34249  -2150693.09545  23666974.809    23666973.767    23666988.040
       214.000         146.000
   -973749.17349   -747137.94847  20580835.841    20580834.732    20580842.909
       241.000         198.000
 -22947934.20449 -17857479.96447  19522201.254    19522199.615    19522208.060
       241.000         201.000
   9117330.38949   7097818.82745  23319694.240    23319691.905    23319706.009
       215.000         158.000
 -11288443.24549  -8482642.31845  22375556.234    22375554.915    22375572.512
       220.000         158.000
   1711673.73049   1346846.84247  21732175.462    21732173.818    21732185.509
       236.000         189.000
 -14605369.66849 -11351925.43946  21787704.161    21787703.607    21787713.334
       234.000         182.000
 00  5 22 16 56 59.9960000  0  8G24G 6G 4G 5G 7G10G 9G30
 -17806673.38849 -13854003.36647  19171055.200    19171053.899    19171062.989
       234.000         198.000
  -2878393.76649  -2226919.76845  23648359.123    23648358.223    23648372.614
       213.000         150.000
   -919613.81249   -704954.63147  20591137.539    20591136.410    20591144.596
       241.000         198.000
 -23012117.49749 -17907492.91147  19509987.573    19509985.945    19509994.375
       241.000         201.000
   9163276.74049   7133621.00345  23328437.734    23328435.415    23328449.515
       216.000         159.000
 -11409943.20749  -8577317.33445  22352435.287    22352434.027    22352451.466
       219.000         159.000
   1771101.83149   1393154.27847  21743484.392    21743482.748    21743494.430
       235.000         188.000
 -14722243.42749 -11442995.83746  21765463.930    21765463.242    21765472.977
       233.000         182.000
 00  5 22 16 57 29.9960000  0  8G24G 6G 4G 5G 7G10G 9G30
 -17819910.68449 -13864318.14447  19168536.233    19168534.939    19168544.005
       234.000         197.000
  -2976178.06249  -2303115.22845  23629751.176    23629750.276    23629764.679
       212.000         145.000
   -865168.25749   -662529.60247  20601498.199    20601497.104    20601505.323
       240.000         199.000
 -23075880.13449 -17957178.08047  19497853.921    19497852.315    19497860.744
       241.000         201.000
   9209267.85649   7169458.05745  23337189.686    23337187.338    23337201.473
       213.000         154.000
 -11531313.56549  -8671891.36345  22329339.138    22329337.800    22329355.199
       221.000         158.000
   1830775.03949   1439652.70846  21754839.977    21754838.314    21754849.986
       236.000         187.000
 -14838938.41549 -11533926.94046  21743257.567    21743256.863    21743266.589
       233.000         181.000
 00  5 22 16 57 59.9960000  0  8G24G 6G 4G 5G 7G10G 9G30
 -17832649.35349 -13874244.38247  19166112.161    19166110.863    19166119.867
       234.000         197.000
  -3073924.17549  -2379280.90345  23611150.703    23611149.772    23611164.112
       216.000         150.000
   -810417.04649   -619866.40847  20611917.009    20611915.955    20611924.220
       240.000         198.000
 -23139222.22849 -18006535.54947  19485800.329    19485798.720    19485807.153
       239.000         201.000
   9255301.66849   7205328.34545  23345949.750    23345947.385    23345961.687
       215.000         154.000
 -11652553.25249  -8766363.56745  22306267.735    22306266.473    22306283.753
       220.000         162.000
   1890688.32749   1486338.20746  21766241.226    21766239.571    21766251.215
       235.000         187.000
 -14955454.29749 -11624718.48246  21721085.290    21721084.568    21721094.274
       234.000         181.000
 00  5 22 16 58 29.9960000  0  8G24G 6G 4G 5G 7G10G 9G30
 -17844893.56349 -13883785.32947  19163782.112    19163780.853    19163789.842
       233.000         196.000
  -3171635.21949  -2455419.27745  23592556.907    23592555.914    23592570.069
       214.000         155.000
   -755365.73549   -576969.35847  20622393.004    20622391.929    20622400.203
       240.000         197.000
 -23202144.86349 -18055566.15947  19473826.543    19473824.942    19473833.353
       239.000         201.000
   9301375.33449   7241229.68745  23354717.444    23354715.074    23354729.497
       213.000         154.000
 -11773662.24649  -8860733.94445  22283221.290    22283219.962    22283237.066
       221.000         160.000
   1950835.89349   1533206.25446  21777687.066    21777685.393    21777697.041
       234.000         187.000
 -15071791.79049 -11715371.01946  21698947.075    21698946.216    21698955.902
       232.000         181.000
 00  5 22 16 58 59.9960000  0  8G24G 6G 4G 5G 7G10G 9G30
 -17856636.64449 -13892935.78347  19161547.415    19161546.170    19161555.193
       232.000         196.000
  -3269303.21149  -2531524.06945  23573971.136    23573970.190    23573984.453
       213.000         154.000
   -700008.87049   -533834.21547  20632927.178    20632926.046    20632934.330
       240.000         197.000
 -23264637.99849 -18104262.08947  19461934.492    19461932.903    19461941.305
       239.000         201.000
   9347497.21949   7277168.64945  23363494.244    23363491.886    23363506.328
       213.000         149.000
 -11894628.71949  -8954993.25746  22260201.755    22260200.601    22260217.623
       222.000         163.000
   2011222.97249   1580260.93246  21789178.485    21789176.816    21789188.505
       234.000         187.000
 -15187940.25949 -11805876.26446  21676844.622    21676843.822    21676853.504
       233.000         180.000
 00  5 22 16 59 29.9960000  0  8G24G 6G 4G 5G 7G10G 9G30
 -17867899.27749 -13901711.86447  19159404.102    19159402.898    19159411.930
       233.000         196.000
  -3366947.62749  -2607610.53045  23555390.071    23555389.009    23555403.378
       215.000         152.000
   -644368.47149   -490478.14147  20643515.203    20643514.113    20643522.437
       239.000         197.000
 -23326719.47649 -18152637.25847  19450120.809    19450119.182    19450127.613
       239.000         202.000
   9393647.81649   7313129.95245  23372276.610    23372274.246    23372288.684
       216.000         153.000
 -12015469.19749  -9049154.41146  22237206.357    22237205.162    22237222.172
       220.000         163.000
   2071827.31649   1627484.90346  21800711.299    21800709.566    21800721.318
       234.000         187.000
 -15303917.05949 -11896247.74046  21654774.860    21654774.112    21654783.785
       233.000         181.000
 00  5 22 16 59 59.9960000  0  8G24G 6G 4G 5G 7G10G 9G30
 -17878657.09549 -13910094.58247  19157356.875    19157355.734    19157364.756
       234.000         196.000
  -3464542.96949  -2683658.79645  23536818.154    23536817.113    23536831.568
       213.000         152.000
   -588421.74649   -446883.37347  20654161.491    20654160.465    20654168.829
       240.000         196.000
 -23388362.08849 -18200670.44747  19438390.596    19438388.982    19438397.439
       239.000         202.000
   9439852.87649   7349133.68845  23381069.289    23381066.924    23381081.557
       219.000         151.000
 -12136154.74249  -9143194.82546  22214240.237    22214239.170    22214256.226
       222.000         165.000
   2132671.37149   1674895.65846  21812289.648    21812287.957    21812299.748
       234.000         186.000
 -15419694.39849 -11986463.79846  21632743.102    21632742.340    21632752.044
       233.000         182.000
 00  5 22 17  0 29.9960000  0  8G24G 6G 4G 5G 7G10G 9G30
 -17888929.76349 -13918099.25347  19155402.095    19155400.923    19155409.917
       234.000         197.000
  -3562107.51449  -2759682.97845  23518251.929    23518250.957    23518265.575
       211.000         150.000
   -532189.24649   -403065.90747  20664862.273    20664861.215    20664869.562
       239.000         196.000
 -23449582.11449 -18248374.34147  19426740.680    19426739.167    19426747.671
       238.000         202.000
   9486094.32249   7385165.81245  23389869.059    23389866.561    23389881.163
       214.000         143.000
 -12256700.22249  -9237126.10746  22191300.980    22191299.935    22191316.932
       220.000         164.000
   2193734.24949   1722476.92746  21823909.637    21823907.963    21823919.818
       233.000         186.000
 -15535288.05649 -12076536.72546  21610746.246    21610745.539    21610755.256
       233.000         183.000
 00  5 22 17  0 59.9960000  0  8G24G 6G 4G 5G 7G10G 9G30
 -17898715.01349 -13925724.12347  19153539.960    19153538.830    19153547.841
       234.000         197.000
  -3659637.67349  -2835680.38245  23499692.485    23499691.532    23499706.125
       214.000         153.000
   -475670.22549   -359025.19947  20675617.409    20675616.444    20675624.839
       238.000         195.000
 -23510374.05949 -18295744.67347  19415172.276    19415170.814    19415179.335
       238.000         202.000
   9532375.67549   7421229.06845  23398676.254    23398673.825    23398688.085
       214.000         140.000
 -12377099.01849  -9330943.09846  22168389.629    22168388.576    22168405.507
       222.000         164.000
   2255016.34849   1770229.00046  21835571.326    21835569.654    21835581.618
       233.000         185.000
 -15650692.04249 -12166461.85546  21588785.540    21588784.841    21588794.527
       235.000         184.000
 00  5 22 17  1 29.9960000  0  8G24G 6G 4G 5G 7G10G 9G30
 -17907999.07249 -13932958.46147  19151773.261    19151772.123    19151781.140
       234.000         197.000
  -3757118.49049  -2911639.37445  23481142.389    23481141.431    23481156.016
       214.000         147.000
   -418851.85149   -314751.22247  20686429.581    20686428.644    20686437.088
       239.000         196.000
 -23570721.07449 -18342768.30147  19403688.601    19403687.141    19403695.664
       239.000         202.000
   9578712.38349   7457335.44245  23407493.809    23407491.621    23407505.845
       211.000         150.000
 -12497332.73049  -9424631.46846  22145509.499    22145508.597    22145525.450
       220.000         164.000
   2316529.98149   1818161.49646  21847277.162    21847275.440    21847287.494
       233.000         186.000
 -15765888.74449 -12256225.47246  21566864.294    21566863.572    21566873.302
       234.000         185.000
 00  5 22 17  1 59.9960000  0  8G24G 6G 4G 5G 7G10G 9G30
 -17916805.91649 -13939820.94047  19150097.350    19150096.209    19150105.281
       234.000         198.000
  -3854572.90849  -2987577.78445  23462597.239    23462596.425    23462610.903
       213.000         150.000
   -361759.71649   -270263.93147  20697293.879    20697292.947    20697301.453
       239.000         196.000
 -23630644.08249 -18389461.53847  19392285.633    19392284.148    19392292.681
       239.000         201.000
   9625081.74949   7493467.26045  23416317.451    23416315.508    23416329.845
       211.000         145.000
 -12617420.49049  -9518206.07846  22122657.288    22122656.404    22122673.271
       221.000         163.000
   2378249.52949   1866254.43946  21859022.168    21859020.422    21859032.542
       233.000         185.000
 -15880898.84949 -12345843.69046  21544978.631    21544977.849    21544987.577
       235.000         186.000
 00  5 22 17  2 29.9960000  0  8G24G 6G 4G 5G 7G10G 9G30
 -17925112.87549 -13946293.90647  19148516.609    19148515.443    19148524.526
       234.000         198.000
  -3951976.93049  -3063476.96145  23444061.810    23444060.994    23444075.356
       218.000         158.000
   -304372.11849   -225546.39747  20708214.451    20708213.480    20708222.020
       239.000         195.000
 -23690117.24249 -18435804.24347  19380968.240    19380966.755    19380975.311
       238.000         201.000
   9671507.96049   7529643.33745  23425152.053    23425150.215    23425164.657
       213.000         145.000
 -12737335.14249  -9611645.81746  22099838.264    22099837.228    22099853.948
       221.000         163.000
   2440196.34149   1914524.47546  21870810.429    21870808.640    21870820.845
       232.000         184.000
 -15995695.69149 -12435295.73546  21523133.526    21523132.715    21523142.453
       235.000         187.000
 00  5 22 17  2 59.9960000  0  8G24G 6G 4G 5G 7G10G 9G30
 -17932938.28849 -13952391.64247  19147027.429    19147026.287    19147035.395
       234.000         198.000
  -4049347.46949  -3139349.98545  23425532.630    23425531.865    23425546.328
       216.000         152.000
   -246708.54849   -180613.82347  20719187.457    20719186.536    20719195.099
       239.000         195.000
 -23749155.54649 -18481808.10947  19369733.598    19369732.134    19369740.695
       238.000         201.000
   9717974.35849   7565850.79445  23433994.555    23433992.574    23434006.961
       214.000         145.000
 -12857090.25349  -9704961.25045  22077049.301    22077048.264    22077065.027
       219.000         162.000
   2502350.46149   1962956.04246  21882637.988    21882636.267    21882648.608
       232.000         184.000
 -16110293.90049 -12524593.00646  21501326.116    21501325.350    21501335.129
       235.000         187.000
 00  5 22 17  3 29.9960000  0  8G24G 6G 4G 5G 7G10G 9G30
 -17940297.10049 -13958125.78147  19145627.079    19145625.931    19145635.061
       234.000         198.000
  -4146698.21549  -3215207.64745  23407007.429    23407006.540    23407020.883
       216.000         155.000
   -188785.33849   -135478.92647  20730209.980    20730208.993    20730217.570
       239.000         194.000
 -23807770.95449 -18527482.44347  19358579.469    19358578.002    19358586.528
       239.000         201.000
   9764467.28449   7602078.88345  23442842.020    23442839.989    23442854.436
       218.000         152.000
 -12976696.12049  -9798160.37245  22054288.723    22054287.761    22054304.440
       220.000         162.000
   2564695.32549   2011536.23246  21894501.881    21894500.209    21894512.650
       233.000         184.000
 -16224704.73949 -12613744.27546  21479554.323    21479553.635    21479563.396
       236.000         186.000
 00  5 22 17  3 59.9960000  0  8G24G 6G 4G 5G 7G10G 9G30
 -17947166.98949 -13963478.95447  19144319.835    19144318.653    19144327.782
       234.000         198.000
  -4244005.20349  -3291031.14545  23388490.516    23388489.606    23388504.072
       215.000         155.000
   -130581.04749    -90125.00847  20741285.939    20741284.938    20741293.552
       239.000         194.000
 -23865937.84649 -18572807.28747  19347510.698    19347509.200    19347517.715
       238.000         201.000
   9811010.82249   7638346.36045  23451699.286    23451697.120    23451711.643
       218.000         155.000
 -13096125.44649  -9891221.94346  22031561.988    22031560.901    22031577.413
       221.000         163.000
   2627251.74649   2060281.28046  21906406.154    21906404.447    21906416.940
       232.000         183.000
 -16338901.95949 -12702729.09346  21457823.311    21457822.614    21457832.339
       236.000         187.000
 00  5 22 17  4 29.9960000  0  8G24G 6G 4G 5G 7G10G 9G30
 -17953556.87649 -13968458.09647  19143103.899    19143102.703    19143111.809
       235.000         198.000
  -4341276.31249  -3366826.70545  23369980.568    23369979.565    23369993.909
       217.000         158.000
    -72106.02849    -44560.12447  20752413.412    20752412.425    20752421.071
       240.000         193.000
 -23923662.24349 -18617787.33247  19336526.123    19336524.621    19336533.120
       239.000         201.000
   9857597.40049   7674647.47345  23460564.593    23460562.405    23460576.935
       215.000         146.000
 -13215382.89549  -9984149.54746  22008867.885    22008866.735    22008883.239
       222.000         165.000
   2690009.20949   2109182.97946  21918348.658    21918346.938    21918359.451
       231.000         182.000
 -16452890.77849 -12791551.51646  21436131.888    21436131.240    21436140.954
       235.000         187.000
 00  5 22 17  4 59.9960000  0  8G24G 6G 4G 5G 7G10G 9G30
 -17959476.50449 -13973070.81447  19141977.437    19141976.250    19141985.350
       235.000         198.000
  -4438519.71949  -3442600.65445  23351475.767    23351474.680    23351489.032
       219.000         154.000
    -13371.03149      1207.33947  20763590.377    20763589.381    20763598.038
       239.000         193.000
 -23980950.59049 -18662427.59747  19325624.545    19325623.014    19325631.485
       238.000         201.000
   9904219.15949   7710975.95245  23469436.540    23469434.339    23469448.899
       215.000         146.000
 -13334473.07149 -10076946.84346  21986205.556    21986204.441    21986220.888
       222.000         166.000
   2752956.60949   2158232.67646  21930327.264    21930325.546    21930338.116
       232.000         182.000
 -16566677.01849 -12880216.08846  21414479.000    21414478.381    21414488.120
       235.000         187.000
 00  5 22 17  5 29.9960000  0  8G24G 6G 4G 5G 7G10G 9G30
 -17964929.52349 -13977319.94447  19140939.803    19140938.596    19140947.696
       235.000         198.000
  -4535737.78749  -3518354.89145  23332975.530    23332974.575    23332988.942
       215.000         154.000
     45619.32549     47173.78647  20774815.921    20774814.908    20774823.599
       238.000         191.000
 -24037803.35949 -18706728.45447  19314805.821    19314804.292    19314812.722
       238.000         200.000
   9950873.85549   7747330.12345  23478314.901    23478312.608    23478327.184
       215.000         147.000
 -13453395.08049 -10169613.08346  21963575.342    21963574.196    21963590.586
       223.000         167.000
   2816088.78949   2207426.35546  21942340.952    21942339.335    21942351.927
       231.000         181.000
 -16680260.56949 -12968722.73246  21392864.786    21392864.129    21392873.864
       236.000         187.000
 00  5 22 17  5 59.9960000  0  8G24G 6G 4G 5G 7G10G 9G30
 -17969926.08949 -13981213.39347  19139988.958    19139987.787    19139996.876
       234.000         198.000
  -4632939.11349  -3594096.06845  23314478.463    23314477.639    23314491.944
       214.000         152.000
    104853.55349     93330.26147  20786087.822    20786086.854    20786095.571
       238.000         191.000
 -24094227.29249 -18750695.15547  19304068.654    19304067.167    19304075.561
       238.000         200.000
   9997553.01049   7783703.31845  23487197.808    23487195.454    23487210.130
       215.000         149.000
 -13572154.17049 -10262152.34746  21940976.161    21940974.966    21940991.332
       220.000         169.000
   2879394.24449   2256755.05446  21954387.673    21954386.092    21954398.731
       231.000         180.000
 -16793647.79549 -13057076.38846  21371287.973    21371287.264    21371296.930
       237.000         187.000
 00  5 22 17  6 29.9960000  0  8G24G 6G 4G 5G 7G10G 9G30
 -17974458.06449 -13984744.82247  19139126.554    19139125.379    19139134.470
       235.000         198.000
  -4730114.17249  -3669816.75445  23295986.611    23295985.749    23296000.142
       217.000         159.000
    164339.18349    139682.64947  20797407.625    20797406.625    20797415.377
       237.000         190.000
 -24150211.20149 -18794318.97447  19293415.236    19293413.767    19293422.133
       238.000         200.000
  10044266.43549   7820103.24045  23496086.907    23496084.767    23496099.633
       210.000         144.000
 -13690737.63649 -10354554.77546  21918410.297    21918409.129    21918425.460
       222.000         170.000
   2942879.60649   2306223.94046  21966468.677    21966467.094    21966479.755
       231.000         180.000
 -16906826.39649 -13145267.48346  21349750.777    21349750.042    21349759.698
       235.000         187.000
 00  5 22 17  6 59.9960000  0  8G24G 6G 4G 5G 7G10G 9G30
 -17978506.58349 -13987899.53847  19138356.222    19138354.999    19138364.077
       235.000         198.000
  -4827242.76849  -3745501.26045  23277503.732    23277502.754    23277517.063
       218.000         153.000
    224093.52149    186244.40247  20808778.530    20808777.515    20808786.319
       236.000         191.000
 -24205733.10449 -18837582.79247  19282849.742    19282848.275    19282856.639
       238.000         200.000
  10091034.46049   7856545.75145  23504986.451    23504984.504    23504999.404
       208.000         142.000
 -13809121.74449 -10446801.85146  21895882.385    21895881.173    21895897.490
       222.000         169.000
   3006562.27949   2355846.56746  21978587.260    21978585.643    21978598.382
       231.000         179.000
 -17019773.65849 -13233278.30846  21328257.619    21328256.842    21328266.543
       236.000         187.000
 00  5 22 17  7 29.9960000  0  8G24G 6G 4G 5G 7G10G 9G30
 -17982094.58549 -13990695.40347  19137673.383    19137672.213    19137681.287
       234.000         197.000
  -4924346.17249  -3821166.18145  23259025.516    23259024.512    23259038.594
       216.000         152.000
    284092.87049    232997.07447  20820196.003    20820195.042    20820203.888
       237.000         192.000
 -24260812.80549 -18880502.04047  19272368.406    19272366.943    19272375.298
       238.000         200.000
  10137835.83649   7893014.22345  23513892.548    23513890.627    23513905.699
       206.000         148.000
 -13927324.51349 -10538907.62646  21873388.953    21873387.731    21873404.073
       223.000         170.000
   3070417.95649   2405603.99746  21990738.679    21990737.127    21990749.888
       231.000         179.000
 -17132508.77349 -13321123.82146  21306804.725    21306804.026    21306813.755
       235.000         186.000
 00  5 22 17  7 59.9960000  0  8G24G 6G 4G 5G 7G10G 9G30
 -17985220.36849 -13993131.10047  19137078.547    19137077.378    19137086.439
       235.000         197.000
  -5021421.40149  -3896809.06345  23240552.636    23240551.696    23240565.736
       220.000         160.000
    344337.73049    279941.05247  20831660.308    20831659.333    20831668.196
       237.000         191.000
 -24315445.66249 -18923073.10047  19261972.082    19261970.640    19261979.012
       237.000         200.000
  10184674.12449   7929511.48245  23522805.674    23522803.746    23522818.917
       214.000         150.000
 -14045339.64949 -10630867.17746  21850931.169    21850929.955    21850946.337
       223.000         170.000
   3134446.93349   2455496.46346  22002923.213    22002921.592    22002934.428
       230.000         179.000
 -17245025.95749 -13408799.52146  21285393.384    21285392.667    21285402.404
       236.000         186.000
 00  5 22 17  8 29.9960000  0  8G24G 6G 4G 5G 7G10G 9G30
 -17987885.01549 -13995207.46147  19136571.516    19136570.314    19136579.389
       235.000         197.000
  -5118468.01349  -3972429.66346  23222085.263    23222084.276    23222098.288
       222.000         163.000
    404826.12649    327074.80747  20843170.882    20843169.925    20843178.812
       237.000         191.000
 -24369629.46949 -18965294.25547  19251661.248    19251659.789    19251668.157
       238.000         199.000
  10231549.78649   7966037.86545  23531725.873    23531723.985    23531739.265
       212.000         153.000
 -14163163.31349 -10722677.54046  21828509.821    21828508.599    21828525.041
       222.000         170.000
   3198646.86349   2505522.14546  22015140.242    22015138.611    22015151.515
       232.000         180.000
 -17357322.48149 -13496303.27246  21264024.008    21264023.306    21264033.067
       236.000         187.000
 00  5 22 17  8 59.9960000  0  8G24G 6G 4G 5G 7G10G 9G30
 -17990076.88149 -13996915.42947  19136154.393    19136153.216    19136162.313
       234.000         197.000
  -5215472.98249  -4048017.82945  23203625.818    23203624.846    23203638.770
       220.000         161.000
    465568.64649    374406.58547  20854729.918    20854728.918    20854737.811
       237.000         191.000
 -24423349.19649 -19007153.78847  19241438.717    19241437.244    19241445.638
       236.000         200.000
  10278476.03949   8002603.65345  23540655.766    23540653.842    23540669.253
       212.000         147.000
 -14280778.80749 -10814325.70746  21806128.179    21806126.945    21806143.287
       223.000         169.000
   3263027.91449   2555688.94446  22027391.709    22027390.094    22027403.096
       231.000         180.000
 -17469382.58349 -13583622.80046  21242699.644    21242698.944    21242708.700
       236.000         186.000
 00  5 22 17  9 29.9960000  0  8G24G 6G 4G 5G 7G10G 9G30
 -17991812.76649 -13998268.08147  19135824.173    19135822.934    19135831.985
       236.000         198.000
  -5312451.55849  -4123585.41945  23185171.298    23185170.335    23185184.258
       219.000         162.000
    526547.31549    421922.37947  20866333.912    20866332.866    20866341.744
       238.000         192.000
 -24476618.34149 -19048662.22347  19231301.927    19231300.459    19231308.842
       238.000         200.000
  10325437.83649   8039197.18745  23549592.661    23549590.580    23549605.924
       217.000         151.000
 -14398198.17149 -10905821.04646  21783783.840    21783782.556    21783798.816
       223.000         168.000
   3327571.94949   2605982.75946  22039674.395    22039672.648    22039685.687
       231.000         180.000
 -17581219.23849 -13670768.20646  21221417.789    21221417.098    21221426.898
       236.000         187.000
 00  5 22 17  9 59.9960000  0  8G24G 6G 4G 5G 7G10G 9G30
 -17993092.74549 -13999265.48247  19135580.767    19135579.453    19135588.415
       236.000         198.000
  -5409402.19049  -4199131.22845  23166722.116    23166721.161    23166735.093
       222.000         162.000
    587761.43649    469621.63747  20877982.738    20877981.631    20877990.496
       238.000         191.000
 -24529433.93249 -19089817.23747  19221251.493    19221250.003    19221258.361
       237.000         199.000
  10372436.93749   8075819.78945  23558536.244    23558534.262    23558549.727
       211.000         149.000
 -14515416.72549 -10997159.91746  21761477.611    21761476.382    21761492.588
       221.000         169.000
   3392277.38949   2656402.33646  22051987.771    22051985.912    22051998.964
       232.000         179.000
 -17692828.41549 -13757736.35746  21200179.187    21200178.528    21200188.367
       236.000         187.000
 00  5 22 17 10 29.9960000  0  8G24G 6G 4G 5G 7G10G 9G30
 -17993920.11349 -13999910.19347  19135423.409    19135422.074    19135430.993
       237.000         199.000
  -5506326.43849  -4274656.50345  23148277.913    23148277.031    23148290.871
       221.000         162.000
    649206.82949    517501.10247  20889675.465    20889674.372    20889683.223
       236.000         190.000
 -24581796.02549 -19130618.88047  19211287.409    19211285.866    19211294.181
       238.000         200.000
  10419471.85049   8112470.28945  23567486.806    23567484.899    23567500.280
       212.000         148.000
 -14632432.65849 -11088340.90546  21739210.011    21739208.785    21739224.887
       223.000         169.000
   3457139.88149   2706944.30246  22064331.026    22064329.090    22064342.095
       232.000         179.000
 -17804209.05349 -13844526.42547  21178984.200    21178983.496    21178993.309
       237.000         188.000
 00  5 22 17 10 59.9960000  0  8G24G 6G 4G 5G 7G10G 9G30
 -17994283.12149 -14000193.05447  19135354.488    19135353.065    19135361.916
       237.000         199.000
  -5603211.23849  -4350151.03945  23129841.435    23129840.413    23129854.143
       220.000         159.000
    710894.08149    565569.04347  20901414.241    20901413.135    20901421.994
       237.000         190.000
 -24633689.77249 -19171055.57647  19201412.416    19201410.839    19201419.120
       237.000         200.000
  10466555.88149   8149159.04045  23576446.613    23576444.710    23576460.129
       212.000         146.000
 -14749229.81449 -11179351.42846  21716984.050    21716982.836    21716998.774
       223.000         171.000
   3522169.51549   2757616.50846  22076705.971    22076704.047    22076717.024
       231.000         179.000
 -17915345.60249 -13931126.29447  21157835.534    21157834.878    21157844.689
       236.000         188.000
 00  5 22 17 11 29.9960000  0  8G24G 6G 4G 5G 7G10G 9G30
 -17994193.23649 -14000123.01247  19135371.543    19135370.199    19135379.065
       236.000         199.000
  -5700066.42949  -4425622.47045  23111410.463    23111409.379    23111423.082
       218.000         158.000
    772810.88249    613815.83847  20913196.621    20913195.547    20913204.471
       236.000         192.000
 -24685123.36949 -19211133.71447  19191624.934    19191623.363    19191631.650
       237.000         199.000
  10513679.39849   8185878.57645  23585413.949    23585412.087    23585427.461
       211.000         147.000
 -14865814.20549 -11270196.16746  21694798.489    21694797.354    21694813.246
       223.000         170.000
   3587353.80849   2808409.22846  22089110.429    22089108.390    22089121.371
       231.000         178.000
 -18026245.26749 -14017541.58147  21136731.964    21136731.340    21136741.106
       237.000         188.000
 00  5 22 17 11 59.9960000  0  8G24G 6G 4G 5G 7G10G 9G30
 -17993641.59049 -13999693.15347  19135476.548    19135475.182    19135484.061
       236.000         199.000
  -5796881.67849  -4501062.83745  23092986.990    23092985.968    23092999.601
       219.000         158.000
    834965.18549    662247.68047  20925024.227    20925023.159    20925032.155
       235.000         192.000
 -24736084.86349 -19250843.98147  19181927.299    19181925.726    19181933.994
       237.000         199.000
  10560853.11149   8222637.27045  23594390.876    23594389.011    23594404.537
       211.000         143.000
 -14982172.45749 -11360864.71446  21672656.292    21672654.951    21672670.774
       223.000         173.000
   3652700.24449   2859328.27846  22101545.510    22101543.558    22101556.598
       231.000         179.000
 -18136895.60349 -14103762.58847  21115675.886    21115675.254    21115684.967
       237.000         188.000
 00  5 22 17 12 29.9960000  0  8G24G 6G 4G 5G 7G10G 9G30
 -17992610.54649 -13998889.73147  19135672.679    19135671.366    19135680.258
       236.000         199.000
  -5893637.44749  -4576456.82145  23074574.929    23074573.914    23074587.519
       220.000         160.000
    897373.80549    710877.70547  20936900.201    20936899.145    20936908.223
       236.000         192.000
 -24786553.33449 -19290170.07047  19172323.541    19172321.919    19172330.150
       238.000         200.000
  10608096.39749   8259450.20645  23603381.131    23603379.215    23603394.706
       215.000         147.000
 -15098282.08749 -11451339.52546  21650561.176    21650559.783    21650575.574
       224.000         171.000
   3718225.27049   2910386.49146  22114014.556    22114012.709    22114025.815
       231.000         178.000
 -18247274.64349 -14189772.18946  21094671.393    21094670.782    21094680.455
       237.000         187.000
 00  5 22 17 12 59.9960000  0  8G24G 6G 4G 5G 7G10G 9G30
 -17991127.73549 -13997734.27847  19135954.791    19135953.518    19135962.442
       236.000         199.000
  -5990359.78749  -4651824.74845  23056169.280    23056168.226    23056181.796
       221.000         161.000
    960008.25749    759683.69647  20948819.143    20948818.116    20948827.243
       236.000         192.000
 -24836553.22749 -19329131.03647  19162808.887    19162807.255    19162815.498
       237.000         199.000
  10655383.46449   8296297.22345  23612379.764    23612377.688    23612393.312
       205.000         139.000
 -15214165.09049 -11541637.76146  21628509.076    21628507.762    21628523.552
       221.000         172.000
   3783899.86549   2961561.25846  22126512.183    22126510.364    22126523.462
       231.000         177.000
 -18357405.84049 -14275588.67147  21073714.085    21073713.487    21073723.072
       237.000         188.000
 00  5 22 17 13 29.9960000  0  8G24G 6G 4G 5G 7G10G 9G30
 -17989219.14249 -13996247.05047  19136317.949    19136316.710    19136325.656
       237.000         199.000
  -6087073.17949  -4727185.73145  23037765.153    23037764.206    23037777.739
       220.000         156.000
   1022841.82849    808644.85447  20960776.058    20960774.998    20960784.158
       236.000         193.000
 -24886107.22549 -19367744.54347  19153379.040    19153377.440    19153385.727
       237.000         200.000
  10702690.14449   8333159.45145  23621381.950    23621379.883    23621395.521
       214.000         145.000
 -15329842.84549 -11631776.09746  21606495.953    21606494.787    21606510.573
       223.000         172.000
   3849696.95049   3012831.47546  22139033.154    22139031.327    22139044.421
       230.000         176.000
 -18467311.14049 -14361229.12947  21052799.869    21052799.214    21052808.674
       238.000         188.000
 00  5 22 17 13 59.9960000  0  8G24G 6G 4G 5G 7G10G 9G30
 -17986867.79049 -13994414.81247  19136765.461    19136764.196    19136773.144
       237.000         200.000
  -6183758.95649  -4802525.19145  23019366.461    23019365.436    23019378.806
       220.000         159.000
   1085890.72449    857773.78147  20972773.920    20972772.868    20972782.058
       236.000         193.000
 -24935195.15849 -19405994.88647  19144037.824    19144036.306    19144044.623
       236.000         199.000
  10750035.18949   8370051.60845  23630391.322    23630389.297    23630405.063
       208.000         141.000
 -15445293.52649 -11721737.48846  21584526.178    21584525.015    21584540.847
       223.000         171.000
   3915632.17549   3064209.33546  22151580.448    22151578.576    22151591.736
       231.000         177.000
 -18576969.38849 -14446677.07947  21031932.634    21031931.924    21031941.282
       238.000         189.000
 00  5 22 17 14 29.9960000  0  8G24G 6G 4G 5G 7G10G 9G30
 -17984060.21449 -13992227.08047  19137299.802    19137298.500    19137307.406
       237.000         200.000
  -6280401.77749  -4877831.19045  23000975.869    23000974.845    23000988.177
       221.000         159.000
   1149167.34649    907080.15747  20984815.128    20984814.064    20984823.270
       234.000         192.000
 -24983800.47949 -19443869.16947  19134788.491    19134786.993    19134795.348
       236.000         199.000
  10797434.08349   8406985.72945  23639411.004    23639409.064    23639424.773
       213.000         149.000
 -15560498.68449 -11811507.59646  21562603.148    21562601.992    21562617.783
       224.000         172.000
   3981717.66949   3115704.27646  22164156.330    22164154.402    22164167.657
       230.000         178.000
 -18686362.70649 -14531918.58647  21011115.827    21011115.070    21011124.323
       239.000         190.000
 00  5 22 17 14 59.9960000  0  8G24G 6G 4G 5G 7G10G 9G30
 -17980813.82249 -13989697.41747  19137917.500    19137916.238    19137925.178
       236.000         199.000
  -6377017.51549  -4953116.05245  22982590.316    22982589.378    22982602.806
       221.000         159.000
   1212653.62549    956549.88847  20996896.213    20996895.150    20996904.352
       237.000         191.000
 -25031937.47049 -19481378.52147  19125628.269    19125626.806    19125635.198
       236.000         200.000
  10844871.09749   8443949.62545  23648438.144    23648436.136    23648451.921
       205.000         143.000
 -15675470.67049 -11901096.01146  21540724.627    21540723.381    21540739.074
       226.000         173.000
   4047934.72049   3167301.72946  22176757.215    22176755.301    22176768.619
       230.000         178.000
 -18795504.34349 -14616963.98347  20990346.921    20990346.119    20990355.294
       239.000         190.000
 00  5 22 17 15 29.9960000  0  8G24G 6G 4G 5G 7G10G 9G30
 -17977126.81149 -13986824.41347  19138619.068    19138617.841    19138626.764
       236.000         199.000
  -6473602.69349  -5028377.15445  22964210.572    22964209.723    22964223.120
       222.000         159.000
   1276350.45649   1006183.69147  21009017.398    21009016.312    21009025.496
       236.000         190.000
 -25079600.95849 -19518518.90647  19116558.193    19116556.725    19116565.190
       236.000         200.000
  10892349.87949   8480945.96145  23657473.111    23657471.032    23657486.973
       207.000         145.000
 -15790202.53149 -11990497.32646  21518891.973    21518890.543    21518906.003
       225.000         172.000
   4114284.20849   3219002.36746  22189383.333    22189381.429    22189394.737
       230.000         176.000
 -18904388.70449 -14701808.90847  20969626.851    20969626.083    20969635.267
       238.000         191.000
 00  5 22 17 15 59.9960000  0  8G24G 6G 4G 5G 7G10G 9G30
 -17972998.08349 -13983607.21647  19139404.709    19139403.502    19139412.411
       237.000         200.000
  -6570154.55249  -5103612.27145  22945837.307    22945836.433    22945849.765
       220.000         155.000
   1340258.48549   1055982.05447  21021178.703    21021177.661    21021186.851
       235.000         190.000
 -25126786.83549 -19555287.13147  19107579.039    19107577.544    19107586.072
       237.000         200.000
  10939873.56149   8517977.31445  23666516.674    23666514.549    23666530.551
       205.000         141.000
 -15904688.46949 -12079707.02946  21497105.937    21497104.523    21497119.770
       227.000         174.000
   4180765.89549   3270806.03446  22202034.612    22202032.681    22202046.030
       229.000         175.000
 -19013010.16449 -14786448.97647  20948956.844    20948956.096    20948965.232
       239.000         191.000
 00  5 22 17 16 29.9960000  0  8G24G 6G 4G 5G 7G10G 9G30
 -17968440.39749 -13980055.76047  19140272.053    19140270.822    19140279.721
       237.000         200.000
  -6666684.13449  -5178830.02745  22927468.238    22927467.385    22927480.746
       221.000         157.000
   1404364.07649   1105934.35647  21033377.637    21033376.609    21033385.836
       237.000         191.000
 -25173504.65449 -19591690.63047  19098688.989    19098687.461    19098695.999
       237.000         200.000
  10987431.19749   8555035.11245  23675566.741    23675564.474    23675580.504
       199.000         138.000
 -16018936.20049 -12168731.12246  21475365.276    21475363.824    21475378.904
       226.000         175.000
   4247365.89949   3322701.89346  22214708.296    22214706.426    22214719.819
       229.000         174.000
 -19121377.26149 -14870890.83247  20928335.311    20928334.509    20928343.599
       238.000         191.000
 00  5 22 17 16 59.9950000  0  8G24G 6G 4G 5G 7G10G 9G30
 -17963429.06449 -13976150.82147  19141225.699    19141224.455    19141233.355
       237.000         200.000
  -6763161.40449  -5254007.07845  22909109.416    22909108.406    22909121.500
       220.000         154.000
   1468689.38049   1156057.86347  21045618.504    21045617.408    21045626.637
       236.000         190.000
 -25219724.69549 -19627706.24747  19089893.671    19089892.110    19089900.632
       237.000         201.000
  11035048.24249   8592139.16245  23684628.103    23684625.764    23684641.899
       208.000         146.000
 -16132911.63349 -12257543.03246  21453676.432    21453674.928    21453689.873
       227.000         175.000
   4314105.64549   3374706.64346  22227408.633    22227406.760    22227420.145
       230.000         175.000
 -19229457.59749 -14955109.24547  20907768.328    20907767.507    20907776.547
       238.000         191.000
 00  5 22 17 17 29.9950000  0  8G24G 6G 4G 5G 7G10G 9G30
 -17957980.82149 -13971905.43547  19142262.422    19142261.213    19142270.104
       236.000         200.000
  -6859608.24949  -5329160.34745  22890755.957    22890755.024    22890768.178
       218.000         152.000
   1533220.59949   1206341.82647  21057898.481    21057897.385    21057906.611
       236.000         190.000
 -25265464.09949 -19663347.34647  19081189.790    19081188.222    19081196.739
       237.000         201.000
  11082712.20049   8629279.82045  23693698.428    23693696.129    23693712.157
       204.000         144.000
 -16246634.76949 -12346158.35446  21432035.568    21432034.036    21432048.938
       226.000         176.000
   4380971.64349   3426809.77146  22240132.935    22240131.114    22240144.520
       230.000         175.000
 -19337270.93749 -15039119.60047  20887252.036    20887251.279    20887260.319
       237.000         191.000
 00  5 22 17 17 59.9950000  0  8G24G 6G 4G 5G 7G10G 9G30
 -17952131.03549 -13967347.17247  19143375.601    19143374.403    19143383.275
       236.000         200.000
  -6956054.87449  -5404313.46145  22872402.685    22872401.719    22872414.862
       222.000         157.000
   1597919.92749   1256756.77847  21070210.462    21070209.336    21070218.600
       236.000         190.000
 -25310753.34449 -19698637.67447  19072571.626    19072570.009    19072578.514
       237.000         201.000
  11130388.40349   8666429.96945  23702771.170    23702768.777    23702784.774
       205.000         140.000
 -16360131.82449 -12434597.49746  21410437.659    21410436.174    21410451.037
       227.000         175.000
   4447925.08449   3478981.01746  22252873.915    22252872.101    22252885.555
       227.000         174.000
 -19444844.74749 -15122943.31047  20866781.301    20866780.618    20866789.661
       238.000         191.000
 00  5 22 17 18 29.9950000  0  8G24G 6G 4G 5G 7G10G 9G30
 -17945823.10249 -13962431.91447  19144575.977    19144574.765    19144583.617
       238.000         200.000
  -7052443.04449  -5479421.02045  22854060.522    22854059.543    22854072.588
       219.000         155.000
   1662843.27949   1307346.29547  21082565.101    21082563.930    21082573.241
       236.000         189.000
 -25355532.50649 -19733530.53747  19064050.482    19064048.853    19064057.342
       237.000         201.000
  11178135.46049   8703635.37745  23711857.297    23711854.793    23711870.637
       203.000         133.000
 -16473340.94449 -12522812.31446  21388894.584    21388893.060    21388907.897
       227.000         175.000
   4515021.43449   3531263.62446  22265642.108    22265640.246    22265653.817
       227.000         175.000
 -19552117.86949 -15206532.72247  20846367.898    20846367.177    20846376.195
       238.000         191.000
 00  5 22 17 18 59.9950000  0  8G24G 6G 4G 5G 7G10G 9G30
 -17939097.03849 -13957190.83347  19145855.891    19145854.692    19145863.498
       236.000         199.000
  -7148810.88749  -5554512.71945  22835722.079    22835721.172    22835734.382
       217.000         155.000
   1727949.85649   1358078.57747  21094954.523    21094953.373    21094962.716
       236.000         189.000
 -25399838.63849 -19768054.80047  19055619.341    19055617.710    19055626.191
       237.000         201.000
  11225915.23849   8740866.22145  23720949.468    23720947.139    23720962.802
       205.000         138.000
 -16586297.43549 -12610830.27146  21367399.535    21367398.039    21367412.787
       228.000         175.000
   4582219.40449   3583625.42946  22278429.533    22278427.761    22278441.391
       229.000         174.000
 -19659126.62149 -15289916.12647  20826004.838    20826004.057    20826013.028
       238.000         191.000
 00  5 22 17 19 29.9950000  0  8G24G 6G 4G 5G 7G10G 9G30
 -17931953.89049 -13951624.76547  19147215.110    19147213.951    19147222.771
       237.000         199.000
  -7245157.74649  -5629588.08845  22817387.751    22817386.877    22817400.009
       219.000         159.000
   1793238.08649   1408952.41047  21107378.468    21107377.383    21107386.785
       235.000         189.000
 -25443669.61049 -19802208.81547  19047278.598    19047276.975    19047285.452
       237.000         200.000
  11273728.69249   8778123.29845  23730048.227    23730045.841    23730061.539
       207.000         139.000
 -16698997.30049 -12698648.25446  21345953.380    21345951.882    21345966.547
       228.000         176.000
   4649517.00749   3636064.87046  22291236.127    22291234.321    22291247.990
       229.000         174.000
 -19765867.23349 -15373090.58847  20805692.691    20805691.949    20805700.913
       238.000         192.000
 00  5 22 17 19 59.9950000  0  8G24G 6G 4G 5G 7G10G 9G30
 -17924396.05349 -13945735.56447  19148653.267    19148652.143    19148660.963
       237.000         200.000
  -7341484.06349  -5704647.48145  22799057.455    22799056.512    22799069.497
       219.000         159.000
   1858705.00449   1459965.48147  21119836.456    21119835.414    21119844.842
       236.000         189.000
 -25487024.62649 -19835991.95647  19039028.338    19039026.787    19039035.264
       236.000         199.000
  11321575.45949   8815406.36145  23739153.447    23739150.917    23739166.613
       209.000         143.000
 -16811437.49049 -12786263.90446  21324556.636    21324555.142    21324569.767
       228.000         178.000
   4716910.90149   3688579.34546  22304061.062    22304059.200    22304072.900
       228.000         174.000
 -19872337.75049 -15456054.58647  20785431.915    20785431.235    20785440.175
       239.000         192.000
 00  5 22 17 20 29.9950000  0  8G24G 6G 4G 5G 7G10G 9G30
 -17916407.57549 -13939510.79947  19150173.417    19150172.296    19150181.123
       238.000         200.000
  -7437772.05849  -5779676.96745  22780734.228    22780733.395    22780746.477
       218.000         158.000
   1924365.78049   1511129.60246  21132331.371    21132330.339    21132339.793
       235.000         187.000
 -25529884.55649 -19869389.31747  19030872.307    19030870.794    19030879.273
       236.000         199.000
  11369473.30549   8852729.19745  23748268.147    23748265.673    23748281.351
       203.000         137.000
 -16923597.23949 -12873661.02346  21303213.218    21303211.755    21303226.350
       227.000         178.000
   4784415.99849   3741180.46046  22316906.971    22316905.171    22316918.938
       226.000         173.000
 -19978518.28149 -15538792.62747  20765226.340    20765225.701    20765234.677
       239.000         193.000
 00  5 22 17 20 59.9950000  0  8G24G 6G 4G 5G 7G10G 9G30
 -17907980.76249 -13932944.47947  19151777.056    19151775.873    19151784.720
       238.000         201.000
  -7534012.06549  -5854669.03845  22762420.115    22762419.393    22762432.572
       221.000         162.000
   1990227.93249   1562450.64546  21144864.689    21144863.573    21144873.043
       235.000         186.000
 -25572238.42749 -19902392.34047  19022812.623    19022811.107    19022819.582
       236.000         199.000
  11417432.21249   8890099.57545  23757394.429    23757391.969    23757407.680
       201.000         132.000
 -17035463.57749 -12960829.50246  21281925.701    21281924.193    21281938.803
       228.000         178.000
   4852038.76449   3793873.27046  22329775.259    22329773.553    22329787.374
       228.000         175.000
 -20084396.58449 -15621295.16347  20745078.340    20745077.686    20745086.703
       238.000         193.000
 00  5 22 17 21 29.9950000  0  8G24G 6G 4G 5G 7G10G 9G30
 -17899120.29749 -13926040.25047  19153463.142    19153461.977    19153470.824
       238.000         201.000
  -7630206.98549  -5929626.01945  22744114.650    22744114.004    22744127.212
       223.000         162.000
   2056285.67249   1613924.09446  21157435.145    21157434.020    21157443.506
       234.000         185.000
 -25614088.17649 -19935002.54947  19014848.875    19014847.349    19014855.831
       236.000         199.000
  11465449.12449   8927515.14845  23766531.652    23766529.337    23766545.235
       202.000         137.000
 -17147036.50049 -13047769.36146  21260693.943    21260692.487    21260707.109
       229.000         179.000
   4919773.43149   3846653.27146  22342664.802    22342663.216    22342677.137
       229.000         174.000
 -20189973.21749 -15703562.63147  20724987.696    20724987.060    20724996.123
       238.000         193.000
 00  5 22 17 21 59.9950000  0  8G24G 6G 4G 5G 7G10G 9G30
 -17889863.32149 -13918827.05747  19155224.763    19155223.535    19155232.354
       238.000         201.000
  -7726392.14549  -6004575.38545  22725811.346    22725810.525    22725823.713
       223.000         161.000
   2122501.50349   1665520.73046  21170035.720    21170034.596    21170044.097
       235.000         186.000
 -25655467.56249 -19967246.24047  19006974.636    19006973.117    19006981.570
       236.000         199.000
  11513489.04149   8964948.65945  23775673.272    23775671.124    23775687.090
       202.000         133.000
 -17258347.68349 -13134505.24546  21239512.171    21239510.613    21239525.258
       230.000         179.000
   4987582.01049   3899490.86546  22355568.534    22355566.959    22355580.960
       227.000         173.000
 -20295280.93449 -15785620.55647  20704948.249    20704947.621    20704956.724
       239.000         193.000
 00  5 22 17 22 29.9950000  0  8G24G 6G 4G 5G 7G10G 9G30
 -17880186.22849 -13911286.50247  19157066.266    19157065.046    19157073.864
       238.000         201.000
  -7822542.30349  -6079497.46945  22707514.362    22707513.629    22707526.865
       221.000         162.000
   2188898.56249   1717258.59646  21182670.813    21182669.633    21182679.154
       235.000         185.000
 -25696349.90249 -19999102.62147  18999194.959    18999193.453    18999201.882
       236.000         199.000
  11561577.61449   9002420.09745  23784824.367    23784822.245    23784838.381
       200.000         137.000
 -17369368.29949 -13221014.71146  21218385.685    21218384.036    21218398.641
       230.000         180.000
   5055486.86549   3952403.47846  22368490.435    22368488.954    22368503.051
       225.000         170.000
 -20400291.56549 -15867446.98747  20684965.365    20684964.743    20684973.854
       238.000         193.000
 00  5 22 17 22 59.9950000  0  8G24G 6G 4G 5G 7G10G 9G30
 -17870083.35049 -13903414.17147  19158988.831    19158987.599    19158996.392
       238.000         201.000
  -7918649.53349  -6154386.11246  22689225.693    22689224.941    22689238.117
       223.000         163.000
   2255482.02749   1769141.71846  21195341.264    21195340.112    21195349.672
       233.000         184.000
 -25736726.18949 -20030564.67847  18991511.621    18991510.117    18991518.538
       236.000         199.000
  11609722.63549   9039935.40845  23793986.044    23793983.889    23794000.282
       203.000         140.000
 -17480087.81849 -13307289.55746  21197316.503    21197314.784    21197329.333
       230.000         180.000
   5123492.73849   4005394.79846  22381431.756    22381430.168    22381444.335
       226.000         168.000
 -20504994.94149 -15949033.99347  20665040.943    20665040.341    20665049.451
       239.000         194.000
 00  5 22 17 23 29.9950000  0  8G24G 6G 4G 5G 7G10G 9G30
 -17859587.22849 -13895235.41847  19160986.267    19160984.990    19160993.767
       239.000         202.000
  -8014744.66449  -6229265.33445  22670939.320    22670938.594    22670951.687
       221.000         161.000
   2322218.78449   1821144.28846  21208040.860    21208039.774    21208049.354
       234.000         184.000
 -25776626.05749 -20061655.50147  18983918.928    18983917.434    18983925.843
       237.000         200.000
  11657893.47549   9077470.90045  23803152.811    23803150.598    23803166.971
       209.000         147.000
 -17590533.70949 -13393351.18546  21176299.297    21176297.586    21176312.085
       230.000         179.000
   5191566.05949   4058438.68046  22394385.914    22394384.282    22394398.453
       227.000         169.000
 -20609419.58349 -16030403.80547  20645169.684    20645168.997    20645178.099
       239.000         194.000
 00  5 22 17 23 59.9950000  0  8G24G 6G 4G 5G 7G10G 9G30
 -17848680.85749 -13886736.98247  19163061.724    19163060.432    19163069.239
       238.000         202.000
  -8110808.80449  -6304120.36346  22652658.968    22652658.133    22652671.309
       224.000         163.000
   2389125.10249   1873278.99246  21220772.866    21220771.717    21220781.298
       234.000         184.000
 -25816029.34449 -20092359.37347  18976420.773    18976419.251    18976427.651
       237.000         200.000
  11706109.19849   9115041.35845  23812328.279    23812326.064    23812342.263
       205.000         141.000
 -17700683.80949 -13479182.32046  21155338.388    21155336.677    21155351.119
       229.000         179.000
   5259722.78749   4111547.55646  22407356.114    22407354.343    22407368.467
       227.000         171.000
 -20713543.96449 -16111539.64047  20625355.550    20625354.782    20625363.869
       240.000         194.000
 00  5 22 17 24 29.9950000  0  8G24G 6G 4G 5G 7G10G 9G30
 -17837371.00749 -13877924.16147  19165213.939    19165212.644    19165221.484
       238.000         202.000
  -8206846.67949  -6378955.01346  22634383.615    22634382.691    22634395.760
       224.000         165.000
   2456194.02649   1925540.39746  21233535.772    21233534.604    21233544.181
       235.000         185.000
 -25854939.73649 -20122679.18447  18969016.445    18969014.893    18969023.264
       238.000         201.000
  11754365.07948   9152643.08844  23821511.443    23821509.155    23821525.038
       191.000         121.000
 -17810539.66349 -13564784.17746  21134433.352    21134431.681    21134446.065
       229.000         176.000
   5327955.44449   4164715.57146  22420340.675    22420338.808    22420352.950
       229.000         171.000
 -20817370.58549 -16192443.46847  20605598.004    20605597.215    20605606.289
       240.000         194.000
 00  5 22 17 24 59.9950000  0  7G24G 6G 4G 5G10G 9G30
 -17825670.42549 -13868806.87247  19167440.480    19167439.210    19167448.075
       239.000         202.000
  -8302869.09849  -6453777.59746  22616111.054    22616110.199    22616123.215
       223.000         164.000
   2523412.17549   1977918.09146  21246327.020    21246325.883    21246335.472
       234.000         185.000
 -25893366.88549 -20152622.43847  18961704.069    18961702.476    18961710.850
       237.000         201.000
 -17920109.11549 -13650162.87346  21113582.825    21113581.192    21113595.486
       228.000         176.000
   5396249.97949   4217931.81246  22433336.948    22433335.038    22433349.214
       224.000         169.000
 -20920907.77249 -16273121.76147  20585895.568    20585894.739    20585903.761
       241.000         193.000
 00  5 22 17 25 29.9950000  0  7G24G 6G 4G 5G10G 9G30
 -17813548.94249 -13859361.60747  19169747.066    19169745.848    19169754.740
       238.000         202.000
  -8398843.79549  -6528562.98546  22597847.820    22597846.816    22597859.744
       225.000         165.000
   2590809.48749   2030435.37346  21259152.282    21259151.251    21259160.866
       234.000         186.000
 -25931277.54349 -20182163.23147  18954489.906    18954488.325    18954496.734
       236.000         201.000
 -18029356.84649 -13735290.84946  21092793.465    21092791.900    21092806.191
       227.000         178.000
   5464635.67349   4271219.07146  22446350.346    22446348.547    22446362.775
       226.000         169.000
 -21024120.71349 -16353547.40447  20566254.790    20566253.954    20566262.888
       240.000         194.000
 00  5 22 17 25 59.9950000  0  7G24G 6G 4G 5G10G 9G30
 -17801007.45449 -13849589.07047  19172133.605    19172132.416    19172141.333
       238.000         201.000
  -8494770.09849  -6603310.65446  22579593.564    22579592.563    22579605.450
       223.000         165.000
   2658384.40249   2083091.04946  21272011.516    21272010.414    21272020.058
       234.000         186.000
 -25968669.54449 -20211299.88147  18947374.375    18947372.855    18947381.302
       236.000         200.000
 -18138278.44649 -13820164.68846  21072066.021    21072064.670    21072078.983
       228.000         177.000
   5533110.62049   4324575.88946  22459380.849    22459379.071    22459393.338
       226.000         170.000
 -21127006.07149 -16433717.79847  20546676.305    20546675.503    20546684.363
       240.000         194.000
 00  5 22 17 26 29.9950000  0  7G24G 6G 4G 5G10G 9G30
 -17788067.47049 -13839506.00547  19174596.036    19174594.818    19174603.773
       238.000         201.000
  -8590667.51749  -6678035.83046  22561344.953    22561343.863    22561356.580
       224.000         165.000
   2726115.05849   2135868.09446  21284900.267    21284899.202    21284908.896
       233.000         185.000
 -26005561.41049 -20240046.79947  18940354.065    18940352.562    18940361.041
       236.000         200.000
 -18246890.47749 -13904797.29146  21051397.718    21051396.354    21051410.678
       228.000         178.000
   5601652.51249   4377984.87446  22472424.079    22472422.336    22472436.698
       227.000         171.000
 -21229580.96749 -16513646.25447  20527156.870    20527156.116    20527164.961
       239.000         194.000
 00  5 22 17 26 59.9950000  0  7G24G 6G 4G 5G10G 9G30
 -17774720.60149 -13829105.88547  19177135.876    19177134.671    19177143.621
       238.000         201.000
  -8686525.51849  -6752730.30046  22543103.469    22543102.584    22543115.293
       223.000         165.000
   2794009.46949   2188772.72746  21297820.082    21297819.115    21297828.901
       231.000         186.000
 -26041941.64349 -20268395.05647  18933431.161    18933429.634    18933438.145
       236.000         200.000
 -18355179.23249 -13989177.99446  21030790.977    21030789.534    21030803.901
       230.000         179.000
   5670268.88149   4431451.90046  22485481.532    22485479.806    22485494.195
       225.000         169.000
 -21331832.14449 -16593322.47247  20507699.037    20507698.341    20507707.190
       240.000         195.000
 00  5 22 17 27 29.9950000  0  7G24G 6G 4G 5G10G 9G30
 -17760985.19749 -13818403.00947  19179749.718    19179748.458    19179757.409
       239.000         201.000
  -8782360.38049  -6827406.69246  22524866.670    22524865.762    22524878.485
       225.000         167.000
   2862048.78149   2241790.29446  21310767.584    21310766.616    21310776.504
       231.000         186.000
 -26077825.53649 -20296356.54547  18926602.722    18926601.175    18926609.718
       236.000         200.000
 -18463158.07949 -14073317.16746  21010243.248    21010241.741    21010256.078
       230.000         179.000
   5738940.33349   4484961.83846  22498549.363    22498547.735    22498562.207
       225.000         167.000
 -21433773.79149 -16672757.48947  20488300.221    20488299.453    20488308.344
       240.000         196.000
 00  5 22 17 27 59.9950000  0  7G24G 6G 4G 5G10G 9G30
 -17746832.14549 -13807374.69247  19182443.066    19182441.739    19182450.676
       239.000         201.000
  -8878141.01149  -6902040.84546  22506640.254    22506639.273    22506651.960
       223.000         166.000
   2930262.12249   2294943.43846  21323748.110    21323747.240    21323757.213
       230.000         185.000
 -26113180.70449 -20323906.04047  18919874.901    18919873.339    18919881.886
       236.000         200.000
 -18570792.41149 -14157187.88946  20989761.002    20989759.498    20989773.829
       228.000         178.000
   5807695.43349   4538536.95246  22511633.137    22511631.586    22511646.136
       225.000         165.000
 -21535372.43749 -16751925.23747  20468966.628    20468965.857    20468974.750
       241.000         196.000
 00  5 22 17 28 29.9950000  0  7G24G 6G 4G 5G10G 9G30
 -17732288.05649 -13796041.66347  19185210.752    19185209.432    19185218.345
       239.000         201.000
  -8973892.06649  -6976651.95846  22488419.214    22488418.358    22488431.043
       224.000         167.000
   2998622.14549   2348210.88946  21336756.638    21336755.765    21336765.819
       231.000         184.000
 -26148031.03549 -20351062.15947  18913243.152    18913241.581    18913250.132
       236.000         200.000
 -18678103.88249 -14240807.00746  20969340.066    20969338.665    20969352.992
       228.000         179.000
   5876506.35449   4592155.56346  22524727.647    22524726.051    22524740.694
       226.000         165.000
 -21636650.24249 -16830842.98147  20449694.069    20449693.325    20449702.174
       241.000         196.000
 00  5 22 17 28 59.9950000  0  7G24G 6G 4G 5G10G 9G30
 -17717361.14849 -13784410.33247  19188051.298    19188049.967    19188058.846
       239.000         201.000
  -9069619.91449  -7051244.96746  22470202.625    22470201.842    22470214.578
       222.000         166.000
   3067120.16149   2401585.88146  21349791.510    21349790.569    21349800.667
       232.000         184.000
 -26182382.01049 -20377829.16447  18906706.441    18906704.844    18906713.383
       236.000         200.000
 -18785096.04349 -14324177.30546  20948980.033    20948978.624    20948992.917
       229.000         179.000
   5945363.66249   4645810.32546  22537830.999    22537829.365    22537844.060
       227.000         166.000
 -21737610.91849 -16909513.60847  20430481.837    20430481.126    20430489.973
       241.000         197.000
 00  5 22 17 29 29.9950000  0  7G24G 6G 4G 5G10G 9G30
 -17702055.06849 -13772483.54347  19190963.982    19190962.646    19190971.515
       238.000         201.000
  -9165325.92149  -7125820.96646  22451990.463    22451989.506    22452002.186
       221.000         165.000
   3135752.44249   2455065.49646  21362851.902    21362850.958    21362861.021
       233.000         183.000
 -26216234.00449 -20404207.35547  18900264.650    18900263.066    18900271.592
       236.000         199.000
 -18891767.04949 -14407297.33346  20928681.189    20928679.727    20928693.927
       229.000         179.000
   6014263.20749   4699497.99946  22550942.516    22550940.742    22550955.497
       226.000         168.000
 -21838253.57049 -16987936.42847  20411330.156    20411329.435    20411338.315
       241.000         198.000
 00  5 22 17 29 59.9950000  0  7G24G 6G 4G 5G10G 9G30
 -17686356.22549 -13760250.70347  19193951.389    19193950.050    19193958.946
       238.000         201.000
  -9260994.53549  -7200367.84146  22433785.230    22433784.296    22433796.886
       223.000         163.000
   3204532.20449   2508660.02546  21375940.446    21375939.423    21375949.452
       233.000         183.000
 -26249570.49349 -20430183.85847  18893920.950    18893919.346    18893927.907
       236.000         199.000
 -18998097.95549 -14490152.33646  20908447.036    20908445.530    20908459.650
       230.000         180.000
   6083217.71549   4753228.51446  22564064.343    22564062.586    22564077.424
       228.000         168.000
 -21938559.95249 -17066097.22347  20392242.566    20392241.772    20392250.620
       241.000         198.000
 00  5 22 17 30 29.9950000  0  7G24G 6G 4G 5G10G 9G30
 -17670268.07949 -13747714.50647  19197012.826    19197011.527    19197020.455
       238.000         202.000
  -9356627.06649  -7274886.58946  22415586.825    22415585.939    22415598.526
       222.000         166.000
   3273455.69949   2562366.56046  21389056.335    21389055.232    21389065.289
       232.000         183.000
 -26282391.84649 -20455758.95347  18887675.218    18887673.662    18887682.240
       236.000         199.000
 -19104087.22549 -14572741.11846  20888277.819    20888276.332    20888290.385
       230.000         179.000
   6152222.96849   4806998.55446  22577195.908    22577194.088    22577209.046
       224.000         167.000
 -22038529.22849 -17143995.33447  20373219.034    20373218.271    20373227.083
       241.000         198.000
 00  5 22 17 30 59.9950000  0  7G24G 6G 4G 5G10G 9G30
 -17653800.20349 -13734882.41947  19200146.536    19200145.268    19200154.226
       239.000         201.000
  -9452231.02449  -7349383.06646  22397393.969    22397393.009    22397405.627
       222.000         166.000
   3342513.06249   2616177.38546  21402197.615    21402196.473    21402206.544
       231.000         181.000
 -26314704.72549 -20480937.83247  18881526.231    18881524.724    18881533.318
       236.000         199.000
 -19209739.62049 -14655067.39246  20868172.680    20868171.196    20868185.203
       230.000         180.000
   6221268.34749   4860799.85246  22590335.032    22590333.166    22590348.252
       223.000         165.000
 -22138166.64949 -17221634.85147  20354258.653    20354257.890    20354266.712
       242.000         198.000
 00  5 22 17 31 29.9950000  0  7G24G 6G 4G 5G10G 9G30
 -17636922.76849 -13721731.19147  19203358.224    19203356.966    19203365.924
       239.000         202.000
  -9547774.71349  -7423832.59346  22379212.436    22379211.549    22379224.137
       223.000         168.000
   3411733.71449   2670115.47146  21415369.945    21415368.794    21415378.849
       231.000         180.000
 -26346476.22049 -20505694.86047  18875480.328    18875478.830    18875487.396
       236.000         199.000
 -19315020.11749 -14737103.87546  20848138.290    20848136.849    20848150.803
       229.000         181.000
   6290382.89749   4914655.03946  22603487.323    22603485.418    22603500.664
       225.000         165.000
 -22237437.75649 -17298988.93747  20335368.058    20335367.218    20335376.029
       242.000         198.000
 00  5 22 17 31 59.9950000  0  7G24G 6G 4G 5G10G 9G30
 -17619664.79549 -13708283.44047  19206642.377    19206641.091    19206650.044
       240.000         202.000
  -9643284.73449  -7498255.85646  22361037.447    22361036.525    22361049.141
       223.000         169.000
   3481088.53849   2724158.09746  21428567.883    21428566.677    21428576.704
       230.000         179.000
 -26377732.41649 -20530050.34947  18869532.471    18869530.993    18869539.526
       236.000         199.000
 -19419952.15549 -14818868.82246  20828170.189    20828168.798    20828182.747
       229.000         181.000
   6359537.04049   4968541.10446  22616647.091    22616645.237    22616660.570
       225.000         166.000
 -22336367.06049 -17376076.68147  20316542.557    20316541.623    20316550.376
       242.000         198.000
 00  5 22 17 32 29.9950000  0  7G24G 6G 4G 5G10G 9G30
 -17602036.86249 -13694547.41247  19209997.012    19209995.630    19210004.562
       240.000         203.000
  -9738769.68449  -7572659.59146  22342867.269    22342866.304    22342878.905
       225.000         171.000
   3550566.60449   2778296.74446  21441789.085    21441787.912    21441798.026
       226.000         177.000
 -26408481.24949 -20554010.49347  18863681.242    18863679.706    18863688.202
       236.000         199.000
 -19524541.74249 -14900366.94346  20808267.237    20808265.889    20808279.848
       230.000         182.000
   6428719.06349   5022448.88746  22629812.280    22629810.401    22629825.836
       225.000         167.000
 -22434960.78749 -17452902.94047  20297780.774    20297779.844    20297788.589
       242.000         198.000
 00  5 22 17 32 59.9950000  0  7G24G 6G 4G 5G10G 9G30
 -17584039.17849 -13680523.26247  19213421.830    19213420.511    19213429.455
       240.000         203.000
  -9834227.74449  -7647042.36046  22324702.111    22324701.179    22324713.834
       224.000         172.000
   3620167.57549   2832531.15346  21455033.569    21455032.556    21455042.739
       226.000         178.000
 -26438719.69049 -20577572.93147  18857927.057    18857925.515    18857934.010
       235.000         198.000
 -19628783.70049 -14981594.18446  20788430.405    20788429.131    20788443.083
       230.000         182.000
   6497928.22249   5076377.77946  22642982.619    22642980.735    22642996.268
       224.000         167.000
 -22533214.39249 -17529464.16547  20279083.738    20279082.797    20279091.529
       243.000         199.000
 00  5 22 17 33 29.9950000  0  7G24G 6G 4G 5G10G 9G30
 -17565671.57349 -13666210.87147  19216917.115    19216915.788    19216924.764
       240.000         203.000
  -9929656.41749  -7721402.27146  22306542.538    22306541.640    22306554.316
       225.000         169.000
   3689891.41849   2886861.30046  21468301.653    21468300.611    21468310.852
       227.000         178.000
 -26468444.76149 -20600735.34047  18852270.567    18852269.048    18852277.496
       235.000         198.000
 -19732672.57849 -15062546.32746  20768660.962    20768659.602    20768673.442
       231.000         183.000
   6567163.79249   5130327.27546  22656157.808    22656156.046    22656171.726
       224.000         167.000
 -22631123.03849 -17605756.60047  20260452.387    20260451.422    20260460.126
       243.000         199.000
 00  5 22 17 33 59.9950000  0  7G24G 6G 4G 5G10G 9G30
 -17546936.50549 -13651612.14447  19220482.338    19220480.994    19220489.954
       240.000         203.000
 -10025056.31449  -7795739.74346  22288388.484    22288387.612    22288400.220
       225.000         169.000
   3759735.33549   2941285.02146  21481592.565    21481591.516    21481601.805
       227.000         179.000
 -26497656.19149 -20623497.50947  18846711.849    18846710.286    18846718.748
       235.000         199.000
 -19836206.07149 -15143221.53446  20748959.072    20748957.724    20748971.451
       232.000         184.000
   6636422.49049   5184294.78346  22669337.623    22669335.750    22669351.496
       224.000         168.000
 -22728685.11849 -17681778.97847  20241886.932    20241885.992    20241894.689
       243.000         200.000
 00  5 22 17 34 29.9950000  0  7G24G 6G 4G 5G10G 9G30
 -17527849.53549 -13636739.21547  19224114.516    19224113.167    19224122.103
       241.000         203.000
 -10120440.61849  -7870065.04046  22270237.507    22270236.525    22270249.160
       224.000         169.000
   3829683.72049   2995790.14046  21494903.378    21494902.307    21494912.664
       228.000         180.000
 -26526366.33349 -20645869.06547  18841248.526    18841246.937    18841255.409
       235.000         199.000
 -19939394.36149 -15223627.76346  20729322.891    20729321.500    20729335.204
       231.000         185.000
   6705688.22149   5238267.78946  22682518.781    22682516.817    22682532.544
       225.000         166.000
 -22825911.39349 -17757539.69047  20223385.303    20223384.447    20223393.144
       243.000         200.000
 00  5 22 17 34 59.9950000  0  7G24G 6G 4G 5G10G 9G30
 -17508379.40349 -13621567.71347  19227819.576    19227818.243    19227827.169
       240.000         203.000
 -10215776.22949  -7944352.42646  22252095.621    22252094.673    22252107.237
       225.000         168.000
   3899767.35849   3050400.65546  21508239.849    21508238.802    21508249.291
       226.000         179.000
 -26554541.43249 -20667823.70347  18835887.033    18835885.437    18835893.894
       236.000         199.000
 -20042201.34549 -15303736.86846  20709759.157    20709757.823    20709771.504
       230.000         184.000
   6774991.09449   5292269.73246  22695707.041    22695704.988    22695720.733
       227.000         166.000
 -22922766.49049 -17833011.17347  20204954.383    20204953.525    20204962.221
       243.000         199.000
 00  5 22 17 35 29.9950000  0  7G24G 6G 4G 5G10G 9G30
 -17488538.25549 -13606107.11447  19231595.254    19231593.925    19231602.804
       240.000         203.000
 -10311072.75849  -8018609.35846  22233961.141    22233960.230    22233972.731
       224.000         168.000
   3969974.23649   3105107.20046  21521599.843    21521598.772    21521609.322
       227.000         179.000
 -26582190.37549 -20689368.35047  18830625.725    18830624.044    18830632.520
       236.000         200.000
 -20144633.63949 -15383554.03046  20690266.713    20690265.410    20690279.067
       231.000         184.000
   6844318.64549   5346290.91846  22708900.009    22708897.908    22708913.601
       226.000         164.000
 -23019257.35749 -17908198.83647  20186592.775    20186591.904    20186600.586
       243.000         200.000
 00  5 22 17 35 59.9950000  0  7G24G 6G 4G 5G10G 9G30
 -17468331.22349 -13590361.41647  19235440.531    19235439.206    19235448.103
       240.000         203.000
 -10406333.57149  -8092838.43746  22215833.496    22215832.637    22215845.079
       225.000         168.000
   4040298.99249   3159905.59846  21534982.360    21534981.268    21534991.831
       230.000         182.000
 -26609315.92149 -20710505.15147  18825463.961    18825462.260    18825470.748
       236.000         200.000
 -20246691.68049 -15463079.56746  20670845.527    20670844.236    20670857.842
       231.000         185.000
   6913664.47849   5400326.30346  22722096.302    22722094.228    22722110.096
       225.000         164.000
 -23115385.40349 -17983103.78947  20168300.158    20168299.333    20168308.005
       242.000         199.000
 00  5 22 17 36 29.9950000  0  7G24G 6G 4G 5G10G 9G30
 -17447762.80049 -13574334.11047  19239354.588    19239353.277    19239362.176
       241.000         203.000
 -10501560.55949  -8167041.16046  22197712.334    22197711.445    22197723.874
       225.000         167.000
   4110736.96349   3214792.21546  21548386.351    21548385.287    21548395.880
       227.000         179.000
 -26635919.16149 -20731234.97147  18820401.537    18820399.848    18820408.362
       236.000         200.000
 -20348374.40349 -15542312.66146  20651495.846    20651494.500    20651508.019
       231.000         185.000
   6983023.91049   5454372.31346  22735295.260    22735293.121    22735309.130
       219.000         163.000
 -23211149.94249 -18057725.49247  20150076.737    20150075.905    20150084.591
       242.000         199.000
 00  5 22 17 36 59.9950000  0  7G24G 6G 4G 5G10G 9G30
 -17426824.46149 -13558018.55847  19243339.024    19243337.737    19243346.654
       240.000         203.000
 -10596743.36949  -8241209.47446  22179599.582    22179598.668    22179611.022
       225.000         170.000
   4181296.37949   3269773.46446  21561813.374    21561812.319    21561822.993
       228.000         177.000
 -26661989.12649 -20751549.24247  18815440.552    18815438.896    18815447.464
       236.000         200.000
 -20449668.75449 -15621243.12646  20632219.971    20632218.666    20632232.087
       232.000         184.000
   7052404.38449   5508434.69346  22748498.052    22748495.970    22748512.151
       222.000         164.000
 -23306538.08649 -18132053.89547  20131924.893    20131924.114    20131932.806
       242.000         199.000
 00  5 22 17 37 29.9950000  0  7G24G 6G 4G 5G10G 9G30
 -17405525.61749 -13541422.09747  19247392.065    19247390.791    19247399.739
       241.000         203.000
 -10691889.16649  -8315348.93846  22161493.929    22161492.956    22161505.248
       226.000         171.000
   4251967.95249   3324842.10046  21575261.837    21575260.760    21575271.438
       228.000         173.000
 -26687532.36149 -20771453.07947  18810579.887    18810578.220    18810586.786
       236.000         200.000
 -20550578.71249 -15699874.08346  20613017.284    20613015.950    20613029.321
       231.000         184.000
   7121795.91649   5562505.69345  22761702.959    22761700.905    22761717.286
       221.000         162.000
 -23401554.86549 -18206092.93647  20113843.761    20113843.004    20113851.686
       243.000         199.000
 00  5 22 17 37 59.9950000  0  7G24G 6G 4G 5G10G 9G30
 -17383877.51049 -13524553.48547  19251511.646    19251510.347    19251519.295
       241.000         203.000
 -10787006.85249  -8389466.50146  22143393.556    22143392.614    22143404.804
       226.000         169.000
   4322740.26349   3379989.24646  21588729.547    21588728.381    21588739.027
       227.000         173.000
 -26712557.44949 -20790953.16547  18805817.821    18805816.133    18805824.668
       236.000         199.000
 -20651110.55949 -15778210.41046  20593886.516    20593885.208    20593898.528
       232.000         185.000
   7191186.61149   5616576.03045  22774907.925    22774905.770    22774922.291
       222.000         162.000
 -23496206.94149 -18279847.78547  20095832.065    20095831.303    20095839.943
       243.000         199.000
 00  5 22 17 38 29.9950000  0  7G24G 6G 4G 5G10G 9G30
 -17361868.82349 -13507403.89047  19255699.756    19255698.478    19255707.438
       241.000         203.000
 -10882082.88049  -8463551.59746  22125301.157    22125300.185    22125312.278
       227.000         172.000
   4393624.64149   3435223.71746  21602218.513    21602217.311    21602227.931
       227.000         172.000
 -26737050.09449 -20810038.35847  18801157.040    18801155.387    18801163.909
       236.000         199.000
 -20751247.52049 -15856239.03446  20574831.066    20574829.653    20574842.866
       233.000         185.000
   7260587.05249   5670653.96945  22788114.794    22788112.457    22788129.144
       221.000         162.000
 -23590478.51849 -18353306.14347  20077892.763    20077892.019    20077900.625
       243.000         199.000
 00  5 22 17 38 59.9950000  0  7G24G 6G 4G 5G10G 9G30
 -17339509.84249 -13489981.34047  19259954.589    19259953.286    19259962.236
       241.000         203.000
 -10977125.28549  -8537610.48646  22107215.164    22107214.163    22107226.209
       228.000         171.000
   4464610.54049   3490537.28746  21615726.835    21615725.550    21615736.201
       224.000         171.000
 -26761017.87049 -20828714.56947  18796596.154    18796594.513    18796603.022
       236.000         199.000
 -20850995.15449 -15933964.28446  20555849.498    20555848.140    20555861.309
       231.000         185.000
   7329986.09849   5724730.82145  22801321.168    22801318.853    22801335.675
       222.000         162.000
 -23684375.35649 -18426472.50547  20060024.804    20060024.039    20060032.590
       243.000         200.000
 00  5 22 17 39 29.9950000  0  7G24G 6G 4G 5G10G 9G30
 -17316814.44149 -13472296.65747  19264273.393    19264272.107    19264281.049
       241.000         203.000
 -11072145.86349  -8611652.39646  22089133.173    22089132.239    22089144.261
       227.000         172.000
   4535683.97849   3545919.07446  21629251.676    21629250.489    21629261.101
       225.000         172.000
 -26784472.11549 -20846990.62847  18792132.961    18792131.350    18792139.808
       236.000         199.000
 -20950362.38049 -16011393.13246  20536940.333    20536939.006    20536952.161
       232.000         186.000
   7399369.15049   5778795.19645  22814524.535    22814522.269    22814539.121
       222.000         162.000
 -23777906.88249 -18499354.20347  20042226.273    20042225.568    20042234.095
       243.000         201.000
 00  5 22 17 39 59.9950000  0  7G24G 6G 4G 5G10G 9G30
 -17293767.83749 -13454338.30147  19268659.083    19268657.772    19268666.718
       242.000         203.000
 -11167127.52949  -8685663.96446  22071058.707    22071057.716    22071069.754
       228.000         173.000
   4606859.84049   3601380.67246  21642796.073    21642794.872    21642805.482
       226.000         171.000
 -26807395.24449 -20864852.82347  18787770.920    18787769.249    18787777.699
       236.000         198.000
 -21049329.25149 -16088509.99046  20518107.383    20518106.083    20518119.164
       233.000         187.000
   7468750.81349   5832858.47445  22827727.580    22827725.397    22827742.281
       222.000         162.000
 -23871053.67349 -18571936.10847  20024501.087    20024500.346    20024508.815
       244.000         201.000
 00  5 22 17 40 29.9950000  0  7G24G 6G 4G 5G10G 9G30
 -17270374.57749 -13436109.83247  19273110.749    19273109.419    19273118.353
       242.000         203.000
 -11262072.49349  -8759646.94146  22052991.359    22052990.264    22053002.250
       228.000         174.000
   4678133.60249   3656918.54546  21656359.176    21656357.926    21656368.488
       227.000         173.000
 -26829788.89949 -20882302.44247  18783509.607    18783507.917    18783516.323
       236.000         199.000
 -21147895.22349 -16165314.47346  20499350.978    20499349.532    20499362.432
       234.000         187.000
   7538125.62949   5886916.41146  22840929.410    22840927.256    22840944.209
       221.000         164.000
 -23963815.60849 -18644218.12747  20006849.120    20006848.331    20006856.767
       243.000         201.000
 00  5 22 17 40 59.9950000  0  7G24G 6G 4G 5G10G 9G30
 -17246645.58149 -13417619.73847  19277626.316    19277624.954    19277633.862
       241.000         203.000
 -11356989.55949  -8833608.18646  22034929.091    22034928.074    22034940.072
       229.000         175.000
   4749494.06849   3712523.99846  21669938.862    21669937.484    21669947.984
       228.000         172.000
 -26851661.57749 -20899346.10747  18779347.392    18779345.716    18779354.072
       236.000         198.000
 -21246066.03349 -16241811.03847  20480669.642    20480668.166    20480680.940
       234.000         188.000
   7607481.75149   5940959.78445  22854127.838    22854125.570    22854142.501
       220.000         162.000
 -24056199.05549 -18716205.22247  19989269.161    19989268.351    19989276.771
       244.000         201.000
 00  5 22 17 41 29.9950000  0  7G24G 6G 4G 5G10G 9G30
 -17222583.09149 -13398869.78147  19282205.258    19282203.923    19282212.830
       241.000         203.000
 -11451878.76949  -8907547.72446  22016872.213    22016871.232    22016883.155
       228.000         174.000
   4820939.11549   3768195.36546  21683534.493    21683533.139    21683543.563
       228.000         172.000
 -26873012.83849 -20915983.46947  18775284.397    18775282.725    18775291.025
       236.000         198.000
 -21343838.90049 -16317997.52347  20462064.052    20462062.507    20462075.216
       234.000         188.000
   7676816.69649   5994986.63146  22867322.022    22867319.812    22867336.882
       220.000         163.000
 -24148201.84649 -18787895.69247  19971761.627    19971760.820    19971769.202
       244.000         202.000
 00  5 22 17 41 59.9950000  0  7G24G 6G 4G 5G10G 9G30
 -17198175.03149 -13379850.55547  19286850.010    19286848.647    19286857.557
       241.000         203.000
 -11546725.61449  -8981454.26546  21998823.269    21998822.389    21998834.289
       227.000         172.000
   4892480.87049   3823942.08346  21697148.608    21697147.180    21697157.582
       227.000         174.000
 -26893828.03849 -20932203.12647  18771323.382    18771321.730    18771330.007
       236.000         199.000
 -21441196.80149 -16393860.66847  20443537.299    20443535.782    20443548.453
       234.000         188.000
   7746141.78349   6049005.79345  22880514.394    22880512.193    22880529.297
       220.000         158.000
 -24239807.50949 -18859276.71247  19954329.709    19954328.845    19954337.211
       244.000         202.000
 00  5 22 17 42 29.9950000  0  7G24G 6G 4G 5G10G 9G30
 -17173436.08349 -13360573.48747  19291557.667    19291556.331    19291565.241
       241.000         203.000
 -11641542.52749  -9055337.47346  21980780.130    21980779.224    21980791.140
       227.000         173.000
   4964104.61849   3879752.70746  21710778.227    21710776.868    21710787.245
       228.000         175.000
 -26914119.11149 -20948014.37047  18767462.104    18767460.468    18767468.738
       236.000         198.000
 -21538149.38649 -16469407.96847  20425087.724    20425086.196    20425098.820
       234.000         188.000
   7815441.76749   6103005.39145  22893701.938    22893699.807    22893716.893
       219.000         159.000
 -24331026.35349 -18930356.31647  19936971.358    19936970.495    19936978.812
       244.000         202.000
 00  5 22 17 42 59.9950000  0  7G24G 6G 4G 5G10G 9G30
 -17148331.83849 -13341011.78247  19296334.867    19296333.521    19296342.460
       241.000         203.000
 -11736293.02249  -9129168.92946  21962749.521    21962748.715    21962760.613
       225.000         172.000
   5035844.79249   3935654.05746  21724430.115    21724428.699    21724439.053
       228.000         178.000
 -26933848.93749 -20963388.28747  18763707.610    18763706.006    18763714.282
       236.000         199.000
 -21634657.57049 -16544608.99647  20406722.719    20406721.198    20406733.758
       234.000         188.000
   7884750.32849   6157011.70745  22906891.173    22906889.014    22906906.190
       220.000         161.000
 -24421819.32049 -19001104.07547  19919694.013    19919693.154    19919701.461
       245.000         203.000
 00  5 22 17 43 29.9950000  0  7G24G 6G 4G 5G10G 9G30
 -17122896.32549 -13321191.95147  19301175.081    19301173.754    19301182.718
       241.000         203.000
 -11831008.53849  -9202973.14346  21944725.707    21944724.884    21944736.735
       228.000         173.000
   5107667.36149   3991619.56646  21738097.516    21738096.191    21738106.604
       229.000         178.000
 -26953048.99649 -20978349.39147  18760053.969    18760052.365    18760060.659
       237.000         200.000
 -21730749.99749 -16619486.07047  20388436.740    20388435.292    20388447.818
       234.000         188.000
   7954032.89149   6210997.73145  22920075.376    22920073.295    22920090.547
       219.000         160.000
 -24512215.86149 -19071542.93247  19902492.061    19902491.245    19902499.565
       244.000         202.000
 00  5 22 17 43 59.9950000  0  7G24G 6G 4G 5G10G 9G30
 -17097144.41249 -13301125.56447  19306075.506    19306074.196    19306083.187
       241.000         203.000
 -11925701.81749  -9276760.01746  21926706.126    21926705.263    21926717.112
       226.000         173.000
   5179557.46849   4047637.70346  21751777.720    21751776.488    21751786.995
       227.000         177.000
 -26971731.56549 -20992907.25747  18756498.780    18756497.211    18756505.534
       236.000         200.000
 -21826436.85049 -16694047.10947  20370228.048    20370226.559    20370239.025
       234.000         189.000
   8023274.04349   6264951.47645  22933251.814    22933249.736    22933267.003
       219.000         158.000
 -24602226.21549 -19141680.85847  19885363.576    19885362.819    19885371.150
       244.000         202.000
 00  5 22 17 44 29.9950000  0  7G24G 6G 4G 5G10G 9G30
 -17071054.49849 -13280795.80447  19311040.182    19311038.942    19311048.007
       241.000         204.000
 -12020349.00449  -9350510.99446  21908695.249    21908694.404    21908706.221
       228.000         173.000
   5251536.79649   4103725.37946  21765475.015    21765473.790    21765484.293
       227.000         173.000
 -26989872.48949 -21007043.06547  18753046.641    18753045.117    18753053.479
       236.000         200.000
 -21921691.43549 -16768271.31847  20352101.584    20352100.102    20352112.543
       235.000         190.000
   8092494.79849   6318889.33245  22946424.123    22946422.164    22946439.594
       218.000         160.000
 -24691824.49949 -19211497.68847  19868313.494    19868312.773    19868321.162
       244.000         202.000
